[[{"header":{"parameterUnit":"m.s-1","parameterCategory":1,"la1":30.6,"la2":29.2853,"lo1":-89.7004,"lo2":-87.6739,"dy":0.0162,"dx":0.0183,"nx":112,"ny":82,"refTime":"2025-04-07T12:00:00:Z","depth":0,"parameterNumber":2,"parameterNumberName":"U-component_of_WINDS"},"data":[0.0,0.0,0.0,0.0,0.0,0.0,0.0,0.0,0.0,0.0,0.0,0.0,0.0,0.0,0.0,0.0,0.0,0.0,0.0,0.0,0.0,0.0,0.0,0.0,0.0,0.0,0.0,0.0,0.0,0.0,0.0,0.0,0.0,0.0,0.0,0.0,0.0,0.0,0.0,0.0,0.0,0.0,0.0,0.0,0.0,0.0,0.0,0.0,0.0,0.0,0.0,0.0,0.0,0.0,0.0,0.0,0.0,0.0,0.0,0.0,0.0,0.0,0.0,0.0,0.0,0.0,0.0,0.0,0.0,0.0,0.0,0.0,0.0,0.0,0.0,0.0,0.0,0.0,0.0,0.0,0.0,0.0,0.0,0.0,0.0,0.0,0.0,0.0,0.0,0.0,0.0,1.8485,2.0484,2.1585,2.1236,2.1145,1.9952,1.7257,0.0,0.0,0.0,0.0,0.0,0.0,0.0,0.0,0.0,0.0,0.0,0.0,0.0,0.0,0.0,0.0,0.0,0.0,0.0,0.0,0.0,0.0,0.0,0.0,0.0,0.0,0.0,0.0,0.0,0.0,0.0,0.0,0.0,0.0,0.0,0.0,0.0,0.0,0.0,0.0,0.0,0.0,0.0,0.0,0.0,0.0,0.0,0.0,0.0,0.0,0.0,0.0,0.0,0.0,0.0,0.0,0.0,0.0,0.0,0.0,0.0,0.0,0.0,0.0,0.0,0.0,0.0,0.0,0.0,0.0,0.0,0.0,0.0,0.0,0.0,0.0,0.0,0.0,0.0,0.0,0.0,0.0,0.0,0.0,0.0,0.0,0.0,0.0,0.0,0.0,0.0,0.0,0.0,0.0,0.0,0.0,0.0,0.0,0.0,0.0,0.0,0.0,0.0,0.0,1.7568,2.0356,2.131,2.1713,2.164,2.131,2.0209,1.8064,0.0,0.0,0.0,0.0,0.0,0.0,0.0,0.0,0.0,0.0,0.0,0.0,0.0,0.0,0.0,0.0,0.0,0.0,0.0,0.0,0.0,0.0,0.0,0.0,0.0,0.0,0.0,0.0,0.0,0.0,0.0,0.0,0.0,0.0,0.0,0.0,0.0,0.0,0.0,0.0,0.0,0.0,0.0,0.0,0.0,0.0,0.0,0.0,0.0,0.0,0.0,0.0,0.0,0.0,0.0,0.0,0.0,0.0,0.0,0.0,0.0,0.0,0.0,0.0,0.0,0.0,0.0,0.0,0.0,0.0,0.0,0.0,0.0,0.0,0.0,0.0,0.0,0.0,0.0,0.0,0.0,0.0,0.0,0.0,0.0,0.0,0.0,0.0,0.0,0.0,0.0,0.0,0.0,0.0,0.0,0.0,0.0,0.0,0.0,0.0,0.0,0.0,0.0,1.7275,1.8595,2.1163,2.1621,2.1731,2.1731,2.1346,2.0246,1.8247,1.6982,0.0,0.0,0.0,0.0,0.0,0.0,0.0,0.0,0.0,0.0,0.0,0.0,0.0,0.0,0.0,0.0,0.0,0.0,0.0,0.0,0.0,0.0,0.0,0.0,0.0,0.0,0.0,0.0,0.0,0.0,0.0,0.0,0.0,0.0,0.0,0.0,0.0,0.0,0.0,0.0,0.0,0.0,0.0,0.0,0.0,0.0,0.0,0.0,0.0,0.0,0.0,0.0,0.0,0.0,0.0,0.0,0.0,0.0,0.0,0.0,0.0,0.0,0.0,0.0,0.0,0.0,0.0,0.0,0.0,0.0,0.0,0.0,0.0,0.0,0.0,0.0,0.0,0.0,0.0,0.0,0.0,0.0,0.0,0.0,0.0,0.0,0.0,0.0,0.0,0.0,0.0,0.0,0.0,0.0,0.0,0.0,0.0,0.0,0.0,0.0,0.0,0.0,1.9017,2.0026,2.1566,2.1823,2.1841,2.175,2.1181,2.0063,1.8247,1.6817,0.0,0.0,0.0,0.0,0.0,0.0,0.0,0.0,0.0,0.0,0.0,0.0,0.0,0.0,0.0,0.0,0.0,0.0,0.0,0.0,0.0,0.0,0.0,0.0,0.0,0.0,0.0,0.0,0.0,0.0,0.0,0.0,0.0,0.0,0.0,0.0,0.0,0.0,0.0,0.0,0.0,0.0,0.0,0.0,0.0,0.0,0.0,0.0,0.0,0.0,0.0,0.0,0.0,0.0,0.0,0.0,0.0,0.0,0.0,0.0,0.0,0.0,0.0,0.0,0.0,0.0,0.0,0.0,0.0,0.0,0.0,0.0,0.0,0.0,0.0,0.0,0.0,0.0,0.0,0.0,0.0,0.0,0.0,0.0,0.0,0.0,0.0,0.0,0.0,0.0,0.0,0.0,0.0,0.0,0.0,0.0,0.0,0.0,0.0,0.0,0.0,0.0,1.9897,2.1585,2.1713,2.2061,2.2135,2.1768,2.0686,1.9476,1.821,1.6285,0.0,0.0,0.0,0.0,0.0,0.0,0.0,0.0,0.0,0.0,0.0,0.0,0.0,0.0,0.0,0.0,0.0,0.0,0.0,0.0,0.0,0.0,0.0,0.0,0.0,0.0,0.0,0.0,0.0,0.0,0.0,0.0,0.0,0.0,0.0,0.0,0.0,0.0,0.0,0.0,0.0,0.0,0.0,0.0,0.0,0.0,0.0,0.0,0.0,0.0,0.0,0.0,0.0,0.0,0.0,0.0,0.0,0.0,0.0,0.0,0.0,0.0,0.0,0.0,0.0,0.0,0.0,0.0,0.0,0.0,0.0,0.0,0.0,0.0,0.0,0.0,0.0,0.0,0.0,0.0,0.0,0.0,0.0,0.0,0.0,0.0,0.0,0.0,0.0,0.0,0.0,0.0,0.0,0.0,0.0,0.0,0.0,0.0,0.0,0.0,0.0,0.0,1.9531,2.1273,0.0,2.2226,2.2263,2.2116,2.1456,2.0209,1.8247,0.0,0.0,0.0,0.0,0.0,0.0,0.0,0.0,0.0,0.0,0.0,0.0,0.0,0.0,0.0,0.0,0.0,0.0,0.0,0.0,0.0,0.0,0.0,0.0,0.0,0.0,0.0,0.0,0.0,0.0,0.0,0.0,0.0,0.0,0.0,0.0,0.0,0.0,0.0,0.0,0.0,0.0,0.0,0.0,0.0,0.0,0.0,0.0,0.0,0.0,0.0,0.0,0.0,0.0,0.0,0.0,0.0,0.0,0.0,0.0,0.0,0.0,0.0,0.0,0.0,0.0,0.0,0.0,0.0,0.0,0.0,0.0,0.0,0.0,0.0,0.0,0.0,0.0,0.0,0.0,0.0,0.0,0.0,0.0,0.0,0.0,0.0,0.0,0.0,0.0,0.0,0.0,0.0,0.0,0.0,0.0,0.0,0.0,0.0,0.0,0.0,0.0,1.7697,1.9879,2.1603,0.0,2.263,2.2612,2.2355,2.1731,2.0374,1.8064,0.0,0.0,0.0,0.0,0.0,0.0,0.0,0.0,0.0,0.0,0.0,0.0,0.0,0.0,0.0,0.0,0.0,0.0,0.0,0.0,0.0,0.0,0.0,0.0,0.0,0.0,0.0,0.0,0.0,0.0,0.0,0.0,0.0,0.0,0.0,0.0,0.0,0.0,0.0,0.0,0.0,0.0,0.0,0.0,0.0,0.0,0.0,0.0,0.0,0.0,0.0,0.0,0.0,0.0,0.0,0.0,0.0,0.0,0.0,0.0,0.0,0.0,0.0,0.0,0.0,0.0,0.0,0.0,0.0,0.0,0.0,0.0,0.0,0.0,0.0,0.0,0.0,0.0,0.0,0.0,0.0,0.0,0.0,0.0,0.0,0.0,0.0,0.0,0.0,0.0,0.0,0.0,0.0,0.0,0.0,0.0,0.0,0.0,0.0,0.0,0.0,0.0,1.8559,2.12,2.2866,2.2866,2.3308,2.3217,2.2392,2.1236,1.9677,0.0,0.0,0.0,0.0,0.0,0.0,0.0,0.0,0.0,0.0,0.0,0.0,0.0,0.0,0.0,0.0,0.0,0.0,0.0,0.0,0.0,0.0,0.0,0.0,0.0,0.0,0.0,0.0,0.0,0.0,0.0,0.0,0.0,0.0,0.0,0.0,0.0,0.0,0.0,0.0,0.0,0.0,0.0,0.0,0.0,0.0,0.0,0.0,0.0,0.0,0.0,0.0,0.0,0.0,0.0,0.0,0.0,0.0,0.0,0.0,0.0,0.0,0.0,0.0,0.0,0.0,0.0,0.0,0.0,0.0,0.0,0.0,0.0,0.0,0.0,0.0,0.0,0.0,0.0,0.0,0.0,0.0,0.0,0.0,0.0,0.0,0.0,0.0,0.0,0.0,0.0,0.0,0.0,0.0,0.0,0.0,0.0,0.0,0.0,0.0,0.0,0.0,0.0,1.8559,2.12,2.2975,2.3249,2.3474,2.3327,2.2813,2.2171,2.0686,1.81,0.0,0.0,0.0,0.0,0.0,0.0,0.0,0.0,0.0,0.0,0.0,0.0,0.0,0.0,0.0,0.0,0.0,0.0,0.0,0.0,0.0,0.0,0.0,0.0,0.0,0.0,0.0,0.0,0.0,0.0,0.0,0.0,0.0,0.0,0.0,0.0,0.0,0.0,0.0,0.0,0.0,0.0,0.0,0.0,0.0,0.0,0.0,0.0,0.0,0.0,0.0,0.0,0.0,0.0,0.0,0.0,0.0,0.0,0.0,0.0,0.0,0.0,0.0,0.0,0.0,0.0,0.0,0.0,0.0,0.0,0.0,0.0,0.0,0.0,0.0,0.0,0.0,0.0,0.0,0.0,0.0,0.0,0.0,0.0,0.0,0.0,0.0,0.0,0.0,0.0,0.0,0.0,0.0,0.0,0.0,0.0,0.0,0.0,0.0,0.0,0.0,0.0,1.8999,2.153,2.3345,2.3749,2.3932,2.3804,2.314,2.2813,2.1365,1.854,0.0,0.0,0.0,0.0,0.0,0.0,0.0,0.0,0.0,0.0,0.0,0.0,0.0,0.0,0.0,0.0,0.0,0.0,0.0,0.0,0.0,0.0,0.0,0.0,0.0,0.0,0.0,0.0,0.0,0.0,0.0,0.0,0.0,0.0,0.0,0.0,0.0,0.0,0.0,0.0,0.0,0.0,0.0,0.0,0.0,0.0,0.0,0.0,0.0,0.0,0.0,0.0,0.0,0.0,0.0,0.0,0.0,0.0,0.0,0.0,0.0,0.0,0.0,0.0,0.0,0.0,0.0,0.0,0.0,0.0,0.0,0.0,0.0,0.0,0.0,0.0,0.0,0.0,0.0,0.0,0.0,0.0,0.0,0.0,0.0,0.0,0.0,0.0,0.0,0.0,0.0,0.0,0.0,0.0,0.0,0.0,0.0,0.0,0.0,0.0,0.0,0.0,1.9732,2.2098,2.3767,2.4225,2.4611,2.45,2.3675,2.3272,2.186,1.9054,0.0,0.0,0.0,0.0,0.0,0.0,0.0,0.0,0.0,0.0,0.0,0.0,0.0,0.0,0.0,0.0,0.0,0.0,0.0,0.0,0.0,0.0,0.0,0.0,0.0,0.0,0.0,0.0,0.0,0.0,0.0,0.0,0.0,0.0,0.0,0.0,0.0,0.0,0.0,0.0,0.0,0.0,0.0,0.0,0.0,0.0,0.0,0.0,0.0,0.0,0.0,0.0,0.0,0.0,0.0,0.0,0.0,0.0,0.0,0.0,2.2501,0.0,0.0,0.0,0.0,0.0,0.0,0.0,0.0,0.0,0.0,0.0,0.0,0.0,0.0,0.0,0.0,0.0,0.0,0.0,0.0,0.0,0.0,0.0,0.0,0.0,0.0,0.0,0.0,0.0,0.0,0.0,0.0,0.0,0.0,0.0,0.0,0.0,0.0,0.0,0.0,0.0,2.0136,2.252,2.4299,2.5032,2.5197,2.4904,2.4097,2.395,2.2813,2.0301,1.8999,0.0,0.0,0.0,0.0,0.0,0.0,0.0,0.0,0.0,0.0,0.0,0.0,0.0,0.0,0.0,0.0,0.0,0.0,0.0,0.0,0.0,0.0,0.0,0.0,0.0,0.0,0.0,0.0,0.0,0.0,0.0,0.0,0.0,0.0,0.0,0.0,0.0,0.0,0.0,0.0,0.0,0.0,0.0,0.0,0.0,0.0,0.0,0.0,0.0,0.0,0.0,0.0,0.0,0.0,0.0,0.0,0.0,0.0,0.0,0.0,2.4276,0.0,0.0,0.0,0.0,0.0,0.0,0.0,0.0,0.0,0.0,0.0,0.0,0.0,0.0,0.0,0.0,0.0,0.0,0.0,0.0,0.0,0.0,0.0,0.0,0.0,0.0,0.0,0.0,0.0,0.0,0.0,0.0,0.0,0.0,0.0,0.0,0.0,0.0,0.0,0.0,2.0814,2.307,2.4684,2.5307,2.5546,2.5399,2.4794,2.4372,2.3363,2.1493,2.0063,0.0,0.0,0.0,0.0,0.0,0.0,0.0,0.0,0.0,0.0,0.0,0.0,0.0,0.0,0.0,0.0,0.0,0.0,0.0,0.0,0.0,0.0,0.0,0.0,0.0,0.0,0.0,0.0,0.0,0.0,0.0,0.0,0.0,0.0,0.0,0.0,0.0,0.0,0.0,0.0,0.0,0.0,0.0,0.0,0.0,0.0,0.0,0.0,0.0,0.0,0.0,0.0,0.0,0.0,0.0,3.2059,3.2059,3.2435,3.2861,2.9725,2.8821,2.9392,0.0,0.0,0.0,0.0,0.0,0.0,0.0,0.0,0.0,0.0,0.0,0.0,0.0,0.0,0.0,0.0,0.0,0.0,0.0,0.0,0.0,0.0,0.0,0.0,0.0,2.4062,2.2999,0.0,0.0,0.0,0.0,0.0,0.0,0.0,0.0,0.0,0.0,0.0,0.0,2.164,2.373,2.5142,2.5546,2.5876,2.5913,2.5509,2.4849,2.395,2.2722,2.1273,1.9732,0.0,0.0,0.0,0.0,0.0,0.0,0.0,0.0,0.0,0.0,0.0,0.0,0.0,0.0,0.0,0.0,0.0,0.0,0.0,0.0,0.0,0.0,0.0,0.0,0.0,0.0,0.0,0.0,0.0,0.0,0.0,0.0,2.1124,2.268,0.0,0.0,0.0,0.0,0.0,0.0,0.0,0.0,0.0,0.0,0.0,0.0,0.0,0.0,3.0525,3.1603,3.2528,3.3267,3.427,3.511,3.5685,3.5685,3.5973,3.6555,3.605,0.0,3.1669,2.9986,0.0,0.0,0.0,0.0,0.0,0.0,0.0,0.0,0.0,0.0,0.0,0.0,0.0,0.0,0.0,0.0,0.0,0.0,0.0,0.0,0.0,0.0,2.7729,2.7945,2.7082,2.6365,0.0,2.3055,1.8871,1.7917,0.0,0.0,0.0,0.0,0.0,0.0,0.0,0.0,2.252,2.4556,2.5968,2.6389,2.6481,2.6334,2.5913,2.5784,2.5197,2.3987,2.3052,2.1823,2.0191,1.9017,0.0,0.0,0.0,0.0,0.0,0.0,0.0,0.0,0.0,0.0,0.0,0.0,0.0,0.0,0.0,0.0,0.0,0.0,0.0,0.0,0.0,0.0,0.0,0.0,0.0,0.0,0.0,0.0,0.0,2.1993,2.4026,2.4307,2.4296,2.3986,0.0,0.0,0.0,0.0,0.0,0.0,0.0,0.0,0.0,3.1082,3.192,3.303,3.4459,3.5035,3.5949,3.7076,3.7348,3.7853,3.8647,3.8334,3.8334,3.8575,3.8864,3.8046,3.6213,3.3839,3.1734,2.9885,0.0,0.0,0.0,0.0,0.0,2.8879,3.0673,0.0,0.0,0.0,0.0,0.0,0.0,0.0,0.0,0.0,0.0,0.0,0.0,0.0,0.0,2.9539,2.8416,2.7587,2.8635,2.6467,2.3689,0.0,2.0855,2.0096,1.7696,0.0,0.0,0.0,0.0,0.0,2.406,2.5674,2.6719,2.6903,2.6921,2.6756,2.6353,2.6096,2.5637,2.4886,2.4079,2.3107,2.1933,2.0704,1.9311,0.0,0.0,0.0,0.0,0.0,0.0,0.0,0.0,0.0,0.0,0.0,0.0,0.0,0.0,0.0,0.0,0.0,0.0,0.0,0.0,0.0,0.0,0.0,0.0,0.0,0.0,0.0,0.0,2.4606,2.6457,2.6123,2.6783,2.6806,0.0,0.0,0.0,0.0,0.0,0.0,2.9912,3.0988,3.2557,3.4796,3.537,3.6326,3.7998,3.8022,3.8743,4.021,3.9801,4.0114,4.098,4.0595,4.0403,4.0427,4.0836,4.0691,4.0018,3.7283,3.497,3.2994,3.2152,3.1103,3.0247,3.1407,3.1895,3.2291,3.4454,3.5226,3.5059,3.4007,0.0,3.1836,2.9353,0.0,0.0,0.0,0.0,3.1132,3.1848,3.1192,3.0574,3.1333,3.0056,2.888,3.0118,2.9788,2.8239,0.0,2.4506,2.3719,2.0227,0.0,0.0,0.0,0.0,2.362,2.5454,2.6646,2.7325,2.7325,2.7325,2.716,2.6774,2.6444,2.6059,2.5546,2.4941,2.4207,2.329,2.2373,2.1071,1.9366,0.0,0.0,0.0,0.0,0.0,0.0,0.0,0.0,0.0,0.0,0.0,0.0,0.0,0.0,0.0,0.0,0.0,0.0,0.0,0.0,0.0,0.0,0.0,0.0,0.0,0.0,0.0,0.0,0.0,2.8422,3.0005,0.0,0.0,0.0,0.0,2.9997,3.1003,3.2345,3.41,3.4718,3.5944,3.7733,3.8334,3.9128,4.0234,4.0234,4.0787,4.1846,4.1822,4.211,4.2639,4.2615,4.2591,4.2591,4.2639,4.2351,4.1677,3.9537,3.7809,3.6502,3.5456,3.4643,3.4068,3.4762,3.5384,3.5907,3.6764,3.7084,3.7156,3.7565,3.6237,3.4171,3.2955,3.1996,0.0,0.0,3.2305,3.3138,3.295,3.238,3.2204,3.3917,3.2447,3.1321,3.369,3.286,3.088,0.0,2.7314,2.6404,2.43,0.0,2.3437,2.384,2.4335,2.5106,2.6371,2.7233,2.7728,2.7728,2.7728,2.7581,2.7178,2.7123,2.6774,2.5986,2.5894,2.5326,2.4134,2.4042,2.3052,2.1034,1.9769,0.0,0.0,0.0,0.0,0.0,0.0,0.0,0.0,0.0,0.0,0.0,0.0,0.0,0.0,0.0,0.0,0.0,0.0,0.0,0.0,0.0,0.0,0.0,0.0,0.0,0.0,0.0,0.0,3.0649,3.2272,0.0,0.0,3.1825,3.2816,3.3506,3.4292,3.5513,3.7196,3.7796,3.8659,3.9994,4.0571,4.1196,4.1918,4.223,4.276,4.3505,4.3505,4.377,4.4275,4.3938,4.3794,4.3794,4.4154,4.3986,4.3457,4.3048,4.1653,3.9618,3.9235,3.8971,3.8718,3.9019,3.9211,3.9402,3.9705,3.9537,3.9176,3.8671,3.7757,3.6613,3.5803,3.5606,3.5525,3.5189,3.5634,3.6145,3.6047,3.5354,3.4733,3.5364,3.4212,3.308,3.3623,3.3299,3.2219,3.0181,2.8887,2.7632,2.5663,2.5197,2.5142,2.5289,2.5894,2.6664,2.7636,2.8223,2.8443,2.8187,2.8168,2.7893,2.7233,2.7178,2.683,2.6004,2.5711,2.5271,2.4592,2.4042,2.3162,2.1915,2.0704,1.9091,0.0,0.0,0.0,0.0,0.0,0.0,0.0,0.0,0.0,0.0,0.0,0.0,0.0,0.0,0.0,0.0,0.0,0.0,0.0,0.0,0.0,0.0,0.0,0.0,0.0,0.0,3.2507,3.2559,3.4576,3.5389,3.3882,3.4742,3.58,3.6685,3.734,3.8383,3.9801,4.0379,4.1076,4.1942,4.2495,4.3024,4.3553,4.389,4.4347,4.4876,4.4876,4.5068,4.5381,4.5044,4.4876,4.49,4.5261,4.5213,4.49,4.5261,4.4371,4.2735,4.2182,4.187,4.1701,4.1701,4.1701,4.1701,4.1701,4.1365,4.0812,4.0114,3.9513,3.8947,3.8508,3.8524,3.8583,3.8132,3.8044,3.8045,3.8045,3.6991,3.6143,3.6511,3.5306,3.4143,3.4202,3.3555,3.2609,3.1231,3.0234,2.8872,2.7105,2.6774,2.6774,2.6774,2.7233,2.7838,2.8517,2.8828,2.8883,2.8627,2.859,2.8315,2.7636,2.7343,2.6885,2.6206,2.5546,2.4996,2.4592,2.3914,2.3162,2.2337,2.0998,1.9531,1.7899,0.0,0.0,0.0,0.0,0.0,0.0,0.0,0.0,0.0,0.0,0.0,0.0,0.0,0.0,0.0,0.0,0.0,0.0,0.0,0.0,0.0,0.0,0.0,2.8706,3.2043,3.4626,3.4379,3.6963,3.8155,3.6415,3.7892,3.9128,3.9657,4.0186,4.0956,4.199,4.2543,4.3048,4.3553,4.4106,4.4635,4.5164,4.5188,4.5477,4.5982,4.6006,4.603,4.603,4.603,4.6006,4.6006,4.6006,4.5982,4.5982,4.5982,4.5958,4.579,4.4202,4.3289,4.2856,4.2856,4.2856,4.2856,4.2832,4.2471,4.2038,4.2014,4.1653,4.122,4.085,4.0503,4.0153,3.9919,3.9243,3.8665,3.8642,3.7327,3.6484,3.7497,3.5954,3.4407,3.5466,3.3772,3.1852,3.1424,3.1015,3.0276,2.8713,2.8407,2.8407,2.8407,2.8407,0.0,2.8938,2.8975,2.8975,2.8975,2.8975,2.8828,2.8425,2.7655,2.7013,2.6591,2.5454,2.4592,2.427,2.3767,2.3162,2.2355,2.0796,1.9586,1.8742,0.0,0.0,0.0,0.0,0.0,0.0,0.0,0.0,0.0,0.0,0.0,0.0,0.0,0.0,0.0,0.0,0.0,0.0,0.0,0.0,0.0,0.0,3.3149,3.296,3.465,3.6309,3.7379,3.8947,3.9777,3.9235,4.0403,4.1317,4.1846,4.2375,4.2952,4.3649,4.4202,4.4539,4.4683,4.5213,4.5549,4.5694,4.6463,4.692,4.7064,4.7858,4.8219,4.8219,4.8219,4.8002,4.7642,4.7642,4.7425,4.7064,4.7064,4.6848,4.6415,4.5573,4.5188,4.5044,4.5044,4.5044,4.4948,4.4178,4.3818,4.3577,4.2808,4.2328,4.1971,4.1852,4.1471,4.0727,3.9711,3.9787,3.9962,3.8942,3.9097,3.9281,3.8297,3.7461,3.6417,3.4166,3.3049,3.2196,3.0832,3.0419,2.9999,2.9057,2.8828,2.8828,2.8828,2.8828,0.0,2.8975,2.8975,2.8975,2.8975,2.8975,2.8828,2.8425,2.7911,2.7178,2.6188,2.5289,2.4592,2.427,2.3767,2.3308,2.2795,2.1768,2.0704,0.0,0.0,0.0,0.0,0.0,0.0,0.0,0.0,0.0,0.0,0.0,0.0,0.0,0.0,0.0,0.0,0.0,0.0,0.0,0.0,0.0,0.0,3.4318,3.6381,3.7268,3.7724,3.8503,3.9681,4.0739,4.1485,4.1701,4.2254,4.2928,4.3697,4.4034,4.4419,4.4972,4.5718,4.6126,4.6126,4.6848,4.7257,4.7257,4.7858,4.8171,4.8171,4.8796,4.9084,4.9084,4.9084,4.8916,0.0,4.8628,4.8459,4.8171,4.8171,4.7978,0.0,0.0,0.0,0.0,0.0,4.5934,4.5838,4.5213,4.502,4.49,4.4275,4.3815,4.3402,4.3255,4.272,4.1793,4.0226,4.049,4.0751,3.933,3.9949,4.0364,3.8795,3.7984,3.6771,3.3922,3.2922,3.2119,3.0678,0.0,0.0,2.9599,2.9342,2.9232,2.9232,2.9085,2.8975,2.8975,2.8975,2.8975,2.8975,2.8975,2.8902,2.8663,2.8095,0.0,0.0,0.0,2.4684,2.3932,2.3675,0.0,0.0,0.0,0.0,0.0,0.0,0.0,0.0,2.0484,2.0374,0.0,0.0,0.0,0.0,0.0,0.0,0.0,0.0,0.0,0.0,0.0,0.0,0.0,0.0,0.0,0.0,3.7148,3.908,4.1148,4.11,4.098,4.1389,4.2375,4.3216,4.3673,4.377,4.4227,4.5309,4.5405,4.5645,4.6247,0.0,0.0,0.0,0.0,4.9084,4.9084,4.9133,4.9157,4.9157,4.9229,4.9253,4.9253,4.9253,4.9229,4.9157,4.9157,4.9133,4.9084,4.9084,4.9084,4.894,4.7521,4.668,4.6271,4.6223,4.6199,0.0,0.0,0.0,0.0,4.5934,4.5597,4.511,4.4809,4.412,4.3088,4.1254,4.1046,4.1216,3.9646,3.9952,4.0197,3.911,3.77,3.6038,3.4438,3.3084,3.1836,3.1066,3.0919,3.0791,3.0406,2.9947,2.9654,2.9654,2.9342,2.9104,2.9048,2.9048,2.903,2.8993,0.0,0.0,2.8975,2.8278,2.7673,2.727,2.6151,2.4996,2.3859,2.3859,2.3859,2.3822,2.4225,2.4592,2.4922,2.5656,2.5876,2.5509,2.252,2.2098,0.0,0.0,0.0,0.0,0.0,0.0,0.0,0.0,0.0,0.0,0.0,0.0,0.0,0.0,0.0,3.71,3.9224,4.1148,4.2856,4.3385,4.3457,4.3096,4.401,4.4708,4.4828,4.5213,4.5886,4.6968,4.704,4.7473,4.8411,4.8652,0.0,4.8772,4.8964,4.9084,4.9084,4.9493,4.971,4.971,0.0,0.0,5.0383,5.0383,5.0143,4.971,4.971,4.9469,4.9084,4.9084,4.9084,4.9036,4.8748,4.8555,4.8411,4.8002,4.7834,4.7714,4.6848,4.6559,4.6487,4.6054,4.5605,4.5381,4.5638,4.4924,0.0,4.1306,4.0846,4.0782,3.9172,3.8702,3.8763,3.9322,3.739,3.5435,3.476,3.3501,3.2331,3.1873,3.1781,3.1634,3.1231,3.0552,3.0075,3.0075,3.002,2.9837,2.9507,2.9452,2.9342,2.9012,2.8975,2.8975,2.8975,2.8553,2.8095,2.7673,2.683,2.6096,2.5509,2.5821,2.5839,2.5491,2.5913,2.5986,2.5729,2.6224,2.6591,2.6793,2.5509,2.5106,0.0,0.0,0.0,0.0,0.0,0.0,0.0,0.0,0.0,0.0,0.0,3.2126,0.0,0.0,3.7796,4.0042,4.1485,4.2808,4.4154,4.502,4.5237,4.4419,4.5044,4.5742,4.6271,4.6559,4.7161,4.8219,4.8291,4.8507,4.9036,4.9325,4.9469,4.9469,4.9734,4.9902,4.9902,5.0143,5.0287,5.0287,5.0576,5.0696,5.0696,5.0696,5.0551,5.0287,5.0287,5.0143,4.9902,4.9902,4.9902,4.9902,4.9902,4.9565,4.9036,4.8772,4.8676,4.8603,4.8074,4.7714,4.7473,4.7185,4.6621,4.606,4.606,4.548,4.4463,4.2015,4.1437,4.1129,3.9511,3.8771,3.8357,3.8129,3.6837,3.5239,3.4165,3.3438,3.279,3.2386,3.2294,3.2166,3.1763,3.1359,3.0974,3.0552,3.0332,3.013,2.991,2.9892,2.9819,2.9617,2.9397,2.9269,2.9269,2.8737,2.8297,2.8095,2.7508,2.6995,2.6591,2.6774,2.6793,2.6573,2.6976,2.7178,2.7178,2.7581,2.7893,2.8077,2.7655,2.7361,0.0,0.0,0.0,0.0,0.0,0.0,0.0,0.0,3.0429,3.1418,3.3339,3.5465,3.7163,3.8611,4.0306,4.2543,4.3433,4.4202,4.5285,4.6175,4.6439,4.5694,4.6054,4.6728,4.7569,4.7738,4.8195,4.9157,4.9229,4.9277,4.9397,4.9806,5.0022,5.0022,5.0455,5.0696,5.0696,5.0696,5.0696,5.0696,5.0696,5.0696,5.0696,5.0696,5.0696,5.0696,5.0696,5.0696,5.0696,5.0696,5.0696,5.0696,5.0696,5.0167,4.9373,4.9277,4.9229,4.9229,4.9109,4.8796,4.8435,4.8435,4.781,4.7016,4.6621,4.6133,4.5314,4.3263,4.2504,4.19,4.0383,3.9363,3.8759,3.8057,3.6915,3.5724,3.458,3.3787,3.3211,3.279,3.2716,3.2588,3.2184,3.2129,3.1836,3.1029,3.0626,3.0406,3.0332,3.0314,3.0296,3.0204,2.9892,2.969,2.969,2.9104,2.8718,2.8627,2.8297,2.7948,2.7545,2.7526,2.7526,2.7526,2.7838,2.8168,2.8517,2.8828,2.9012,2.9104,2.9104,2.8883,2.821,2.7416,0.0,2.91,2.934,3.0086,0.0,0.0,3.4534,3.6069,3.7805,3.9056,3.9296,4.098,4.2567,4.3313,4.4299,4.5333,4.6391,4.6631,4.6848,4.7185,4.7714,4.8074,4.8195,4.8628,4.9157,4.9734,4.9782,4.9998,5.0503,5.0576,5.06,5.06,5.0672,5.0696,5.0696,5.0696,5.0696,5.0696,5.0696,5.0696,5.0696,5.0696,5.0696,5.0696,5.0696,5.0696,5.0696,5.0696,5.0696,5.0696,5.0696,5.0624,5.0455,4.9974,4.9782,4.971,4.9253,4.9036,4.8988,4.8988,4.8603,4.8122,4.8122,4.7471,4.6375,4.4528,4.3395,4.279,4.2108,4.0805,4.0035,4.2482,3.9677,3.6917,3.7949,3.5879,3.3633,3.323,3.3156,3.3028,3.2606,3.2533,3.2258,3.1433,3.1267,3.1121,3.0772,3.0717,3.0589,3.0241,3.0167,3.013,3.013,3.0039,2.9837,2.947,2.9397,2.9195,2.8792,2.8773,2.8773,2.8773,2.8828,2.8865,2.892,2.8957,2.9159,2.9507,2.9507,2.9287,3.0879,0.0,0.0,0.0,3.2466,3.3813,3.528,3.617,3.7036,3.8334,3.9633,4.0715,4.1317,4.2663,4.3962,0.0,4.5549,4.6319,4.7064,4.7161,4.7136,4.704,4.7786,4.8411,4.8724,4.9229,4.9758,5.0311,5.0359,5.0455,5.0696,5.0696,5.0696,5.0696,5.0696,5.0696,5.0696,5.0696,5.0696,5.0696,5.0696,5.0696,5.0696,5.0696,5.0696,5.0696,5.0696,5.0696,5.0696,5.0696,5.0696,5.0696,5.0696,5.0696,5.0672,5.0431,5.0359,5.0311,5.0095,4.9806,4.9541,4.9541,4.9181,4.8748,4.8748,4.8252,4.7551,4.6557,4.5051,4.3573,4.3184,4.0878,3.8849,4.0104,3.7967,3.5811,3.6224,3.5078,3.4037,3.3651,3.356,3.3431,3.3028,3.2955,3.2771,3.2166,3.1891,3.1598,3.1176,3.1139,3.0974,3.0589,3.0552,3.0442,3.0222,3.0204,3.013,2.9947,2.9947,2.9855,2.969,2.969,2.969,2.969,2.969,2.969,2.969,2.969,2.9782,2.9947,2.9947,2.9855,3.213,0.0,0.0,3.3212,3.5016,3.6603,3.6507,3.7733,3.908,3.9874,4.1004,4.2062,4.2832,4.3962,0.0,4.579,4.6607,4.7233,4.7473,4.7497,4.7305,4.6776,4.7401,4.805,4.8603,4.9373,5.0095,5.0648,5.0696,5.0696,5.0696,5.0696,5.0696,5.0696,5.0696,5.0696,5.0696,5.0696,5.0696,5.0696,5.0696,5.0696,5.0696,5.0696,5.0696,5.0696,5.0696,5.0696,5.0696,5.0696,5.0696,5.0696,5.0696,5.0696,5.0696,5.0696,5.0696,5.0696,5.0696,5.0431,5.0095,5.0095,4.9734,4.9301,4.9301,4.894,4.8483,4.7933,4.6194,4.4456,4.3791,4.1257,3.8763,3.8763,3.7163,3.5675,3.55,3.4926,3.4458,3.4055,3.3982,3.3853,3.345,3.3395,3.3248,3.2826,3.2533,3.2184,3.1763,3.1616,3.1451,3.1157,3.1029,3.0846,3.0552,3.0534,3.0479,3.0369,3.0369,3.0314,3.0204,3.0204,3.0204,3.0204,3.0204,3.0204,3.0204,3.0204,3.0259,3.0369,3.0369,3.0424,0.0,0.0,3.2996,3.5016,3.6362,3.7445,3.8479,3.9946,4.11,4.1124,4.2375,4.3457,4.3481,4.4804,4.5886,4.591,4.7233,4.8074,4.7569,4.7497,4.7305,4.6776,4.6752,4.6968,0.0,4.894,5.0095,5.0648,5.0696,5.0696,5.0696,5.0696,5.0696,5.0696,5.0696,5.0696,5.0696,5.0696,5.0696,5.0696,5.0696,5.0696,5.0696,5.0696,5.0696,5.0696,5.0696,5.0696,5.0696,5.0696,5.0696,5.0696,5.0696,5.0696,5.0696,5.0696,5.0696,5.0696,5.0696,5.0696,5.0672,5.0672,5.0287,4.9854,4.9854,4.9469,4.894,4.8028,4.6724,4.5183,4.388,4.2516,4.1247,4.0779,3.9169,3.7851,3.7851,3.6255,3.488,3.4458,3.4385,3.4257,3.3853,3.3798,3.367,3.3266,3.3193,3.3028,3.2606,3.2221,3.1983,3.1964,3.1598,3.1359,3.1341,3.1341,3.1176,3.0791,3.0772,3.0607,3.0222,3.0204,3.0204,3.0204,3.0204,3.0204,3.0204,3.0204,3.0406,3.0772,3.0772,3.0974,0.0,0.0,3.5425,3.6843,3.8262,3.9513,4.0234,4.1076,4.1798,4.2158,4.2639,4.3024,4.3024,4.4034,4.4996,4.5333,4.6728,4.7714,4.7521,4.8098,4.7954,4.6367,4.7112,0.0,0.0,0.0,0.0,5.0119,5.0503,5.0696,5.0696,5.0696,5.0696,5.0696,5.0696,5.0696,5.0696,5.0696,5.0696,5.0696,5.0696,5.0696,5.0696,5.0696,5.0696,5.0696,5.0696,5.0696,5.0696,5.0696,5.0696,5.0696,5.0696,5.0696,5.0696,5.0696,5.0696,5.0696,5.0696,5.0696,5.0696,5.0696,5.0576,5.0266,4.9226,4.8425,4.77,4.6051,4.476,4.3695,4.2771,4.1234,3.9725,3.9445,3.7962,3.6642,3.638,3.5795,3.5302,3.4899,3.4825,3.4697,3.4275,3.4202,3.4073,3.367,3.3156,3.2753,3.2606,3.2478,3.2404,3.2404,3.2038,3.1799,3.1799,3.1543,3.1322,3.1194,3.1176,3.1121,3.0992,3.0974,3.0974,3.0974,3.0974,3.0974,3.0974,3.0974,3.1047,3.1176,3.1176,3.1249,0.0,3.5905,3.7324,3.8767,4.0042,4.11,4.1629,4.2014,4.2303,4.2447,4.2471,4.2423,4.223,4.2904,4.3794,4.4708,4.6175,4.7353,4.7738,4.8363,4.8291,4.6944,4.7329,0.0,0.0,0.0,0.0,4.983,5.0383,5.0696,5.0696,5.0696,5.0696,5.0696,5.0696,5.0792,5.0984,5.0984,5.0984,5.0984,5.0792,5.0696,5.0696,5.0696,5.0696,5.0696,5.0696,5.0696,5.0696,5.0696,5.0696,5.0696,5.0696,5.0696,5.0696,5.0696,5.0696,5.0696,5.0696,5.0696,5.0554,4.9961,4.9795,4.9509,4.7704,4.7018,4.6435,4.4776,4.3489,4.2437,4.1521,4.0097,3.8533,3.7983,3.7166,3.6329,3.5925,3.5834,3.5705,3.532,3.5247,3.5119,3.4697,3.4495,3.4312,3.4055,3.345,3.3028,3.3028,3.29,3.2826,3.2826,3.2459,3.2221,3.2221,3.1964,3.1818,3.1818,3.1671,3.1598,3.1598,3.1451,3.1377,3.1377,3.1377,3.1377,3.1377,3.1524,3.1598,3.1616,3.1744,3.1818,3.6098,3.7324,3.8647,4.0739,4.1629,4.2134,4.2639,4.2735,4.2567,4.2014,4.187,4.1677,0.0,0.0,4.2399,4.3986,4.5621,4.7088,4.8147,4.8363,4.8387,0.0,0.0,0.0,0.0,0.0,0.0,4.983,0.0,5.0696,5.0696,5.072,5.0744,5.0744,5.0768,5.1032,5.1537,5.1537,5.1537,5.1513,5.1008,5.0744,5.0744,5.072,5.0696,5.0696,5.0696,5.0696,5.0696,5.0696,5.0696,5.0696,5.0696,5.0696,5.0696,5.0696,5.0696,5.0554,5.0554,5.0554,5.0412,4.8766,4.8308,4.785,4.5893,4.5127,4.5041,4.3997,4.2699,4.1263,4.0373,3.9089,3.7815,3.6971,3.6861,3.6751,3.6329,3.6237,3.6127,3.5724,3.5632,3.5504,3.5119,3.4715,3.444,3.444,3.4092,3.3835,3.3817,3.3486,3.3248,3.3248,3.2881,3.2625,3.2625,3.2606,3.2588,3.2588,3.2239,3.2038,3.2038,3.1653,3.1433,3.1433,3.1433,3.1433,3.1433,3.1836,3.2038,3.2038,3.2423,3.2588,3.7757,3.9248,4.0691,4.2038,4.2447,4.2591,4.2735,4.2447,4.1918,4.098,3.9884,3.8859,0.0,0.0,0.0,4.2256,4.49,0.0,4.8147,4.9325,0.0,0.0,0.0,4.8868,4.8339,4.9133,0.0,0.0,5.0383,5.0696,5.0696,5.1081,5.1297,5.1297,5.1682,5.1946,5.2067,5.2091,5.2091,5.2067,5.1537,5.1297,5.1273,5.0888,5.0696,5.0696,5.0696,5.0696,5.0696,5.0696,5.0696,5.0696,5.0696,5.0696,5.0696,5.0696,4.9961,4.891,4.891,4.9652,5.0412,4.8766,4.8308,4.7704,4.487,4.3966,4.3642,4.1882,4.0937,4.0085,3.9356,3.8489,3.7914,3.7374,3.7283,3.7173,3.6769,3.6677,3.6549,3.6146,3.5815,3.5595,3.5485,3.5137,3.4862,3.4862,3.4513,3.4147,3.3853,3.3725,3.367,3.367,3.3303,3.3065,3.3065,3.2771,3.2588,3.2588,3.2496,3.2441,3.2441,3.2349,3.2276,3.2276,3.2276,3.2276,3.2276,3.2386,3.2441,3.2441,3.2551,3.2034,3.9417,4.1004,4.2351,4.2952,4.3096,4.2976,4.2519,4.1822,4.065,3.8547,3.7278,0.0,0.0,0.0,0.0,0.0,0.0,0.0,4.8387,4.9614,5.0095,0.0,4.9662,0.0,4.9373,4.9878,5.0239,0.0,0.0,5.0816,5.1032,5.1345,5.1586,5.1826,5.2115,5.2379,5.262,5.262,5.262,5.262,5.2091,5.1706,5.1489,5.1177,5.0912,5.0696,0.0,5.0696,5.0696,5.0696,5.0696,5.0696,5.0696,5.0696,5.0696,5.0696,5.0104,4.9221,4.8598,4.891,4.9221,4.6971,4.6211,4.5617,4.2922,4.2022,4.1733,4.0353,3.9745,3.9216,3.8836,3.8448,3.8181,3.7778,3.7686,3.7576,3.7173,3.6952,3.6714,3.6292,3.6036,3.587,3.587,3.5559,3.5284,3.5284,3.4935,3.4605,3.4367,3.4037,3.3817,3.3817,3.3615,3.3486,3.3486,3.3266,3.3138,3.3138,3.2973,3.2863,3.2863,3.2698,3.2588,3.2588,3.2588,3.2588,3.2588,3.2771,3.2863,3.2881,3.2348,3.1718,4.0884,4.2375,4.3505,4.3505,4.3457,4.312,4.2014,4.0721,3.8919,3.5538,0.0,0.0,3.0852,0.0,3.6064,3.8594,0.0,4.5854,4.8403,4.9379,4.9931,5.0032,4.9982,5.0167,5.0364,5.0554,5.0696,5.0696,5.0602,5.0723,5.1465,5.1562,5.1874,5.2475,5.2475,5.2692,5.3173,5.3,5.3,5.3173,5.2473,5.1945,5.1586,5.1513,5.1058,5.0412,0.0,0.0,5.0104,5.0104,5.0104,5.0104,5.0104,5.0104,5.0104,5.0104,4.9961,4.9509,4.8163,4.7558,4.6971,4.4289,4.3532,4.3075,4.1113,4.0372,4.0059,3.9588,3.9114,3.8798,3.864,3.864,3.8548,3.8181,3.8089,3.7979,3.7594,3.7154,3.6732,3.6366,3.6237,3.6201,3.6201,3.5925,3.5705,3.5705,3.5357,3.5119,3.5119,3.4403,3.389,3.389,3.3853,3.3817,3.3817,3.3817,3.3817,3.3817,3.3486,3.3303,3.3303,3.2955,3.2753,3.2753,3.2753,3.2753,3.2753,3.312,3.3166,3.2892,3.1931,3.1226,4.1629,4.2663,4.3505,4.3505,4.3192,4.2495,4.1004,3.8579,0.0,0.0,0.0,2.9483,2.962,3.1595,0.0,3.8136,0.0,0.0,0.0,0.0,4.9039,0.0,0.0,0.0,0.0,0.0,0.0,0.0,0.0,0.0,5.1489,5.1898,5.2572,5.351,5.3558,5.3606,5.3702,5.2272,5.2272,5.3678,5.1756,5.124,5.2139,5.1682,5.0459,4.8766,0.0,0.0,4.6677,4.6677,4.6677,4.6677,4.6677,4.6677,4.6677,4.6677,4.5915,4.472,4.444,4.3553,4.2503,4.3248,4.3532,4.3248,4.1618,4.1016,4.086,4.0353,4.004,3.9588,3.9272,3.8956,3.8621,3.8548,3.853,3.842,3.7998,3.7338,3.6824,3.6751,3.6439,3.6201,3.6201,3.6146,3.6109,3.6109,3.576,3.5522,3.5522,3.4807,3.4293,3.4293,3.4,3.3817,3.3817,3.3817,3.3817,3.3817,3.3743,3.3707,3.3707,3.3651,3.3596,3.3596,3.3596,3.3596,3.3596,3.367,3.2995,3.1843,3.1614,3.0075,4.2158,4.3144,4.3866,4.3577,4.2928,4.1657,3.8918,0.0,0.0,0.0,0.0,2.7223,2.6671,0.0,0.0,0.0,0.0,0.0,0.0,0.0,0.0,0.0,0.0,0.0,0.0,0.0,0.0,0.0,0.0,0.0,0.0,5.2644,5.2845,5.2541,5.2541,5.2084,5.1139,5.0342,5.0342,5.1139,4.9846,4.9373,4.9801,4.9296,4.8327,4.7118,4.7118,0.0,4.5915,4.5915,4.5915,4.5915,4.5915,4.5915,4.5915,4.5915,4.5468,4.4591,4.3835,4.2943,4.235,4.235,4.235,4.2062,4.1152,4.0685,4.0372,4.0059,3.9588,3.9114,3.8956,3.8798,3.864,3.864,3.864,3.853,3.8108,3.7723,3.7338,3.6916,3.6677,3.6457,3.6237,3.6201,3.6201,3.6201,3.6054,3.5925,3.5925,3.5394,3.4954,3.4752,3.4367,3.411,3.411,3.3927,3.3817,3.3817,3.3817,3.3817,3.3817,3.3817,3.3817,3.3817,3.3817,3.3817,3.3817,3.2945,3.2228,3.1508,2.979,2.8372,4.2327,4.3361,4.4034,4.3481,4.2567,4.0937,3.727,3.4958,0.0,0.0,0.0,2.5503,2.4303,0.0,0.0,0.0,0.0,0.0,0.0,0.0,0.0,0.0,0.0,0.0,0.0,0.0,0.0,0.0,0.0,0.0,0.0,5.2845,5.2717,5.1293,5.0985,5.0187,4.8776,4.846,4.8417,4.8623,4.7918,4.744,4.7204,4.681,4.6223,4.5319,4.5319,0.0,0.0,4.4891,4.4891,4.4891,4.4891,4.4891,4.4891,4.4891,4.4891,4.4741,4.34,4.2943,4.2637,4.1463,4.1016,4.0997,4.0666,4.0216,3.9745,3.943,3.8956,3.8798,3.864,3.864,3.864,3.864,3.864,3.8548,3.8218,3.8071,3.7833,3.7209,3.6952,3.6732,3.6402,3.6274,3.6201,3.6201,3.6201,3.6201,3.6201,3.5925,3.5632,3.532,3.4825,3.4532,3.4532,3.4165,3.3945,3.3945,3.3853,3.3817,3.3817,3.3817,3.3659,3.3381,3.3381,3.3085,3.2806,3.1649,3.0785,3.0518,2.8084,2.6648,4.1894,4.2808,4.3457,4.2952,4.2038,4.0427,3.7148,0.0,0.0,0.0,2.5233,2.3742,2.4746,2.6479,0.0,0.0,0.0,0.0,0.0,0.0,0.0,0.0,0.0,0.0,0.0,0.0,0.0,0.0,0.0,0.0,0.0,5.1148,5.1447,5.1293,4.9875,4.8934,4.8776,4.7368,4.7156,4.8121,4.6511,4.6202,4.6701,4.6658,4.5621,4.3684,0.0,0.0,0.0,4.1618,4.1618,4.1618,4.1618,4.1618,4.1618,4.1618,4.1618,4.1618,4.1463,4.1152,4.0802,4.0666,4.0509,4.0509,4.0509,4.0216,3.9745,3.943,3.9272,3.9114,3.864,3.864,3.864,3.864,3.864,3.864,3.8603,3.8291,3.7998,3.7924,3.7338,3.6824,3.6787,3.6457,3.6201,3.6201,3.6201,3.6201,3.6201,3.6182,3.6146,3.6109,3.543,3.4972,3.4972,3.4587,3.4348,3.4348,3.4018,3.3817,3.3817,3.3817,3.3103,3.1789,3.1649,3.1067,2.9631,2.9488,2.8644,2.7375,2.7085,2.6078,4.1172,4.2254,4.2928,4.2423,4.0758,3.8442,3.4981,0.0,0.0,2.5813,2.4067,2.3457,2.4492,2.5179,2.6927,0.0,0.0,0.0,0.0,0.0,0.0,0.0,0.0,0.0,0.0,0.0,0.0,0.0,0.0,0.0,0.0,4.8278,4.8675,4.7869,4.7239,4.6434,4.5758,4.4886,4.4664,4.5103,4.3937,4.3513,4.3751,4.3505,4.2973,4.2062,0.0,0.0,0.0,4.1172,4.1172,4.1172,4.1172,4.1172,4.1172,4.1172,4.1016,4.0841,4.0841,4.0529,4.0216,4.0216,4.0059,3.9726,3.9726,3.9745,3.943,3.8956,3.8956,3.8798,3.864,3.864,3.864,3.864,3.864,3.864,3.864,3.8511,3.831,3.8053,3.7759,3.7393,3.6916,3.6696,3.6494,3.6237,3.6201,3.6201,3.6201,3.6201,3.6201,3.6201,3.5724,3.5375,3.5375,3.5009,3.477,3.477,3.4642,3.455,3.455,3.3518,3.2785,3.221,3.1181,3.0292,2.9707,2.8826,2.8103,2.7376,2.6495,2.5759,4.0122,4.1485,4.2206,4.1822,3.9844,3.7123,0.0,0.0,2.7345,2.4596,2.3516,2.3359,2.4102,2.4336,2.5461,0.0,0.0,0.0,0.0,0.0,0.0,0.0,0.0,0.0,0.0,0.0,0.0,0.0,0.0,0.0,0.0,0.0,4.5532,4.5354,4.4898,4.4261,4.332,4.3027,4.2832,4.2695,4.209,4.1738,4.1601,4.1308,4.1172,4.1172,0.0,0.0,0.0,4.1172,4.1172,4.1172,4.1172,4.1172,4.1172,4.1172,4.0841,4.0509,4.0509,4.0197,3.9745,3.9745,3.943,3.9114,3.9114,3.9114,3.8956,3.864,3.864,3.864,3.864,3.864,3.864,3.864,3.864,3.864,3.864,3.864,3.8548,3.8255,3.8089,3.7833,3.7283,3.6989,3.6732,3.6439,3.6292,3.6201,3.6201,3.6201,3.6201,3.6201,3.5962,3.5797,3.5797,3.543,3.521,3.521,3.51,3.4739,3.4288,3.3256,3.2216,3.117,2.9986,2.9241,2.8792,2.7604,2.715,2.715,2.5963,2.5518,3.8814,4.0403,4.1196,4.1196,3.9561,3.7049,0.0,3.0317,2.7431,2.4964,2.3734,2.3281,2.3711,2.4141,2.498,2.6738,0.0,0.0,0.0,0.0,0.0,0.0,0.0,0.0,0.0,0.0,0.0,0.0,0.0,0.0,0.0,0.0,4.2481,4.4877,4.336,4.2441,4.2441,4.2441,4.2226,4.1816,4.1797,4.1582,4.1172,4.1172,4.1172,0.0,0.0,0.0,0.0,4.1172,4.1172,4.1172,4.1172,4.1172,4.1172,4.1172,4.0841,4.0509,4.0509,4.004,3.9272,3.9272,3.8956,3.864,3.864,3.864,3.864,3.864,3.864,3.864,3.864,3.864,3.864,3.864,3.864,3.864,3.864,3.864,3.864,3.864,3.8291,3.8016,3.7998,3.7356,3.6842,3.6824,3.6476,3.6201,3.6201,3.6201,3.6201,3.6201,3.6201,3.6201,3.6201,3.5834,3.5614,3.5614,3.5247,3.4288,3.2672,3.2672,3.1023,2.7905,2.7905,2.6999,2.5518,2.5518,2.5518,2.5518,2.5518,2.5518,3.4038,3.5397,3.6154,3.558,3.4044,3.2184,3.0144,2.7806,2.5585,2.3899,2.3319,2.3281,2.3711,2.3563,2.4326,2.7422,2.7545,0.0,0.0,0.0,0.0,0.0,0.0,0.0,0.0,0.0,0.0,0.0,0.0,0.0,0.0,0.0,4.1738,4.2743,4.2309,4.2129,4.2422,4.2148,4.1933,4.1797,4.1504,4.1308,4.1172,4.1172,0.0,0.0,0.0,0.0,0.0,4.1172,4.1172,4.1172,4.1172,4.1172,4.1172,4.1172,4.0685,4.0059,4.0059,3.9588,3.8798,3.8798,3.8798,3.864,3.864,3.864,3.864,3.864,3.864,3.864,3.864,3.864,3.864,3.864,3.864,3.864,3.864,3.864,3.864,3.864,3.853,3.8346,3.8053,3.7814,3.7448,3.6916,3.6714,3.6531,3.6237,3.6201,3.6201,3.6201,3.6201,3.6201,3.6201,3.6091,3.6017,3.6017,3.4836,3.4023,3.3409,3.1285,2.9625,2.8549,2.7495,2.6575,2.6106,2.6106,2.6106,2.6106,2.6106,2.6012,0.0,3.2347,3.3166,3.2672,3.124,2.9617,2.8334,2.6364,2.4512,2.3379,2.3144,2.3223,2.3496,2.3279,2.3924,2.668,2.6968,0.0,0.0,0.0,0.0,0.0,0.0,0.0,0.0,0.0,0.0,0.0,0.0,0.0,0.0,0.0,4.1289,4.1562,4.1562,4.1699,4.1953,4.1699,4.1562,4.1562,4.1308,4.1172,4.1172,4.1172,0.0,0.0,0.0,0.0,0.0,4.1172,4.1172,4.1172,4.1172,4.1172,4.1172,4.1172,4.0704,3.9902,3.9902,3.9272,3.864,3.864,3.864,3.864,3.864,3.864,3.864,3.864,3.864,3.864,3.864,3.864,3.864,3.864,3.864,3.864,3.864,3.864,3.864,3.864,3.864,3.8566,3.8291,3.8126,3.7851,3.7356,3.7154,3.6916,3.6494,3.6439,3.6384,3.6219,3.5605,3.5288,3.5288,3.5288,3.5288,3.5288,3.3751,3.2538,3.1928,2.9928,2.8544,2.7933,2.6847,2.6386,2.6386,2.6386,2.6386,2.6386,2.6386,2.6293,0.0,3.069,3.1504,3.1416,3.0306,2.8869,2.7535,2.5765,0.0,2.3301,2.3144,2.3164,2.3262,2.3376,2.3847,2.5137,0.0,0.0,0.0,0.0,0.0,0.0,0.0,0.0,0.0,0.0,0.0,0.0,0.0,0.0,0.0,0.0,0.0,4.1172,4.1172,4.1172,4.1172,4.1172,4.1172,4.1172,4.1172,4.1172,4.1172,4.1172,0.0,0.0,0.0,0.0,0.0,4.1172,4.1172,4.1172,4.1172,4.1172,4.1172,4.1172,4.0704,3.9902,3.9902,3.9272,3.864,3.864,3.864,3.864,3.864,3.864,3.864,3.864,3.864,3.864,3.864,3.864,3.864,3.864,3.864,3.864,3.864,3.864,3.864,3.864,3.864,3.864,3.864,3.831,3.8053,3.8016,3.7704,3.7319,3.6934,3.6728,3.6582,3.618,3.4609,3.3668,3.3651,3.3617,3.36,3.36,3.2065,3.0392,2.9012,2.8856,2.7933,2.6386,2.6386,2.6386,2.6386,2.6386,2.6386,2.6386,2.6386,2.6386,2.2985,0.0,2.6491,2.5618,2.5545,2.5377,0.0,2.4153,0.0,0.0,0.0,0.0,0.0,0.0,0.0,0.0,0.0,0.0,0.0,0.0,0.0,0.0,0.0,0.0,0.0,0.0,0.0,0.0,0.0,0.0,0.0,0.0,0.0,4.1172,4.1172,4.1172,4.1172,4.1172,4.1172,4.1172,4.1172,4.1172,4.1172,4.1172,0.0,0.0,0.0,0.0,4.1172,4.1172,4.1172,4.1172,4.1172,4.1172,4.1172,4.1172,4.0704,3.9902,3.9902,3.9272,3.864,3.864,3.864,3.864,3.864,3.864,3.864,3.864,3.864,3.864,3.864,3.864,3.864,3.864,3.864,3.864,3.864,3.864,3.864,3.864,3.864,3.864,3.864,3.8566,3.8383,3.8053,3.7924,3.7741,3.7338,3.6035,3.521,3.5106,3.3676,3.2452,3.2178,3.2074,3.1912,3.1912,3.0377,2.9308,2.8856,2.7619,2.6847,2.6386,2.6386,2.6386,2.6386,2.6386,2.6386,2.6386,2.6386,2.6386,2.0768,2.2553,2.419,2.3453,2.3828,2.4263,0.0,0.0,0.0,0.0,0.0,0.0,0.0,0.0,0.0,0.0,0.0,0.0,0.0,0.0,0.0,0.0,0.0,0.0,0.0,0.0,0.0,0.0,0.0,0.0,0.0,0.0,0.0,0.0,4.1172,4.1172,4.1172,4.1172,4.1172,4.1172,4.1172,4.1172,4.1172,4.1172,4.1172,0.0,0.0,0.0,4.1172,4.1172,4.1172,4.1172,4.1172,4.1172,4.1172,4.1172,4.0704,3.9902,3.9902,3.9272,3.864,3.864,3.864,3.864,3.864,3.864,3.864,3.864,3.864,3.864,3.864,3.864,3.864,3.864,3.864,3.864,3.864,3.864,3.864,3.864,3.864,3.864,3.864,3.864,3.8566,3.8346,3.831,3.7831,3.6635,3.5626,3.4756,3.3644,3.2031,3.0999,3.0816,3.0017,2.9621,3.0098,2.87,2.7776,2.7776,2.6847,2.6386,2.6386,2.6386,2.6386,2.6386,2.6386,2.6386,2.6386,2.6386,2.6228,2.0391,2.1997,2.3409,2.3005,2.3602,2.4205,0.0,0.0,0.0,0.0,0.0,0.0,0.0,0.0,0.0,0.0,0.0,0.0,0.0,0.0,0.0,0.0,0.0,0.0,0.0,0.0,0.0,0.0,0.0,0.0,0.0,0.0,0.0,4.1172,4.1172,4.1172,4.1172,4.1172,4.1172,4.1172,4.1172,4.1172,4.1172,4.1172,4.1172,0.0,0.0,0.0,4.1172,4.1172,4.1172,4.1172,4.1172,4.1172,4.1016,4.1016,4.0529,3.9745,3.9745,3.9272,3.864,3.864,3.864,3.864,3.864,3.864,3.864,3.864,3.864,3.864,3.864,3.864,3.864,3.864,3.864,3.864,3.864,3.864,3.864,3.864,3.864,3.864,3.864,3.864,3.864,3.864,3.8322,3.7542,3.5742,3.5054,3.3963,3.222,3.0424,2.9454,2.9396,2.8125,2.7729,2.8575,2.7258,2.644,2.6386,2.6386,2.6386,2.6386,2.6386,2.6386,2.6386,2.6386,2.6386,2.6386,2.6386,2.6228,2.1006,2.2259,2.3005,2.2195,2.2948,2.3699,0.0,0.0,0.0,0.0,0.0,0.0,0.0,0.0,0.0,0.0,0.0,0.0,0.0,0.0,0.0,0.0,0.0,0.0,0.0,0.0,0.0,0.0,0.0,0.0,0.0,0.0,0.0,4.1172,4.1172,4.1172,4.1172,4.1172,4.1172,4.1172,4.1172,4.1172,4.1172,4.1172,4.1172,0.0,0.0,4.1172,4.1172,4.1172,4.1172,4.1172,4.1172,4.0997,4.0666,4.0666,4.004,3.9272,3.8956,3.864,3.864,3.864,3.864,3.864,3.864,3.864,3.864,3.864,3.864,3.864,3.864,3.864,3.864,3.864,3.864,3.864,3.864,3.864,3.864,3.864,3.864,3.864,3.864,3.864,3.864,3.864,3.7312,3.6299,3.5926,3.3317,3.1347,3.1137,2.948,2.8397,2.7973,2.7794,2.7646,2.7473,2.7055,2.664,2.64,2.6386,2.6386,2.6386,2.6386,2.6386,2.6386,2.6386,2.6386,2.6386,2.6386,2.6228,2.0153,2.1419,2.2454,2.2195,2.3659,2.4983,0.0,0.0,0.0,0.0,0.0,0.0,0.0,0.0,0.0,0.0,0.0,0.0,0.0,0.0,0.0,0.0,0.0,0.0,0.0,0.0,0.0,0.0,0.0,0.0,0.0,0.0,0.0,0.0,4.1172,4.1172,4.1172,4.1172,4.1172,4.1172,4.1172,4.1172,4.1172,4.1172,4.1172,4.1172,0.0,4.1172,4.1172,4.1172,4.1016,4.0841,4.0841,4.0529,4.0216,3.9883,3.9569,3.9272,3.8798,3.864,3.864,3.864,3.864,3.864,3.864,3.864,3.864,3.864,3.864,3.864,3.864,3.864,3.864,3.864,3.864,3.864,3.864,3.864,3.864,3.864,3.864,3.864,3.864,3.7809,3.7152,3.7152,3.5672,3.4213,3.3233,3.1768,3.0455,2.9467,2.8642,2.8083,2.7949,2.7936,2.7749,2.7295,2.6987,2.676,2.6627,2.6466,2.6386,2.6386,2.6386,2.6386,2.6386,2.6386,2.6228,2.607,2.607,2.5753,1.9869,2.0959,2.2082,0.0,0.0,0.0,0.0,0.0,0.0,0.0,0.0,0.0,0.0,0.0,0.0,0.0,0.0,0.0,0.0,0.0,0.0,0.0,0.0,0.0,0.0,0.0,0.0,0.0,0.0,0.0,0.0,0.0,0.0,0.0,4.1172,4.1172,4.1172,4.1172,4.1172,4.1172,4.1172,4.1172,4.1172,4.1172,4.1172,4.1172,4.1172,4.1172,4.1172,4.1016,4.0841,4.0509,4.0353,4.0059,3.9745,3.9272,3.9114,3.9114,3.8798,3.864,3.864,3.864,3.864,3.864,3.864,3.864,3.864,3.864,3.864,3.864,3.864,3.864,3.864,3.864,3.864,3.864,3.864,3.864,3.864,3.864,3.864,3.8481,3.7986,3.6832,3.5994,3.5994,3.4213,3.2412,3.1602,3.0622,2.9635,2.8305,2.8136,2.8136,2.8136,2.8136,2.7949,2.7495,2.7134,2.6921,2.6921,2.664,2.6493,2.6493,2.6426,2.6386,2.6386,2.6386,2.607,2.5753,2.5753,2.5276,2.1603,2.2064,2.2396,0.0,0.0,0.0,0.0,0.0,0.0,0.0,0.0,0.0,0.0,0.0,0.0,0.0,0.0,0.0,0.0,0.0,0.0,0.0,0.0,0.0,0.0,0.0,0.0,0.0,0.0,0.0,0.0,0.0,0.0,0.0,0.0,4.1172,4.1172,4.1172,4.1172,4.1172,4.1172,4.1172,4.1172,4.1172,4.1172,4.1172,4.1172,4.1172,4.1172,4.0685,4.0509,4.0509,4.0059,3.9745,3.9272,3.8798,3.864,3.864,3.864,3.864,3.864,3.864,3.864,3.864,3.864,3.864,3.864,3.864,3.864,3.864,3.864,3.864,3.864,3.864,3.864,3.864,3.864,3.864,3.864,3.864,3.864,3.8145,3.6494,3.6155,3.5994,3.5994,3.3069,3.1602,3.3069,3.0441,2.8305,2.8136,2.8136,2.8136,2.8136,2.8136,2.8123,2.8083,2.7549,2.7228,2.7228,2.6947,2.6787,2.6787,2.6533,2.6386,2.6386,2.607,2.5753,2.5753,2.5289,2.497,2.0736,2.1663,0.0,0.0,0.0,0.0,0.0,0.0,0.0,0.0,0.0,0.0,0.0,0.0,0.0,0.0,0.0,0.0,0.0,0.0,0.0,0.0,0.0,0.0,0.0,0.0,0.0,0.0,0.0,0.0,0.0,0.0,0.0,0.0,0.0,4.1172,4.1172,4.1172,4.1172,4.1172,4.1172,4.1172,4.1172,4.1172,4.1172,4.1172,4.1172,4.0997,4.0685,4.0509,4.0197,3.9726,3.9272,3.8956,3.8798,3.864,3.864,3.864,3.864,3.864,3.864,3.864,3.864,3.864,3.864,3.864,3.864,3.864,3.864,3.864,3.864,3.864,3.864,3.864,3.864,3.864,3.864,3.864,3.864,3.864,3.7649,3.6815,3.6155,3.4213,3.2741,3.2741,3.0773,2.9467,3.0122,2.8964,2.8136,2.8136,2.8136,2.8136,2.8136,2.8136,2.8136,2.8136,2.7762,2.7535,2.7535,2.7255,2.7014,2.6827,2.6386,2.6241,2.607,2.5594,2.5289,2.497,2.4811,2.4492,2.0235,2.1212,0.0,0.0,0.0,0.0,0.0,0.0,0.0,0.0,0.0,0.0,0.0,0.0,0.0,0.0,0.0,0.0,0.0,0.0,0.0,0.0,0.0,0.0,0.0,0.0,0.0,0.0,0.0,0.0,0.0,0.0,0.0,0.0,0.0,0.0,4.1172,4.1172,4.1172,4.1172,4.1172,4.1172,4.1172,4.1172,4.1172,4.1172,4.1172,4.0997,4.0509,4.0353,3.9883,3.9114,3.8798,3.864,3.864,3.864,3.864,3.864,3.864,3.864,3.864,3.864,3.864,3.864,3.864,3.864,3.864,3.864,3.864,3.864,3.864,3.864,3.864,3.864,3.864,3.864,3.864,3.8145,3.7809,3.7809,3.6815,3.5672,3.4538,3.2905,3.1437,3.0954,2.93,2.8473,2.8964,2.8473,2.8136,2.8136,2.8136,2.8136,2.8136,2.8136,2.8136,2.8136,2.7949,2.7843,2.7843,2.7562,2.7308,2.6945,2.6528,2.6222,2.5866,2.5384,2.5075,2.4752,2.4578,2.4368,2.0484,0.0,0.0,0.0,0.0,0.0,0.0,0.0,0.0,0.0,0.0,0.0,0.0,0.0,0.0,0.0,0.0,0.0,0.0,0.0,0.0,0.0,0.0,0.0,0.0,0.0,0.0,0.0,0.0,0.0,0.0,0.0,0.0,0.0,0.0,0.0,4.1172,4.1172,4.1172,4.1172,4.1172,4.1172,4.1172,4.1172,4.1172,4.1172,4.1172,4.0841,4.0509,4.0059,3.943,3.864,3.864,3.864,3.864,3.864,3.864,3.864,3.864,3.864,3.864,3.864,3.864,3.864,3.864,3.864,3.864,3.864,3.864,3.864,3.864,3.864,3.864,3.864,3.864,3.864,3.864,3.7152,3.5994,3.5994,3.5994,3.4863,3.1437,3.2263,3.2741,3.0954,2.93,2.881,3.0622,2.93,2.8136,2.8136,2.8136,2.8136,2.8136,2.8136,2.8136,2.8136,2.8136,2.8136,2.8136,2.7856,2.7543,2.7044,2.677,2.6298,2.5956,2.5462,2.5298,2.5298,2.479,2.4492,2.0555,0.0,0.0,0.0,0.0,0.0,0.0,0.0,0.0,0.0,0.0,0.0,0.0,0.0,0.0,0.0,0.0,0.0,0.0,0.0,0.0,0.0,0.0,0.0,0.0,0.0,0.0,0.0,0.0,0.0,0.0,0.0,0.0,0.0,0.0,0.0,4.0685,4.0685,4.0685,4.0685,4.0685,4.0841,4.1172,4.0841,4.0685,4.0666,4.0372,4.0059,3.9569,3.9114,3.8798,3.864,3.864,3.864,3.864,3.864,3.864,3.864,3.864,3.864,3.864,3.864,3.864,3.864,3.864,3.864,3.864,3.864,3.864,3.864,3.864,3.864,3.864,3.864,3.864,3.8304,3.6992,3.6333,3.5672,3.4376,3.3233,3.2098,3.0954,3.0289,2.9621,2.8964,2.8473,2.8305,2.8964,2.8473,2.8136,2.8136,2.8136,2.8136,2.8136,2.7981,2.7643,2.7643,2.7474,2.7461,2.8136,2.7733,2.742,2.7057,2.6287,2.5816,2.5462,2.4967,2.479,2.479,2.4625,2.4589,0.0,0.0,0.0,0.0,0.0,0.0,0.0,0.0,0.0,0.0,0.0,0.0,0.0,0.0,0.0,0.0,0.0,0.0,0.0,0.0,0.0,0.0,0.0,0.0,0.0,0.0,0.0,0.0,0.0,0.0,0.0,0.0,0.0,0.0,0.0,0.0,4.0509,4.0353,4.0197,4.0197,4.0197,4.0372,4.0704,4.0509,4.0353,4.0197,3.9902,3.9588,3.9272,3.8798,3.864,3.864,3.864,3.864,3.864,3.864,3.864,3.864,3.864,3.864,3.864,3.864,3.864,3.864,3.864,3.864,3.864,3.864,3.864,3.864,3.864,3.8145,3.7809,3.8481,3.864,3.8304,3.7312,3.6494,3.5511,3.3724,3.2577,3.1437,2.9955,2.9467,2.8964,2.8305,2.8136,2.8136,2.8136,2.8136,2.8136,2.8136,2.8136,2.8136,2.7981,2.7643,2.7474,2.7304,2.6965,2.7122,2.763,2.7304,2.7058,2.6709,2.6192,2.5613,2.5285,2.5118,2.4951,2.4951,2.4951,2.489,0.0,0.0,0.0,0.0,0.0,0.0,0.0,0.0,0.0,0.0,0.0,0.0,0.0,0.0,0.0,0.0,0.0,0.0,0.0,0.0,0.0,0.0,0.0,0.0,0.0,0.0,0.0,0.0,0.0,0.0,0.0,0.0,0.0,0.0,0.0,0.0,4.0296,4.004,3.9902,0.0,3.9902,3.9902,3.9902,4.0197,4.0197,3.9745,3.943,3.9272,3.9272,3.8798,3.864,3.864,3.864,3.864,3.864,3.864,3.864,3.864,3.864,3.864,3.864,3.864,3.864,3.864,3.864,3.864,3.864,3.864,3.864,3.864,3.864,3.749,3.6654,3.8145,3.8481,3.8322,3.8145,3.6832,3.5187,3.356,3.3069,3.1918,2.881,2.9467,2.9969,2.8473,2.8136,2.8136,2.8136,2.8136,2.815,2.815,2.815,2.7981,2.7474,2.7474,2.7135,2.6783,2.6626,2.6626,2.6626,2.6796,2.6613,2.6103,2.6103,2.5763,2.5433,2.5433,2.5433,2.5433,2.5433,2.5313,0.0,0.0,0.0,0.0,0.0,0.0,0.0,0.0,0.0,0.0,0.0,0.0,0.0,0.0,0.0,0.0,0.0,0.0,0.0,0.0,0.0,0.0,0.0,0.0,0.0,0.0,0.0,0.0,0.0,0.0,0.0,0.0,0.0,0.0,0.0,3.9719,3.9099,3.9262,3.943,0.0,3.943,3.943,3.943,3.9588,3.9272,3.8798,3.8798,3.8798,3.8798,3.864,3.864,3.864,3.864,3.864,3.864,3.864,3.864,3.864,3.864,3.864,3.864,3.864,3.864,3.864,3.864,3.864,3.864,3.864,3.864,3.864,3.864,3.8322,3.8145,3.8481,3.749,3.6172,3.4863,3.4213,3.3397,3.1768,3.0289,2.9132,2.8305,2.8473,2.8642,2.8305,2.8136,2.8136,2.8136,2.8136,2.7981,2.7643,2.7643,2.7474,2.6965,2.6613,2.6443,2.6273,2.5945,2.5775,2.5775,2.6103,2.6273,2.6103,2.5775,2.5433,2.5433,2.5433,2.5433,2.5433,2.5433,2.5409,0.0,0.0,0.0,0.0,0.0,0.0,0.0,0.0,0.0,0.0,0.0,0.0,0.0,0.0,0.0,0.0,0.0,0.0,0.0,0.0,0.0,0.0,0.0,0.0,0.0,0.0,0.0,0.0,0.0,0.0,0.0,0.0,0.0,0.0,3.93,3.8839,3.8378,3.8428,3.8365,3.8365,3.8365,3.8476,3.8661,3.8864,3.8798,3.864,3.864,3.864,3.864,3.864,3.864,3.864,3.864,3.864,3.864,3.864,3.864,3.864,3.864,3.864,3.864,3.864,3.864,3.864,3.864,3.864,3.864,3.864,3.864,3.864,3.864,3.7986,3.7152,3.6351,3.6672,3.6815,3.5025,3.4701,3.3887,3.1271,3.0122,2.9132,2.8305,2.8136,2.8136,2.8136,2.8136,2.8136,2.8136,2.7981,2.7812,2.7487,2.7304,2.6965,2.6443,2.6273,2.5933,2.5763,2.5604,2.5433,2.5433,2.5604,2.5763,2.5763,2.5604,2.5433,2.5433,2.5433,2.5433,2.5433,2.5433,2.5433,0.0,0.0,0.0,0.0,0.0,0.0,0.0,0.0,0.0,0.0,0.0,0.0,0.0,0.0,0.0,0.0,0.0,0.0,0.0,0.0,0.0,0.0,0.0,0.0,0.0,0.0,0.0,0.0,0.0,0.0,0.0,0.0,3.869,3.9012,3.8254,3.7968,3.7815,3.7546,3.7429,3.7429,3.7429,3.7594,3.7924,3.8346,3.8566,3.864,3.864,3.864,3.864,3.864,3.864,3.864,3.864,3.864,3.864,3.864,3.864,3.864,3.864,3.864,3.864,3.864,3.864,3.864,3.864,3.864,3.864,3.864,3.864,3.864,3.864,3.7312,3.5672,3.4197,3.585,3.717,3.5511,3.5187,3.4213,3.1437,3.0622,2.9955,2.8473,2.8136,2.8136,2.8136,2.8136,2.8136,2.815,2.7812,2.7487,2.7304,2.6965,2.6443,2.6103,2.5933,2.5763,2.5433,2.5433,2.5433,2.5433,2.5433,2.5433,2.5433,2.5433,2.5433,2.5433,2.5433,2.5433,2.5433,2.5433,2.5433,0.0,0.0,0.0,0.0,0.0,0.0,0.0,0.0,0.0,0.0,0.0,0.0,0.0,0.0,0.0,0.0,0.0,0.0,0.0,0.0,0.0,0.0,0.0,0.0,0.0,0.0,0.0,0.0,0.0,0.0,0.0,3.8311,3.7953,3.7821,3.7652,3.7351,3.6916,3.7264,3.7429,3.7429,3.7429,3.7448,3.7521,3.7924,3.8291,3.864,3.864,3.864,3.864,3.864,3.864,3.864,3.864,3.864,3.864,3.864,3.864,3.864,3.864,3.864,3.864,3.864,3.864,3.864,3.864,3.864,3.864,3.864,3.864,3.864,3.864,3.7312,3.5994,3.5672,3.4863,3.356,3.1933,3.1437,3.1437,3.0954,2.9635,2.8473,2.8305,2.8136,2.8136,2.8136,2.8136,2.7981,2.7643,2.7474,2.7135,2.6443,2.6273,2.5933,2.5604,2.5433,2.5433,2.5433,2.5433,2.5433,2.5433,2.5433,2.5433,2.5433,2.5433,2.5433,2.5433,2.5433,2.5433,2.5433,2.5433,2.5433,0.0,0.0,0.0,0.0,0.0,0.0,0.0,0.0,0.0,0.0,0.0,0.0,0.0,0.0,0.0,0.0,0.0,0.0,0.0,0.0,0.0,0.0,0.0,0.0,0.0,0.0,0.0,0.0,0.0,0.0,3.7634,3.7166,3.7073,3.7073,3.6924,3.6625,3.6494,3.6659,3.6751,3.6751,3.6751,3.6861,3.7099,3.7283,3.7704,3.831,3.853,3.864,3.864,3.864,3.864,3.864,3.864,3.864,3.864,3.864,3.864,3.864,3.864,3.864,3.864,3.864,3.864,3.864,3.864,3.864,3.864,3.864,3.864,3.864,3.864,3.7312,3.5833,3.4863,3.3233,3.1437,2.9802,3.0122,3.0455,2.9467,2.8642,2.8136,2.8136,2.8136,2.815,2.7812,2.7812,2.7643,2.7135,2.6965,2.6613,2.6103,2.5933,2.5604,2.5433,2.5433,2.5433,2.5433,2.5433,2.5433,2.5433,2.5433,2.5433,2.5433,2.5433,2.5433,2.5433,2.5433,2.5433,2.5433,2.5433,2.5433,0.0,0.0,0.0,0.0,0.0,0.0,0.0,0.0,0.0,0.0,0.0,0.0,0.0,0.0,0.0,0.0,0.0,0.0,0.0,0.0,0.0,0.0,0.0,0.0,0.0,0.0,0.0,0.0,0.0,0.0,3.6664,3.6349,3.6349,3.6664,3.6349,3.6201,3.6201,3.6201,3.6201,3.6201,3.6201,3.6366,3.6677,3.6787,3.7154,3.7741,3.8255,3.8493,3.8493,3.8603,3.864,3.864,3.864,3.864,3.864,3.864,3.864,3.864,3.864,3.864,3.864,3.864,3.864,3.864,3.864,3.864,3.864,3.864,3.864,3.8481,3.7986,3.6654,3.4863,3.3233,3.1437,2.9802,2.8473,2.93,2.9802,2.8473,2.8136,2.815,2.7981,2.7981,2.7812,2.7304,2.7304,2.7135,2.6613,2.6273,2.6103,2.5933,2.5604,2.5433,2.5433,2.5433,2.5433,2.5433,2.5433,2.5433,2.5433,2.5433,2.5433,2.5433,2.5433,2.5433,2.5433,2.5433,2.5433,2.5433,2.5433,2.5433,0.0,0.0,0.0,0.0,0.0,0.0,0.0,0.0,0.0,0.0,0.0,0.0,0.0,0.0,0.0,0.0,0.0,0.0,0.0,0.0,0.0,0.0,0.0,0.0,0.0,0.0,0.0,0.0,0.0,0.0,3.6201,3.6201,3.6201,3.6201,3.6201,3.6201,3.6201,3.6201,3.6201,3.6201,3.6201,3.6219,3.6256,3.6659,3.6861,3.6934,3.7704,3.8053,3.8071,3.8475,3.864,3.864,3.864,3.864,3.864,3.864,3.864,3.864,3.864,3.864,3.864,3.864,3.864,3.864,3.864,3.864,3.864,3.864,3.864,3.8145,3.6494,3.4863,3.3069,3.1271,2.9635,2.8305,2.8136,2.8305,2.8305,2.8136,2.8136,2.7981,2.7643,2.7474,2.7304,2.6965,2.6796,2.6613,2.6273,2.6103,2.5933,2.5433,2.5433,2.5433,2.5433,2.5433,2.5433,2.5433,2.5433,2.5433,2.5433,2.5433,2.5433,2.5433,2.5433,2.5433,2.5433,2.5433,2.5433,2.5433,2.5433,2.5433,0.0,0.0,0.0,0.0,0.0,0.0,0.0,0.0,0.0,0.0,0.0,0.0,0.0,0.0,0.0,0.0,0.0,0.0,0.0,0.0,0.0,0.0,0.0,0.0,0.0,0.0,0.0,0.0,0.0,0.0,3.6201,3.6201,3.6201,3.6201,3.6201,3.6201,3.6201,3.6201,3.6201,3.6201,3.6201,3.6201,3.6219,3.6366,3.6439,3.6457,3.7007,3.7411,3.7668,3.8071,3.8236,3.8273,3.853,3.864,3.864,3.864,3.864,3.864,3.864,3.864,3.864,3.864,3.864,3.864,3.864,3.864,3.864,3.864,3.864,3.8481,3.7827,3.5527,3.2741,2.9788,2.8642,2.8136,2.8136,2.8136,2.8136,2.8136,2.7981,2.7643,2.7487,2.7304,2.6965,2.6443,2.6273,2.6103,2.5775,2.5604,2.5604,2.5433,2.5433,2.5433,2.5433,2.5433,2.5433,2.5433,2.5433,2.5433,2.5433,2.5433,2.5433,2.5433,2.5433,2.5433,2.5433,2.5433,2.5433,2.5433,2.5433,2.5433,0.0,0.0,0.0,0.0,0.0,0.0,0.0,0.0,0.0,0.0,0.0,0.0,0.0,0.0,0.0,0.0,0.0,0.0,0.0,0.0,0.0,0.0,0.0,0.0,0.0,0.0,0.0,0.0,0.0,0.0,3.6201,3.6201,3.6201,3.6201,3.6201,3.6201,3.6201,3.6201,3.6201,3.6201,3.6201,3.6201,3.6201,3.6201,3.6201,3.6219,3.6512,3.6861,3.7264,3.7649,3.7888,3.8034,3.8328,3.8511,3.864,3.864,3.864,3.864,3.864,3.864,3.864,3.864,3.864,3.864,3.864,3.864,3.864,3.864,3.864,3.8481,3.7809,3.5187,3.1768,2.8642,2.7981,2.7981,2.7799,2.7812,2.7981,2.7981,2.7643,2.7135,2.7135,2.6796,2.6443,2.5933,2.5933,2.5763,2.5433,2.5433,2.5433,2.5433,2.5433,2.5433,2.5433,2.5433,2.5433,2.5433,2.5433,2.5433,2.5433,2.5433,2.5433,2.5433,2.5433,2.5433,2.5433,2.5433,2.5433,2.5433,2.5433,2.5433,0.0,0.0,0.0,0.0,0.0,0.0,0.0,0.0,0.0,0.0,0.0,0.0,0.0,0.0,0.0,0.0,0.0,0.0,0.0,0.0,0.0,0.0,0.0,0.0,0.0,0.0,0.0,0.0,0.0,3.5339,3.6091,3.6146,3.6146,3.6164,3.6164,3.6164,3.6182,3.6182,3.6201,3.6201,3.6201,3.6201,3.6201,3.6201,3.6201,3.6201,3.6201,3.6439,3.6842,3.7246,3.7631,3.7979,3.7998,3.8273,3.8621,3.864,3.864,3.864,3.864,3.864,3.864,3.864,3.864,3.864,3.864,3.864,3.864,3.864,3.864,3.8145,3.6333,3.3397,3.0289,2.7981,2.7487,2.7304,2.6965,2.7135,2.7487,2.7487,2.7135,2.6613,2.6103,2.6103,2.5933,2.5433,2.5433,2.5433,2.5433,2.5433,2.5433,2.5433,2.5433,2.5433,2.5433,2.5433,2.5433,2.5433,2.5433,2.5433,2.5433,2.5433,2.5433,2.5433,2.5433,2.5433,2.5433,2.5433,2.5433,2.5433,2.5433,2.5433,1.6817,0.0,0.0,0.0,0.0,0.0,0.0,0.0,0.0,0.0,0.0,0.0,0.0,0.0,0.0,0.0,0.0,0.0,0.0,0.0,0.0,0.0,0.0,0.0,0.0,0.0,0.0,0.0,3.4147,3.4238,3.4458,3.4477,3.4605,3.4899,3.4899,3.5192,3.5779,3.5779,3.5925,3.6201,3.6201,3.6201,3.6201,3.6201,3.6201,3.6201,3.6201,3.6274,3.6421,3.6824,3.7062,3.7209,3.7796,3.8089,3.8218,3.853,3.864,3.864,3.864,3.864,3.864,3.864,3.864,3.864,3.864,3.864,3.864,3.864,3.864,3.7986,3.4863,3.3217,3.1407,2.8305,2.7304,2.6965,2.6796,2.6613,2.6613,2.6965,2.6613,2.6273,2.6103,2.5763,2.5604,2.5433,2.5433,2.5433,2.5433,2.5433,2.5433,2.5433,2.5433,2.5433,2.5433,2.5433,2.5433,2.5433,2.5433,2.5433,2.5433,2.5433,2.5433,2.5433,2.5433,2.5433,2.5433,2.5433,2.5433,2.5433,2.5433,2.5433,0.0,0.0,0.0,0.0,0.0,0.0,0.0,0.0,0.0,0.0,0.0,0.0,0.0,0.0,0.0,0.0,0.0,0.0,0.0,0.0,0.0,0.0,0.0,0.0,0.0,0.0,0.0,3.378,3.3817,3.389,3.4055,3.3908,3.3927,3.4147,3.4147,3.4385,3.4862,3.5027,3.5229,3.5449,3.5797,3.5962,3.5962,3.6127,3.6201,3.6201,3.6201,3.6201,3.6237,3.6476,3.6677,3.6897,3.7521,3.7869,3.8071,3.8493,3.864,3.864,3.864,3.864,3.864,3.864,3.864,3.864,3.864,3.864,3.864,3.864,3.864,3.7809,3.4034,3.2874,3.1722,2.7786,2.6796,2.6443,2.6286,2.5945,2.5933,2.6443,2.6103,2.5763,2.5763,2.5604,2.5433,2.5433,2.5433,2.5433,2.5433,2.5433,2.5433,2.5433,2.5433,2.5433,2.5433,2.5433,2.5433,2.5433,2.5433,2.5433,2.5433,2.5433,2.5433,2.5433,2.5433,2.5433,2.5433,2.5433,2.5433,2.5433,2.5433,2.5433,0.0,0.0,0.0,0.0,0.0,0.0,2.3655,2.3502,0.0,0.0,0.0,0.0,0.0,0.0,0.0,0.0,0.0,0.0,0.0,0.0,0.0,0.0,0.0,0.0,0.0,3.1671,3.2313,3.3395,3.356,3.378,3.4183,3.3872,3.367,3.367,3.367,3.3707,3.3743,3.4092,3.4293,3.4348,3.5119,3.5485,3.5504,3.5944,3.6146,3.6146,3.6182,3.6201,3.6201,3.6201,3.6421,3.6806,3.7209,3.7594,3.7998,3.842,3.8603,3.864,3.864,3.864,3.864,3.864,3.864,3.864,3.864,3.864,3.864,3.864,3.864,3.7649,3.3692,3.2694,3.1377,2.7096,2.6103,2.5933,2.5433,2.5433,2.5604,2.5933,2.5775,2.5433,2.5433,2.5433,2.5433,2.5433,2.5433,2.5433,2.5433,2.5433,2.5433,2.5433,2.5433,2.5433,2.5433,2.5433,2.5433,2.5433,2.5433,2.5433,2.5433,2.5433,2.5433,2.5433,2.5433,2.5433,2.5433,2.5433,2.5433,2.5433,2.5433,2.5433,0.0,0.0,0.0,0.0,0.0,0.0,0.0,2.1231,0.0,0.0,0.0,0.0,0.0,0.0,0.0,0.0,0.0,0.0,0.0,0.0,0.0,0.0,0.0,0.0,0.0,3.1176,3.1121,3.1359,3.1983,3.2533,3.2918,3.2881,3.2826,3.2826,3.2826,3.2991,3.334,3.3413,3.3615,3.3927,3.4403,3.4642,3.466,3.5394,3.5724,3.576,3.6072,3.6201,3.6201,3.6201,3.6256,3.6366,3.6787,3.7191,3.7594,3.7998,3.8346,3.864,3.864,3.864,3.864,3.864,3.864,3.864,3.864,3.864,3.864,3.864,3.8322,3.733,3.3692,3.2217,3.0729,2.6927,2.5763,2.5433,2.5433,2.5433,2.5433,2.5604,2.5433,2.5433,2.5433,2.5433,2.5433,2.5433,2.5433,2.5433,2.5433,2.5433,2.5433,2.5433,2.5433,2.5433,2.5433,2.5433,2.5433,2.5433,2.5433,2.5433,2.5433,2.5433,2.5433,2.5433,2.5433,2.5433,2.5433,2.5433,2.5433,2.5433,2.5433,2.5433,0.0,0.0,0.0,2.0869,0.0,0.0,0.0,0.0,0.0,0.0,0.0,0.0,0.0,0.0,0.0,0.0,0.0,0.0,0.0,0.0,0.0,0.0,0.0,0.0,0.0,3.1396,3.1396,3.1396,3.1781,3.2093,3.2294,3.2294,3.2386,3.2588,3.2404,3.2404,3.2625,3.2625,3.2716,3.2918,3.3523,3.3927,3.4128,3.4733,3.5229,3.5632,3.5834,3.6017,3.6201,3.6201,3.6201,3.6256,3.6677,3.6952,3.7209,3.7796,3.8144,3.8365,3.8566,3.864,3.864,3.864,3.864,3.864,3.864,3.864,3.8481,3.8322,3.8163,3.701,3.3038,3.1722,3.0412,2.6601,2.5604,2.5433,2.5433,2.5433,2.5433,2.5433,2.5433,2.5433,2.5433,2.5433,2.5433,2.5433,2.5433,2.5433,2.5433,2.5433,2.5433,2.5433,2.5433,2.5433,2.5433,2.5433,2.5433,2.5433,2.5433,2.5433,2.5433,2.5433,2.5433,2.5433,2.5433,2.5433,2.5433,2.5433,2.5433,2.5433,2.5433,2.5433,0.0,0.0,0.0,0.0,0.0,2.1603,0.0,0.0,0.0,2.3484,0.0,0.0,0.0,0.0,0.0,0.0,0.0,0.0,0.0,0.0,0.0,0.0,0.0,0.0,0.0,3.1084,3.1377,3.1854,3.1671,3.1671,3.1983,3.2074,3.2239,3.2478,3.2239,3.2074,3.2001,3.2001,3.1964,3.1891,3.2643,3.3156,3.3486,3.3963,3.4568,3.5284,3.543,3.5724,3.6109,3.6182,3.6201,3.6237,3.6586,3.6769,3.6916,3.7558,3.7888,3.8053,3.8401,3.8585,3.864,3.864,3.864,3.864,3.864,3.8481,3.8481,3.8163,3.7845,3.6689,3.2561,3.1407,3.0245,2.6261,2.5433,2.5433,2.5433,2.5433,2.5433,2.5433,2.5433,2.5433,2.5433,2.5433,2.5433,2.5433,2.5433,2.5433,2.5433,2.5433,2.5433,2.5433,2.5433,2.5433,2.5433,2.5433,2.5433,2.5433,2.5433,2.5433,2.5433,2.5433,2.5433,2.5433,2.5433,2.5433,2.5433,2.5433,2.5433,2.5433,2.5433,2.5433,0.0,0.0,0.0,0.0,2.3584,0.0,0.0,0.0,2.2447,2.1621,0.0,0.0,0.0,0.0,0.0,0.0,0.0,0.0,0.0,0.0,0.0,0.0,0.0,0.0,0.0,0.0,2.914,3.1286,3.0461,3.0479,3.1928,3.2331,3.2386,3.2074,3.2368,3.2368,3.2019,3.2001,3.1818,3.1451,3.1928,3.2166,3.2239,3.301,3.3596,3.4055,3.4788,3.532,3.5724,3.6054,3.6201,3.6219,3.6256,3.6512,3.6842,3.6934,3.7411,3.8016,3.8071,3.8328,3.864,3.864,3.864,3.864,3.864,3.8322,3.8004,3.8004,3.7365,3.6063,3.2397,3.1076,2.9926,2.6273,2.5433,2.5433,2.5433,2.5433,2.5433,2.5433,2.5433,2.5433,2.5433,2.5433,2.5433,2.5433,2.5433,2.5433,2.5433,2.5433,2.5433,2.5433,2.5433,2.5433,2.5433,2.5433,2.5433,2.5433,2.5433,2.5433,2.5433,2.5433,2.5433,2.5433,2.5433,2.5433,2.5433,2.5433,2.5433,2.5433,2.5433,2.5433,0.0,0.0,0.0,0.0,0.0,0.0,2.1438,0.0,2.153,0.0,0.0,0.0,0.0,0.0,0.0,0.0,0.0,0.0,0.0,0.0,0.0,0.0,0.0,0.0,0.0,0.0,0.0,0.0,0.0,2.9489,3.0882,3.1341,3.1799,3.2331,3.2294,3.2276,3.2349,3.2349,3.2148,3.1744,3.1928,3.2001,3.2019,3.2368,3.2863,3.3505,3.4073,3.4678,3.5302,3.5705,3.5999,3.6201,3.6201,3.6311,3.6494,3.6751,3.7044,3.7393,3.7851,3.8126,3.831,3.8566,3.864,3.864,3.864,3.8322,3.8004,3.7685,3.6529,3.4555,3.1737,3.0079,2.8601,2.5933,2.5433,2.5433,2.5433,2.5433,2.5433,2.5433,2.5433,2.5433,2.5433,2.5433,2.5433,2.5433,2.5433,2.5433,2.5433,2.5433,2.5433,2.5433,2.5433,2.5433,2.5433,2.5433,2.5433,2.5433,2.5433,2.5433,2.5433,2.5433,2.5433,2.5433,2.5433,2.5433,2.5433,2.5433,2.5433,2.5433,2.5433,2.5433,2.6769,0.0,0.0,0.0,0.0,0.0,0.0,0.0,0.0,0.0,0.0,0.0,0.0,0.0,0.0,0.0,0.0,0.0,0.0,0.0,0.0,0.0,0.0,0.0,0.0,0.0,0.0,0.0,0.0,0.0,2.9947,3.0406,3.1084,3.2074,3.2038,3.2148,3.2423,3.2533,3.2441,3.2166,3.2056,3.2001,3.2001,3.1891,3.2221,3.2918,3.3431,3.411,3.4899,3.5412,3.5852,3.6201,3.6201,3.6201,3.6237,3.6549,3.6732,3.6934,3.7613,3.7998,3.8236,3.8548,3.864,3.864,3.8481,3.8163,3.7685,3.7365,3.6046,3.4066,3.1422,2.9759,2.8265,2.5933,2.5433,2.5433,2.5433,2.5433,2.5433,2.5433,2.5433,2.5433,2.5433,2.5433,2.5433,2.5433,2.5433,2.5433,2.5433,2.5433,2.5433,2.5433,2.5433,2.5433,2.5433,2.5433,2.5433,2.5433,2.5433,2.5433,2.5433,2.5433,2.5433,2.5433,2.5433,2.5433,2.5433,2.5433,2.5433,2.5433,2.5433,2.5433,0.0,0.0,0.0,2.5043,0.0,0.0,0.0,0.0,2.2282,0.0,0.0,0.0,0.0,0.0,0.0,0.0,0.0,0.0,0.0,0.0,0.0,0.0,0.0,0.0,0.0,0.0,0.0,0.0,0.0,0.0,2.9452,2.9984,3.0424,3.0827,3.1598,3.2019,3.2019,3.2404,3.2588,3.257,3.2184,3.2001,3.2001,3.1579,3.1634,3.2093,3.29,3.3688,3.4477,3.5284,3.5852,3.6201,3.6201,3.6201,3.6201,3.6219,3.6494,3.6897,3.7301,3.7961,3.8621,3.864,3.864,3.8481,3.8163,3.7685,3.7365,3.6885,3.642,3.5254,3.1753,3.0759,2.9759,2.6273,2.5433,2.5433,2.5433,2.5433,2.5433,2.5433,2.5433,2.5433,2.5433,2.5433,2.5433,2.5433,2.5433,2.5433,2.5433,2.5433,2.5433,2.5433,2.5433,2.5433,2.5433,2.5433,2.5433,2.5433,2.5433,2.5433,2.5433,2.5433,2.5433,2.5433,2.5433,2.5433,2.5433,2.5433,2.5433,2.5433,2.5433,2.5433,0.0,0.0,3.0268,2.7303,0.0,0.0,0.0,0.0,0.0,0.0,0.0,0.0,0.0,0.0,0.0,0.0,0.0,0.0,0.0,0.0,0.0,0.0,0.0,0.0,0.0,0.0,0.0,0.0,0.0,0.0,0.0,2.903,2.958,2.9965,3.1029,3.1726,3.2001,3.268,3.301,3.301,3.2881,3.2533,3.2001,3.1854,3.1726,3.1616,3.2184,3.2881,3.3688,3.4477,3.521,3.5852,3.6109,3.6201,3.6201,3.6201,3.6292,3.6512,3.7191,3.7961,3.864,3.864,3.8481,3.8163,3.8004,3.7525,3.6885,3.6724,3.475,3.2247,3.1091,2.9091,2.694,2.5775,2.5433,2.5433,2.5433,2.5433,2.5433,2.5433,2.5433,2.5433,2.5433,2.5433,2.5433,2.5433,2.5433,2.5433,2.5433,2.5433,2.5433,2.5433,2.5433,2.5433,2.5433,2.5433,2.5433,2.5433,2.5433,2.5433,2.5433,2.5433,2.5433,2.5433,2.5433,2.5433,2.5433,2.5433,2.5433,2.5433,2.5433,2.5433,3.0882,3.1226,0.0,2.8352,2.7023,0.0,2.3312,0.0,0.0,0.0,0.0,0.0,0.0,0.0,0.0,0.0,0.0,0.0,0.0,0.0,0.0,0.0,0.0,0.0,0.0,0.0,2.2465,2.4409,0.0,0.0,0.0,0.0,2.9159,2.9562,3.0607,3.1359,3.1781,3.2459,3.2936,3.323,3.323,3.2863,3.2203,3.2074,3.1781,3.1396,3.1818,3.2478,3.3285,3.4073,3.488,3.565,3.6054,3.6201,3.6201,3.6201,3.6384,3.6714,3.7246,3.7961,3.864,3.864,3.8322,3.8004,3.7845,3.7205,3.6742,3.6581,3.4588,3.2592,3.1918,2.9592,2.7096,2.6431,2.5933,2.5604,2.6273,2.5763,2.5604,2.6273,2.5763,2.5433,2.5433,2.5433,2.5433,2.5433,2.5433,2.5433,2.5433,2.5433,2.5433,2.5433,2.5433,2.5433,2.5433,2.5433,2.5433,2.5433,2.5433,2.5433,2.5433,2.5433,2.5433,2.5433,2.5433,2.5433,2.5433,2.5433,2.5433,2.5433,2.5433,2.5385]},{"header":{"parameterUnit":"m.s-1","parameterCategory":1,"la1":30.6,"la2":29.2853,"lo1":-89.7004,"lo2":-87.6739,"dy":0.0162,"dx":0.0183,"nx":112,"ny":82,"refTime":"2025-04-07T12:00:00:Z","depth":0,"parameterNumber":3,"parameterNumberName":"V-component_of_WINDS"},"data":[0.0,0.0,0.0,0.0,0.0,0.0,0.0,0.0,0.0,0.0,0.0,0.0,0.0,0.0,0.0,0.0,0.0,0.0,0.0,0.0,0.0,0.0,0.0,0.0,0.0,0.0,0.0,0.0,0.0,0.0,0.0,0.0,0.0,0.0,0.0,0.0,0.0,0.0,0.0,0.0,0.0,0.0,0.0,0.0,0.0,0.0,0.0,0.0,0.0,0.0,0.0,0.0,0.0,0.0,0.0,0.0,0.0,0.0,0.0,0.0,0.0,0.0,0.0,0.0,0.0,0.0,0.0,0.0,0.0,0.0,0.0,0.0,0.0,0.0,0.0,0.0,0.0,0.0,0.0,0.0,0.0,0.0,0.0,0.0,0.0,0.0,0.0,0.0,0.0,0.0,0.0,-3.4766,-3.8525,-4.0595,-3.9939,-3.9767,-3.7525,-3.2455,0.0,0.0,0.0,0.0,0.0,0.0,0.0,0.0,0.0,0.0,0.0,0.0,0.0,0.0,0.0,0.0,0.0,0.0,0.0,0.0,0.0,0.0,0.0,0.0,0.0,0.0,0.0,0.0,0.0,0.0,0.0,0.0,0.0,0.0,0.0,0.0,0.0,0.0,0.0,0.0,0.0,0.0,0.0,0.0,0.0,0.0,0.0,0.0,0.0,0.0,0.0,0.0,0.0,0.0,0.0,0.0,0.0,0.0,0.0,0.0,0.0,0.0,0.0,0.0,0.0,0.0,0.0,0.0,0.0,0.0,0.0,0.0,0.0,0.0,0.0,0.0,0.0,0.0,0.0,0.0,0.0,0.0,0.0,0.0,0.0,0.0,0.0,0.0,0.0,0.0,0.0,0.0,0.0,0.0,0.0,0.0,0.0,0.0,0.0,0.0,0.0,0.0,0.0,0.0,-3.3041,-3.8284,-4.0077,-4.0836,-4.0698,-4.0077,-3.8008,-3.3973,0.0,0.0,0.0,0.0,0.0,0.0,0.0,0.0,0.0,0.0,0.0,0.0,0.0,0.0,0.0,0.0,0.0,0.0,0.0,0.0,0.0,0.0,0.0,0.0,0.0,0.0,0.0,0.0,0.0,0.0,0.0,0.0,0.0,0.0,0.0,0.0,0.0,0.0,0.0,0.0,0.0,0.0,0.0,0.0,0.0,0.0,0.0,0.0,0.0,0.0,0.0,0.0,0.0,0.0,0.0,0.0,0.0,0.0,0.0,0.0,0.0,0.0,0.0,0.0,0.0,0.0,0.0,0.0,0.0,0.0,0.0,0.0,0.0,0.0,0.0,0.0,0.0,0.0,0.0,0.0,0.0,0.0,0.0,0.0,0.0,0.0,0.0,0.0,0.0,0.0,0.0,0.0,0.0,0.0,0.0,0.0,0.0,0.0,0.0,0.0,0.0,0.0,0.0,-3.249,-3.4973,-3.9802,-4.0664,-4.0871,-4.0871,-4.0146,-3.8077,-3.4318,-3.1938,0.0,0.0,0.0,0.0,0.0,0.0,0.0,0.0,0.0,0.0,0.0,0.0,0.0,0.0,0.0,0.0,0.0,0.0,0.0,0.0,0.0,0.0,0.0,0.0,0.0,0.0,0.0,0.0,0.0,0.0,0.0,0.0,0.0,0.0,0.0,0.0,0.0,0.0,0.0,0.0,0.0,0.0,0.0,0.0,0.0,0.0,0.0,0.0,0.0,0.0,0.0,0.0,0.0,0.0,0.0,0.0,0.0,0.0,0.0,0.0,0.0,0.0,0.0,0.0,0.0,0.0,0.0,0.0,0.0,0.0,0.0,0.0,0.0,0.0,0.0,0.0,0.0,0.0,0.0,0.0,0.0,0.0,0.0,0.0,0.0,0.0,0.0,0.0,0.0,0.0,0.0,0.0,0.0,0.0,0.0,0.0,0.0,0.0,0.0,0.0,0.0,0.0,-3.5766,-3.7663,-4.056,-4.1043,-4.1078,-4.0905,-3.9836,-3.7732,-3.4318,-3.1627,0.0,0.0,0.0,0.0,0.0,0.0,0.0,0.0,0.0,0.0,0.0,0.0,0.0,0.0,0.0,0.0,0.0,0.0,0.0,0.0,0.0,0.0,0.0,0.0,0.0,0.0,0.0,0.0,0.0,0.0,0.0,0.0,0.0,0.0,0.0,0.0,0.0,0.0,0.0,0.0,0.0,0.0,0.0,0.0,0.0,0.0,0.0,0.0,0.0,0.0,0.0,0.0,0.0,0.0,0.0,0.0,0.0,0.0,0.0,0.0,0.0,0.0,0.0,0.0,0.0,0.0,0.0,0.0,0.0,0.0,0.0,0.0,0.0,0.0,0.0,0.0,0.0,0.0,0.0,0.0,0.0,0.0,0.0,0.0,0.0,0.0,0.0,0.0,0.0,0.0,0.0,0.0,0.0,0.0,0.0,0.0,0.0,0.0,0.0,0.0,0.0,0.0,-3.7422,-4.0595,-4.0836,-4.1492,-4.163,-4.094,-3.8905,-3.6628,-3.4249,-3.0627,0.0,0.0,0.0,0.0,0.0,0.0,0.0,0.0,0.0,0.0,0.0,0.0,0.0,0.0,0.0,0.0,0.0,0.0,0.0,0.0,0.0,0.0,0.0,0.0,0.0,0.0,0.0,0.0,0.0,0.0,0.0,0.0,0.0,0.0,0.0,0.0,0.0,0.0,0.0,0.0,0.0,0.0,0.0,0.0,0.0,0.0,0.0,0.0,0.0,0.0,0.0,0.0,0.0,0.0,0.0,0.0,0.0,0.0,0.0,0.0,0.0,0.0,0.0,0.0,0.0,0.0,0.0,0.0,0.0,0.0,0.0,0.0,0.0,0.0,0.0,0.0,0.0,0.0,0.0,0.0,0.0,0.0,0.0,0.0,0.0,0.0,0.0,0.0,0.0,0.0,0.0,0.0,0.0,0.0,0.0,0.0,0.0,0.0,0.0,0.0,0.0,0.0,-3.6732,-4.0008,0.0,-4.1802,-4.1871,-4.1595,-4.0353,-3.8008,-3.4318,0.0,0.0,0.0,0.0,0.0,0.0,0.0,0.0,0.0,0.0,0.0,0.0,0.0,0.0,0.0,0.0,0.0,0.0,0.0,0.0,0.0,0.0,0.0,0.0,0.0,0.0,0.0,0.0,0.0,0.0,0.0,0.0,0.0,0.0,0.0,0.0,0.0,0.0,0.0,0.0,0.0,0.0,0.0,0.0,0.0,0.0,0.0,0.0,0.0,0.0,0.0,0.0,0.0,0.0,0.0,0.0,0.0,0.0,0.0,0.0,0.0,0.0,0.0,0.0,0.0,0.0,0.0,0.0,0.0,0.0,0.0,0.0,0.0,0.0,0.0,0.0,0.0,0.0,0.0,0.0,0.0,0.0,0.0,0.0,0.0,0.0,0.0,0.0,0.0,0.0,0.0,0.0,0.0,0.0,0.0,0.0,0.0,0.0,0.0,0.0,0.0,0.0,-3.3283,-3.7387,-4.0629,0.0,-4.2561,-4.2526,-4.2043,-4.0871,-3.8318,-3.3973,0.0,0.0,0.0,0.0,0.0,0.0,0.0,0.0,0.0,0.0,0.0,0.0,0.0,0.0,0.0,0.0,0.0,0.0,0.0,0.0,0.0,0.0,0.0,0.0,0.0,0.0,0.0,0.0,0.0,0.0,0.0,0.0,0.0,0.0,0.0,0.0,0.0,0.0,0.0,0.0,0.0,0.0,0.0,0.0,0.0,0.0,0.0,0.0,0.0,0.0,0.0,0.0,0.0,0.0,0.0,0.0,0.0,0.0,0.0,0.0,0.0,0.0,0.0,0.0,0.0,0.0,0.0,0.0,0.0,0.0,0.0,0.0,0.0,0.0,0.0,0.0,0.0,0.0,0.0,0.0,0.0,0.0,0.0,0.0,0.0,0.0,0.0,0.0,0.0,0.0,0.0,0.0,0.0,0.0,0.0,0.0,0.0,0.0,0.0,0.0,0.0,0.0,-3.4904,-3.9871,-4.3232,-4.3232,-4.3837,-4.3664,-4.2112,-3.9939,-3.7008,0.0,0.0,0.0,0.0,0.0,0.0,0.0,0.0,0.0,0.0,0.0,0.0,0.0,0.0,0.0,0.0,0.0,0.0,0.0,0.0,0.0,0.0,0.0,0.0,0.0,0.0,0.0,0.0,0.0,0.0,0.0,0.0,0.0,0.0,0.0,0.0,0.0,0.0,0.0,0.0,0.0,0.0,0.0,0.0,0.0,0.0,0.0,0.0,0.0,0.0,0.0,0.0,0.0,0.0,0.0,0.0,0.0,0.0,0.0,0.0,0.0,0.0,0.0,0.0,0.0,0.0,0.0,0.0,0.0,0.0,0.0,0.0,0.0,0.0,0.0,0.0,0.0,0.0,0.0,0.0,0.0,0.0,0.0,0.0,0.0,0.0,0.0,0.0,0.0,0.0,0.0,0.0,0.0,0.0,0.0,0.0,0.0,0.0,0.0,0.0,0.0,0.0,0.0,-3.4904,-3.9871,-4.3439,-4.3957,-4.4147,-4.3871,-4.2906,-4.1698,-3.8905,-3.4042,0.0,0.0,0.0,0.0,0.0,0.0,0.0,0.0,0.0,0.0,0.0,0.0,0.0,0.0,0.0,0.0,0.0,0.0,0.0,0.0,0.0,0.0,0.0,0.0,0.0,0.0,0.0,0.0,0.0,0.0,0.0,0.0,0.0,0.0,0.0,0.0,0.0,0.0,0.0,0.0,0.0,0.0,0.0,0.0,0.0,0.0,0.0,0.0,0.0,0.0,0.0,0.0,0.0,0.0,0.0,0.0,0.0,0.0,0.0,0.0,0.0,0.0,0.0,0.0,0.0,0.0,0.0,0.0,0.0,0.0,0.0,0.0,0.0,0.0,0.0,0.0,0.0,0.0,0.0,0.0,0.0,0.0,0.0,0.0,0.0,0.0,0.0,0.0,0.0,0.0,0.0,0.0,0.0,0.0,0.0,0.0,0.0,0.0,0.0,0.0,0.0,0.0,-3.5732,-4.0491,-4.3906,-4.4665,-4.501,-4.4768,-4.3749,-4.2906,-4.0181,-3.4869,0.0,0.0,0.0,0.0,0.0,0.0,0.0,0.0,0.0,0.0,0.0,0.0,0.0,0.0,0.0,0.0,0.0,0.0,0.0,0.0,0.0,0.0,0.0,0.0,0.0,0.0,0.0,0.0,0.0,0.0,0.0,0.0,0.0,0.0,0.0,0.0,0.0,0.0,0.0,0.0,0.0,0.0,0.0,0.0,0.0,0.0,0.0,0.0,0.0,0.0,0.0,0.0,0.0,0.0,0.0,0.0,0.0,0.0,0.0,0.0,0.0,0.0,0.0,0.0,0.0,0.0,0.0,0.0,0.0,0.0,0.0,0.0,0.0,0.0,0.0,0.0,0.0,0.0,0.0,0.0,0.0,0.0,0.0,0.0,0.0,0.0,0.0,0.0,0.0,0.0,0.0,0.0,0.0,0.0,0.0,0.0,0.0,0.0,0.0,0.0,0.0,0.0,-3.7111,-4.1561,-4.4699,-4.5561,-4.6286,-4.6079,-4.4527,-4.3768,-4.1112,-3.5835,0.0,0.0,0.0,0.0,0.0,0.0,0.0,0.0,0.0,0.0,0.0,0.0,0.0,0.0,0.0,0.0,0.0,0.0,0.0,0.0,0.0,0.0,0.0,0.0,0.0,0.0,0.0,0.0,0.0,0.0,0.0,0.0,0.0,0.0,0.0,0.0,0.0,0.0,0.0,0.0,0.0,0.0,0.0,0.0,0.0,0.0,0.0,0.0,0.0,0.0,0.0,0.0,0.0,0.0,0.0,0.0,0.0,0.0,0.0,0.0,-3.097,0.0,0.0,0.0,0.0,0.0,0.0,0.0,0.0,0.0,0.0,0.0,0.0,0.0,0.0,0.0,0.0,0.0,0.0,0.0,0.0,0.0,0.0,0.0,0.0,0.0,0.0,0.0,0.0,0.0,0.0,0.0,0.0,0.0,0.0,0.0,0.0,0.0,0.0,0.0,0.0,0.0,-3.787,-4.2354,-4.5699,-4.7079,-4.7389,-4.6837,-4.532,-4.5044,-4.2906,-3.818,-3.5732,0.0,0.0,0.0,0.0,0.0,0.0,0.0,0.0,0.0,0.0,0.0,0.0,0.0,0.0,0.0,0.0,0.0,0.0,0.0,0.0,0.0,0.0,0.0,0.0,0.0,0.0,0.0,0.0,0.0,0.0,0.0,0.0,0.0,0.0,0.0,0.0,0.0,0.0,0.0,0.0,0.0,0.0,0.0,0.0,0.0,0.0,0.0,0.0,0.0,0.0,0.0,0.0,0.0,0.0,0.0,0.0,0.0,0.0,0.0,0.0,-3.3108,0.0,0.0,0.0,0.0,0.0,0.0,0.0,0.0,0.0,0.0,0.0,0.0,0.0,0.0,0.0,0.0,0.0,0.0,0.0,0.0,0.0,0.0,0.0,0.0,0.0,0.0,0.0,0.0,0.0,0.0,0.0,0.0,0.0,0.0,0.0,0.0,0.0,0.0,0.0,0.0,-3.9146,-4.3388,-4.6424,-4.7596,-4.8045,-4.7769,-4.6631,-4.5837,-4.394,-4.0422,-3.7732,0.0,0.0,0.0,0.0,0.0,0.0,0.0,0.0,0.0,0.0,0.0,0.0,0.0,0.0,0.0,0.0,0.0,0.0,0.0,0.0,0.0,0.0,0.0,0.0,0.0,0.0,0.0,0.0,0.0,0.0,0.0,0.0,0.0,0.0,0.0,0.0,0.0,0.0,0.0,0.0,0.0,0.0,0.0,0.0,0.0,0.0,0.0,0.0,0.0,0.0,0.0,0.0,0.0,0.0,0.0,-4.1969,-4.1969,-4.2271,-4.2633,-3.8738,-3.756,-3.8304,0.0,0.0,0.0,0.0,0.0,0.0,0.0,0.0,0.0,0.0,0.0,0.0,0.0,0.0,0.0,0.0,0.0,0.0,0.0,0.0,0.0,0.0,0.0,0.0,0.0,-4.1677,-4.214,0.0,0.0,0.0,0.0,0.0,0.0,0.0,0.0,0.0,0.0,0.0,0.0,-4.0698,-4.463,-4.7286,-4.8045,-4.8665,-4.8734,-4.7976,-4.6734,-4.5044,-4.2733,-4.0008,-3.7111,0.0,0.0,0.0,0.0,0.0,0.0,0.0,0.0,0.0,0.0,0.0,0.0,0.0,0.0,0.0,0.0,0.0,0.0,0.0,0.0,0.0,0.0,0.0,0.0,0.0,0.0,0.0,0.0,0.0,0.0,0.0,0.0,-2.7906,-2.9962,0.0,0.0,0.0,0.0,0.0,0.0,0.0,0.0,0.0,0.0,0.0,0.0,0.0,0.0,-4.0142,-4.1186,-4.22,-4.3159,-4.426,-4.5141,-4.5881,-4.5881,-4.6251,-4.6788,-4.6142,0.0,-4.1086,-3.9079,0.0,0.0,0.0,0.0,0.0,0.0,0.0,0.0,0.0,0.0,0.0,0.0,0.0,0.0,0.0,0.0,0.0,0.0,0.0,0.0,0.0,0.0,-4.4809,-4.4721,-4.5522,-4.5896,0.0,-3.9733,-3.549,-3.3697,0.0,0.0,0.0,0.0,0.0,0.0,0.0,0.0,-4.2354,-4.6182,-4.8838,-4.9631,-4.9804,-4.9528,-4.8734,-4.8493,-4.7389,-4.5113,-4.3354,-4.1043,-3.7974,-3.5766,0.0,0.0,0.0,0.0,0.0,0.0,0.0,0.0,0.0,0.0,0.0,0.0,0.0,0.0,0.0,0.0,0.0,0.0,0.0,0.0,0.0,0.0,0.0,0.0,0.0,0.0,0.0,0.0,0.0,-2.9452,-3.2029,-3.2551,-3.3287,-3.3319,0.0,0.0,0.0,0.0,0.0,0.0,0.0,0.0,0.0,-4.1435,-4.1977,-4.3046,-4.4706,-4.5248,-4.622,-4.7669,-4.7804,-4.845,-4.9466,-4.9066,-4.9066,-4.9374,-4.9743,-4.8696,-4.6559,-4.3902,-4.1922,-4.0572,0.0,0.0,0.0,0.0,0.0,-3.9566,-4.052,0.0,0.0,0.0,0.0,0.0,0.0,0.0,0.0,0.0,0.0,0.0,0.0,0.0,0.0,-4.7502,-4.8726,-4.9513,-4.8371,-4.5612,-4.2518,0.0,-3.8014,-3.6068,-3.3106,0.0,0.0,0.0,0.0,0.0,-4.5251,-4.8286,-5.0252,-5.0597,-5.0631,-5.0321,-4.9562,-4.9079,-4.8217,-4.6803,-4.5285,-4.3457,-4.125,-3.8939,-3.6318,0.0,0.0,0.0,0.0,0.0,0.0,0.0,0.0,0.0,0.0,0.0,0.0,0.0,0.0,0.0,0.0,0.0,0.0,0.0,0.0,0.0,0.0,0.0,0.0,0.0,0.0,0.0,0.0,-3.3253,-3.543,-3.5143,-3.6695,-3.7065,0.0,0.0,0.0,0.0,0.0,0.0,-4.0795,-4.131,-4.2621,-4.4939,-4.5681,-4.6916,-4.8635,-4.8666,-4.9589,-5.1467,-5.0944,-5.1344,-5.2452,-5.1959,-5.1713,-5.1744,-5.2267,-5.2082,-5.1221,-4.8152,-4.5988,-4.4589,-4.385,-4.3405,-4.3197,-4.3427,-4.37,-4.4039,-4.5104,-4.5495,-4.5279,-4.392,0.0,-4.1303,-3.8776,0.0,0.0,0.0,0.0,-4.3047,-4.4649,-4.6903,-4.8928,-4.942,-5.1024,-5.2101,-5.0624,-4.9821,-4.8422,0.0,-4.3314,-4.1289,-3.7644,0.0,0.0,0.0,0.0,-4.4423,-4.7872,-5.0114,-5.139,-5.139,-5.139,-5.108,-5.0355,-4.9735,-4.901,-4.8045,-4.6906,-4.5527,-4.3802,-4.2078,-3.9629,-3.6422,0.0,0.0,0.0,0.0,0.0,0.0,0.0,0.0,0.0,0.0,0.0,0.0,0.0,0.0,0.0,0.0,0.0,0.0,0.0,0.0,0.0,0.0,0.0,0.0,0.0,0.0,0.0,0.0,0.0,-3.7717,-3.9458,0.0,0.0,0.0,0.0,-3.9807,-4.0956,-4.2536,-4.444,-4.5246,-4.6422,-4.8296,-4.9066,-5.0082,-5.1498,-5.1498,-5.2206,-5.356,-5.3529,-5.3899,-5.4576,-5.4545,-5.4514,-5.4514,-5.4576,-5.4206,-5.3345,-5.0605,-4.8831,-4.757,-4.6207,-4.5353,-4.5005,-4.5508,-4.6114,-4.6795,-4.7269,-4.7465,-4.7558,-4.8081,-4.659,-4.4533,-4.4131,-4.3043,0.0,0.0,-4.4464,-4.6031,-4.8167,-4.9861,-5.1041,-5.1002,-5.2179,-5.2908,-5.1386,-5.1086,-5.0392,0.0,-4.6836,-4.5964,-4.4989,0.0,-4.4078,-4.4837,-4.5768,-4.7217,-4.9597,-5.1218,-5.2149,-5.2149,-5.2149,-5.1873,-5.1114,-5.1011,-5.0355,-4.8872,-4.87,-4.7631,-4.5389,-4.5216,-4.3354,-3.956,-3.718,0.0,0.0,0.0,0.0,0.0,0.0,0.0,0.0,0.0,0.0,0.0,0.0,0.0,0.0,0.0,0.0,0.0,0.0,0.0,0.0,0.0,0.0,0.0,0.0,0.0,0.0,0.0,0.0,-4.0489,-4.2248,0.0,0.0,-4.1852,-4.2767,-4.3665,-4.4489,-4.5866,-4.7824,-4.8594,-4.9704,-5.119,-5.1929,-5.2729,-5.3652,-5.4052,-5.473,-5.5684,-5.5684,-5.6023,-5.6669,-5.6238,-5.6053,-5.6053,-5.6515,-5.63,-5.5622,-5.5099,-5.3314,-5.0938,-5.0444,-5.0105,-5.0005,-5.0167,-5.0414,-5.066,-5.082,-5.0605,-5.0143,-4.9497,-4.8327,-4.7287,-4.7512,-4.7465,-4.7574,-4.8211,-4.9047,-4.9979,-5.077,-5.1682,-5.2476,-5.243,-5.3189,-5.3717,-5.2778,-5.2521,-5.232,-5.1494,-5.0033,-4.8591,-4.7761,-4.7389,-4.7286,-4.7562,-4.87,-5.0149,-5.1977,-5.308,-5.3494,-5.3011,-5.2977,-5.2459,-5.1218,-5.1114,-5.0459,-4.8907,-4.8355,-4.7527,-4.6251,-4.5216,-4.3561,-4.1216,-3.8939,-3.5904,0.0,0.0,0.0,0.0,0.0,0.0,0.0,0.0,0.0,0.0,0.0,0.0,0.0,0.0,0.0,0.0,0.0,0.0,0.0,0.0,0.0,0.0,0.0,0.0,0.0,0.0,-4.2364,-4.3012,-4.506,-4.5912,-4.4557,-4.5277,-4.6237,-4.7379,-4.8009,-4.9127,-5.0944,-5.1682,-5.2575,-5.3683,-5.4391,-5.5068,-5.5745,-5.6176,-5.6761,-5.7438,-5.7438,-5.7685,-5.8085,-5.7654,-5.7438,-5.7469,-5.7931,-5.7869,-5.7469,-5.7931,-5.6792,-5.4699,-5.3991,-5.3591,-5.3375,-5.3375,-5.3375,-5.3375,-5.3375,-5.2944,-5.2236,-5.1344,-5.0574,-5.0074,-5.0412,-5.0891,-5.1434,-5.1769,-5.2124,-5.2365,-5.2365,-5.2829,-5.3082,-5.2877,-5.3596,-5.4113,-5.3428,-5.3699,-5.4004,-5.3822,-5.2367,-5.1031,-5.0445,-5.0355,-5.0355,-5.0355,-5.1218,-5.2356,-5.3632,-5.4218,-5.4322,-5.3839,-5.377,-5.3253,-5.1977,-5.1425,-5.0562,-4.9286,-4.8045,-4.701,-4.6251,-4.4975,-4.3561,-4.2009,-3.9491,-3.6732,-3.3662,0.0,0.0,0.0,0.0,0.0,0.0,0.0,0.0,0.0,0.0,0.0,0.0,0.0,0.0,0.0,0.0,0.0,0.0,0.0,0.0,0.0,0.0,0.0,-3.9692,-4.2716,-4.4922,-4.521,-4.7954,-4.9057,-4.7243,-4.8718,-5.0082,-5.0759,-5.1436,-5.2421,-5.3745,-5.4453,-5.5099,-5.5745,-5.6453,-5.7131,-5.7808,-5.7839,-5.8208,-5.8854,-5.8885,-5.8916,-5.8916,-5.8916,-5.8885,-5.8885,-5.8885,-5.8854,-5.8854,-5.8854,-5.8824,-5.8608,-5.6577,-5.5407,-5.4853,-5.4853,-5.4853,-5.4853,-5.4822,-5.436,-5.3806,-5.3775,-5.3314,-5.276,-5.2997,-5.3264,-5.3528,-5.3702,-5.3521,-5.3218,-5.3186,-5.3309,-5.3085,-5.2327,-5.3304,-5.427,-5.3584,-5.4575,-5.5448,-5.4703,-5.3991,-5.3513,-5.3438,-5.3425,-5.3425,-5.3425,-5.3425,0.0,-5.4425,-5.4494,-5.4494,-5.4494,-5.4494,-5.4218,-5.346,-5.2011,-5.0804,-5.0011,-4.7872,-4.6251,-4.5405,-4.4699,-4.3561,-4.2043,-3.9112,-3.6835,-3.5249,0.0,0.0,0.0,0.0,0.0,0.0,0.0,0.0,0.0,0.0,0.0,0.0,0.0,0.0,0.0,0.0,0.0,0.0,0.0,0.0,0.0,0.0,-4.32,-4.3345,-4.4953,-4.6683,-4.8275,-5.0074,-5.0913,-5.0444,-5.1713,-5.2883,-5.356,-5.4237,-5.4976,-5.5869,-5.6577,-5.7008,-5.7192,-5.7869,-5.83,-5.8485,-5.947,-6.0055,-6.024,-6.1255,-6.1717,-6.1717,-6.1717,-6.144,-6.0978,-6.0978,-6.0701,-6.024,-6.024,-5.9963,-5.9408,-5.8331,-5.7839,-5.7654,-5.7654,-5.7654,-5.7531,-5.6546,-5.6084,-5.5776,-5.4791,-5.4422,-5.4451,-5.4543,-5.4785,-5.5291,-5.593,-5.578,-5.551,-5.6135,-5.5837,-5.5325,-5.5204,-5.5539,-5.581,-5.5755,-5.6107,-5.6331,-5.6199,-5.6024,-5.5541,-5.4362,-5.4218,-5.4218,-5.4218,-5.4218,0.0,-5.4494,-5.4494,-5.4494,-5.4494,-5.4494,-5.4218,-5.346,-5.2494,-5.1114,-4.9252,-4.7562,-4.6251,-4.5405,-4.4699,-4.3837,-4.2871,-4.094,-3.8939,0.0,0.0,0.0,0.0,0.0,0.0,0.0,0.0,0.0,0.0,0.0,0.0,0.0,0.0,0.0,0.0,0.0,0.0,0.0,0.0,0.0,0.0,-4.4322,-4.6775,-4.7916,-4.8502,-4.9281,-5.079,-5.2144,-5.3098,-5.3375,-5.4083,-5.4945,-5.593,-5.6361,-5.6854,-5.7562,-5.8516,-5.9039,-5.9039,-5.9963,-6.0486,-6.0486,-6.1255,-6.1656,-6.1656,-6.2456,-6.2825,-6.2825,-6.2825,-6.261,0.0,-6.224,-6.2025,-6.1656,-6.1656,-6.1409,0.0,0.0,0.0,0.0,0.0,-5.8793,-5.867,-5.7869,-5.7623,-5.7469,-5.6669,-5.6334,-5.6308,-5.6371,-5.6435,-5.6738,-5.7716,-5.7292,-5.6867,-5.7764,-5.7053,-5.6328,-5.6711,-5.7116,-5.7442,-5.7588,-5.7895,-5.7943,-5.7394,0.0,0.0,-5.5667,-5.5184,-5.4977,-5.4977,-5.4701,-5.4494,-5.4494,-5.4494,-5.4494,-5.4494,-5.4494,-5.4356,-5.3908,-5.2839,0.0,0.0,0.0,-4.6424,-4.501,-4.4527,0.0,0.0,0.0,0.0,0.0,0.0,0.0,0.0,-3.8525,-3.8318,0.0,0.0,0.0,0.0,0.0,0.0,0.0,0.0,0.0,0.0,0.0,0.0,0.0,0.0,0.0,0.0,-4.7762,-5.002,-5.2667,-5.2606,-5.2452,-5.2975,-5.4237,-5.5315,-5.5899,-5.6023,-5.6607,-5.7993,-5.8116,-5.8423,-5.9193,0.0,0.0,0.0,0.0,-6.2825,-6.2825,-6.2887,-6.2918,-6.2918,-6.301,-6.3041,-6.3041,-6.3041,-6.301,-6.2918,-6.2918,-6.2887,-6.2825,-6.2825,-6.2825,-6.2641,-6.0824,-5.9747,-5.9224,-5.9162,-5.9131,0.0,0.0,0.0,0.0,-5.8793,-5.8362,-5.7999,-5.8133,-5.8021,-5.7966,-5.9191,-5.862,-5.7783,-5.8777,-5.7859,-5.6878,-5.7441,-5.8331,-5.9097,-5.9051,-5.9686,-5.9875,-5.8426,-5.815,-5.7909,-5.7185,-5.6322,-5.577,-5.577,-5.5184,-5.4736,-5.4632,-5.4632,-5.4598,-5.4529,0.0,0.0,-5.4494,-5.3184,-5.2046,-5.1287,-4.9183,-4.701,-4.4872,-4.4872,-4.4872,-4.4803,-4.5561,-4.6251,-4.6872,-4.8252,-4.8665,-4.7976,-4.2354,-4.1561,0.0,0.0,0.0,0.0,0.0,0.0,0.0,0.0,0.0,0.0,0.0,0.0,0.0,0.0,0.0,-4.77,-5.0205,-5.2667,-5.4853,-5.553,-5.5622,-5.5161,-5.633,-5.7223,-5.7377,-5.7869,-5.8731,-6.0116,-6.0209,-6.0763,-6.1963,-6.2271,0.0,-6.2425,-6.2671,-6.2825,-6.2825,-6.3349,-6.3626,-6.3626,0.0,0.0,-6.4487,-6.4487,-6.418,-6.3626,-6.3626,-6.3318,-6.2825,-6.2825,-6.2825,-6.2764,-6.2394,-6.2148,-6.1963,-6.144,-6.1225,-6.1071,-5.9963,-5.9593,-5.9501,-5.8947,-5.89,-5.8876,-5.8677,-5.9078,0.0,-6.1239,-6.0842,-6.0178,-6.1192,-6.075,-5.969,-5.8572,-5.9547,-6.0459,-5.9903,-6.0437,-6.0806,-5.9944,-5.9771,-5.9495,-5.8737,-5.746,-5.6564,-5.6564,-5.646,-5.6115,-5.5495,-5.5391,-5.5184,-5.4563,-5.4494,-5.4494,-5.4494,-5.3701,-5.2839,-5.2046,-5.0459,-4.9079,-4.7976,-4.8562,-4.8596,-4.7941,-4.8734,-4.8872,-4.839,-4.9321,-5.0011,-5.039,-4.7976,-4.7217,0.0,0.0,0.0,0.0,0.0,0.0,0.0,0.0,0.0,0.0,0.0,-4.1868,0.0,0.0,-4.8594,-5.1251,-5.3098,-5.4791,-5.6515,-5.7623,-5.79,-5.6854,-5.7654,-5.8547,-5.9224,-5.9593,-6.0363,-6.1717,-6.1809,-6.2086,-6.2764,-6.3133,-6.3318,-6.3318,-6.3656,-6.3872,-6.3872,-6.418,-6.4364,-6.4364,-6.4734,-6.4888,-6.4888,-6.4888,-6.4703,-6.4364,-6.4364,-6.418,-6.3872,-6.3872,-6.3872,-6.3872,-6.3872,-6.3441,-6.2764,-6.2425,-6.2302,-6.221,-6.1532,-6.1071,-6.0763,-6.0393,-5.9941,-5.9487,-5.9487,-5.9539,-5.9815,-6.1418,-6.1433,-6.1264,-6.2319,-6.2047,-6.1384,-6.102,-6.1307,-6.1656,-6.132,-6.1586,-6.1668,-6.0909,-6.0737,-6.0496,-5.9737,-5.8978,-5.8254,-5.746,-5.7047,-5.6667,-5.6253,-5.6219,-5.6081,-5.5701,-5.5288,-5.5046,-5.5046,-5.4046,-5.3218,-5.2839,-5.1735,-5.0769,-5.0011,-5.0355,-5.039,-4.9976,-5.0735,-5.1114,-5.1114,-5.1873,-5.2459,-5.2804,-5.2011,-5.1459,0.0,0.0,0.0,0.0,0.0,0.0,0.0,0.0,-3.9477,-4.1131,-4.3448,-4.5804,-4.7997,-4.9643,-5.159,-5.4453,-5.5592,-5.6577,-5.7962,-5.9101,-5.9439,-5.8485,-5.8947,-5.9809,-6.0886,-6.1101,-6.1686,-6.2918,-6.301,-6.3071,-6.3225,-6.3749,-6.4026,-6.4026,-6.458,-6.4888,-6.4888,-6.4888,-6.4888,-6.4888,-6.4888,-6.4888,-6.4888,-6.4888,-6.4888,-6.4888,-6.4888,-6.4888,-6.4888,-6.4888,-6.4888,-6.4888,-6.4888,-6.421,-6.3195,-6.3071,-6.301,-6.301,-6.2856,-6.2456,-6.1994,-6.1994,-6.1194,-6.0178,-6.0484,-6.0121,-5.9861,-6.1216,-6.1556,-6.1827,-6.2782,-6.269,-6.233,-6.2716,-6.267,-6.2503,-6.2385,-6.2552,-6.2461,-6.1668,-6.153,-6.1289,-6.053,-6.0427,-5.9875,-5.8357,-5.7598,-5.7185,-5.7047,-5.7012,-5.6978,-5.6805,-5.6219,-5.5839,-5.5839,-5.4736,-5.4011,-5.3839,-5.3218,-5.2563,-5.1804,-5.177,-5.177,-5.177,-5.2356,-5.2977,-5.3632,-5.4218,-5.4563,-5.4736,-5.4736,-5.4322,-3.6107,-3.5091,0.0,-3.7246,-3.7554,-3.8508,0.0,0.0,-4.4401,-4.6374,-4.8389,-4.9989,-5.0297,-5.2452,-5.4483,-5.5438,-5.67,-5.8023,-5.9378,-5.9686,-5.9963,-6.0393,-6.1071,-6.1532,-6.1686,-6.224,-6.2918,-6.3656,-6.3718,-6.3995,-6.4641,-6.4734,-6.4764,-6.4764,-6.4857,-6.4888,-6.4888,-6.4888,-6.4888,-6.4888,-6.4888,-6.4888,-6.4888,-6.4888,-6.4888,-6.4888,-6.4888,-6.4888,-6.4888,-6.4888,-6.4888,-6.4888,-6.4888,-6.4795,-6.458,-6.3964,-6.3718,-6.3626,-6.3041,-6.2764,-6.2702,-6.2702,-6.221,-6.1594,-6.1594,-6.1309,-6.1263,-6.2426,-6.2554,-6.226,-6.2723,-6.2835,-6.2541,-6.0953,-6.1982,-6.2986,-6.2232,-6.2775,-6.3255,-6.2496,-6.2358,-6.2117,-6.1323,-6.1185,-6.0668,-5.9116,-5.8806,-5.853,-5.7874,-5.7771,-5.7529,-5.6874,-5.6736,-5.6667,-5.6667,-5.6495,-5.6115,-5.5426,-5.5288,-5.4908,-5.4149,-5.4115,-5.4115,-5.4115,-5.4218,-5.4287,-5.4391,-5.446,-5.4839,-5.5495,-5.5495,-5.5081,-3.9524,0.0,0.0,0.0,-4.1555,-4.3279,-4.5157,-4.6296,-4.7404,-4.9066,-5.0728,-5.2113,-5.2883,-5.4607,-5.6269,0.0,-5.83,-5.9285,-6.024,-6.0363,-6.0332,-6.0209,-6.1163,-6.1963,-6.2364,-6.301,-6.3687,-6.4395,-6.4457,-6.458,-6.4888,-6.4888,-6.4888,-6.4888,-6.4888,-6.4888,-6.4888,-6.4888,-6.4888,-6.4888,-6.4888,-6.4888,-6.4888,-6.4888,-6.4888,-6.4888,-6.4888,-6.4888,-6.4888,-6.4888,-6.4888,-6.4888,-6.4888,-6.4888,-6.4857,-6.4549,-6.4457,-6.4395,-6.4118,-6.3749,-6.341,-6.341,-6.2948,-6.2394,-6.2394,-6.2038,-6.1691,-6.2347,-6.258,-6.2811,-6.3127,-6.3857,-6.4337,-6.3562,-6.4135,-6.4606,-6.3702,-6.3939,-6.4014,-6.3289,-6.3117,-6.2875,-6.2117,-6.1979,-6.1634,-6.0496,-5.9978,-5.9426,-5.8633,-5.8564,-5.8254,-5.7529,-5.746,-5.7253,-5.684,-5.6805,-5.6667,-5.6322,-5.6322,-5.615,-5.5839,-5.5839,-5.5839,-5.5839,-5.5839,-5.5839,-5.5839,-5.5839,-5.6012,-5.6322,-5.6322,-5.615,-4.1124,0.0,0.0,-4.2509,-4.4818,-4.685,-4.6726,-4.8296,-5.002,-5.1036,-5.2483,-5.3837,-5.4822,-5.6269,0.0,-5.8608,-5.9655,-6.0455,-6.0763,-6.0794,-6.0547,-5.987,-6.0671,-6.1502,-6.221,-6.3195,-6.4118,-6.4826,-6.4888,-6.4888,-6.4888,-6.4888,-6.4888,-6.4888,-6.4888,-6.4888,-6.4888,-6.4888,-6.4888,-6.4888,-6.4888,-6.4888,-6.4888,-6.4888,-6.4888,-6.4888,-6.4888,-6.4888,-6.4888,-6.4888,-6.4888,-6.4888,-6.4888,-6.4888,-6.4888,-6.4888,-6.4888,-6.4888,-6.4888,-6.4549,-6.4118,-6.4118,-6.3656,-6.3102,-6.3102,-6.2641,-6.2056,-6.2186,-6.2714,-6.3195,-6.342,-6.4449,-6.548,-6.548,-6.5685,-6.5705,-6.5044,-6.5,-6.4807,-6.4048,-6.391,-6.3669,-6.291,-6.2806,-6.253,-6.1737,-6.1185,-6.053,-5.9737,-5.9461,-5.915,-5.8599,-5.8357,-5.8012,-5.746,-5.7426,-5.7322,-5.7116,-5.7116,-5.7012,-5.6805,-5.6805,-5.6805,-5.6805,-5.6805,-5.6805,-5.6805,-5.6805,-5.6909,-5.7116,-5.7116,-5.7219,0.0,0.0,-4.2232,-4.4818,-4.6542,-4.7927,-4.9251,-5.1128,-5.2606,-5.2637,-5.4237,-5.5622,-5.5653,-5.7346,-5.8731,-5.8762,-6.0455,-6.1532,-6.0886,-6.0794,-6.0547,-5.987,-5.9839,-6.0116,0.0,-6.2641,-6.4118,-6.4826,-6.4888,-6.4888,-6.4888,-6.4888,-6.4888,-6.4888,-6.4888,-6.4888,-6.4888,-6.4888,-6.4888,-6.4888,-6.4888,-6.4888,-6.4888,-6.4888,-6.4888,-6.4888,-6.4888,-6.4888,-6.4888,-6.4888,-6.4888,-6.4888,-6.4888,-6.4888,-6.4888,-6.4888,-6.4888,-6.4888,-6.4888,-6.4888,-6.4857,-6.4857,-6.4364,-6.381,-6.381,-6.3318,-6.2641,-6.231,-6.2856,-6.3638,-6.3549,-6.4235,-6.5057,-6.526,-6.5511,-6.5561,-6.5561,-6.5744,-6.56,-6.4807,-6.4669,-6.4427,-6.3669,-6.3565,-6.3324,-6.2565,-6.2427,-6.2117,-6.1323,-6.0599,-6.0151,-6.0116,-5.9426,-5.8978,-5.8944,-5.8944,-5.8633,-5.7909,-5.7874,-5.7564,-5.684,-5.6805,-5.6805,-5.6805,-5.6805,-5.6805,-5.6805,-5.6805,-5.7185,-5.7874,-5.7874,-5.8254,0.0,0.0,-4.5341,-4.7157,-4.8974,-5.0574,-5.1498,-5.2575,-5.3498,-5.396,-5.4576,-5.5068,-5.5068,-5.6361,-5.7592,-5.8023,-5.9809,-6.1071,-6.0824,-6.1563,-6.1379,-5.9347,-6.0301,0.0,0.0,0.0,0.0,-6.4149,-6.4641,-6.4888,-6.4888,-6.4888,-6.4888,-6.4888,-6.4888,-6.4888,-6.4888,-6.4888,-6.4888,-6.4888,-6.4888,-6.4888,-6.4888,-6.4888,-6.4888,-6.4888,-6.4888,-6.4888,-6.4888,-6.4888,-6.4888,-6.4888,-6.4888,-6.4888,-6.4888,-6.4888,-6.4888,-6.4888,-6.4888,-6.4888,-6.4888,-6.4888,-6.4734,-6.4628,-6.5326,-6.5145,-6.4758,-6.5464,-6.574,-6.5703,-6.5237,-6.5989,-6.6772,-6.6302,-6.6758,-6.7136,-6.6656,-6.6617,-6.6393,-6.5635,-6.5497,-6.5255,-6.4462,-6.4324,-6.4083,-6.3324,-6.2358,-6.1599,-6.1323,-6.1082,-6.0944,-6.0944,-6.0254,-5.9806,-5.9806,-5.9323,-5.8909,-5.8668,-5.8633,-5.853,-5.8288,-5.8254,-5.8254,-5.8254,-5.8254,-5.8254,-5.8254,-5.8254,-5.8392,-5.8633,-5.8633,-5.8771,0.0,-4.5957,-4.7773,-4.962,-5.1251,-5.2606,-5.3283,-5.3775,-5.4145,-5.433,-5.436,-5.4299,-5.4052,-5.4914,-5.6053,-5.7223,-5.9101,-6.0609,-6.1101,-6.1902,-6.1809,-6.0086,-6.0578,0.0,0.0,0.0,0.0,-6.3779,-6.4487,-6.4888,-6.4888,-6.4888,-6.4888,-6.4888,-6.4888,-6.5011,-6.5257,-6.5257,-6.5257,-6.5257,-6.5011,-6.4888,-6.4888,-6.4888,-6.4888,-6.4888,-6.4888,-6.4888,-6.4888,-6.4888,-6.4888,-6.4888,-6.4888,-6.4888,-6.4888,-6.4888,-6.4888,-6.4888,-6.4888,-6.4888,-6.4998,-6.5406,-6.5483,-6.57,-6.6878,-6.6838,-6.6625,-6.733,-6.7611,-6.7586,-6.7098,-6.7732,-6.8455,-6.7823,-6.8096,-6.8325,-6.7566,-6.7394,-6.7152,-6.6428,-6.629,-6.6048,-6.5255,-6.4876,-6.4531,-6.4048,-6.291,-6.2117,-6.2117,-6.1875,-6.1737,-6.1737,-6.1047,-6.0599,-6.0599,-6.0116,-5.984,-5.984,-5.9564,-5.9426,-5.9426,-5.915,-5.9012,-5.9012,-5.9012,-5.9012,-5.9012,-5.9288,-5.9426,-5.9461,-5.9702,-5.984,-4.6203,-4.7773,-4.9466,-5.2144,-5.3283,-5.3929,-5.4576,-5.4699,-5.4483,-5.3775,-5.3591,-5.3345,0.0,0.0,-5.4268,-5.63,-5.8393,-6.027,-6.1625,-6.1902,-6.1933,0.0,0.0,0.0,0.0,0.0,0.0,-6.3779,0.0,-6.4888,-6.4888,-6.4918,-6.4949,-6.4949,-6.498,-6.5319,-6.5965,-6.5965,-6.5965,-6.5934,-6.5288,-6.4949,-6.4949,-6.4918,-6.4888,-6.4888,-6.4888,-6.4888,-6.4888,-6.4888,-6.4888,-6.4888,-6.4888,-6.4888,-6.4888,-6.4888,-6.4888,-6.4998,-6.4998,-6.4998,-6.5108,-6.6205,-6.6491,-6.6774,-6.8039,-6.8503,-6.8373,-6.8074,-6.8666,-6.9357,-6.8884,-6.9442,-7.001,-6.9532,-6.9325,-6.9118,-6.8325,-6.8152,-6.7945,-6.7187,-6.7014,-6.6773,-6.6048,-6.529,-6.4772,-6.4772,-6.4117,-6.3634,-6.36,-6.2979,-6.253,-6.253,-6.1841,-6.1358,-6.1358,-6.1323,-6.1289,-6.1289,-6.0634,-6.0254,-6.0254,-5.953,-5.9116,-5.9116,-5.9116,-5.9116,-5.9116,-5.9875,-6.0254,-6.0254,-6.0978,-6.1289,-4.8327,-5.0236,-5.2082,-5.3806,-5.433,-5.4514,-5.4699,-5.433,-5.3652,-5.2452,-5.2213,-5.1568,0.0,0.0,0.0,-5.4329,-5.7469,0.0,-6.1625,-6.3133,0.0,0.0,0.0,-6.2548,-6.1871,-6.2887,0.0,0.0,-6.4487,-6.4888,-6.4888,-6.538,-6.5657,-6.5657,-6.615,-6.6488,-6.6642,-6.6673,-6.6673,-6.6642,-6.5965,-6.5657,-6.5626,-6.5134,-6.4888,-6.4888,-6.4888,-6.4888,-6.4888,-6.4888,-6.4888,-6.4888,-6.4888,-6.4888,-6.4888,-6.4888,-6.5406,-6.6098,-6.6098,-6.5592,-6.5108,-6.6205,-6.6491,-6.6878,-6.8765,-6.9346,-6.9504,-7.0397,-7.0906,-7.1212,-7.0635,-7.0889,-7.0932,-7.0291,-7.0118,-6.9911,-6.9153,-6.898,-6.8739,-6.798,-6.7359,-6.6945,-6.6738,-6.6083,-6.5566,-6.5566,-6.491,-6.422,-6.3669,-6.3427,-6.3324,-6.3324,-6.2634,-6.2186,-6.2186,-6.1634,-6.1289,-6.1289,-6.1116,-6.1013,-6.1013,-6.084,-6.0703,-6.0703,-6.0703,-6.0703,-6.0703,-6.0909,-6.1013,-6.1013,-6.122,-6.1536,-5.0451,-5.2483,-5.4206,-5.4976,-5.5161,-5.5007,-5.4422,-5.3529,-5.2264,-5.0235,-4.9922,0.0,0.0,0.0,0.0,0.0,0.0,0.0,-6.1933,-6.3502,-6.4118,0.0,-6.3564,0.0,-6.3195,-6.3841,-6.4303,0.0,0.0,-6.5042,-6.5319,-6.5719,-6.6027,-6.6334,-6.6704,-6.7042,-6.735,-6.735,-6.735,-6.735,-6.6673,-6.618,-6.5903,-6.5503,-6.5165,-6.4888,0.0,-6.4888,-6.4888,-6.4888,-6.4888,-6.4888,-6.4888,-6.4888,-6.4888,-6.4888,-6.5297,-6.5915,-6.628,-6.6098,-6.5915,-6.7395,-6.7871,-6.8271,-7.0043,-7.0632,-7.0849,-7.1688,-7.2072,-7.2228,-7.1901,-7.1932,-7.1808,-7.105,-7.0877,-7.067,-6.9911,-6.9497,-6.9049,-6.8256,-6.7773,-6.7463,-6.7463,-6.6876,-6.6359,-6.6359,-6.5704,-6.5083,-6.4634,-6.4014,-6.36,-6.36,-6.322,-6.2979,-6.2979,-6.2565,-6.2324,-6.2324,-6.2013,-6.1806,-6.1806,-6.1496,-6.1289,-6.1289,-6.1289,-6.1289,-6.1289,-6.1634,-6.1806,-6.1841,-6.2473,-6.2927,-5.2329,-5.4237,-5.5684,-5.5684,-5.5622,-5.5191,-5.3775,-5.2356,-5.0491,-4.7808,0.0,0.0,-4.468,0.0,-4.941,-5.2156,0.0,-5.8955,-6.2514,-6.3487,-6.4196,-6.5204,-6.4552,-6.421,-6.5046,-6.4998,-6.4888,-6.4888,-6.506,-6.551,-6.5873,-6.5996,-6.6396,-6.7165,-6.7165,-6.7442,-6.8058,-6.8143,-6.8143,-6.8058,-6.7465,-6.6786,-6.6027,-6.5934,-6.5646,-6.5108,0.0,0.0,-6.5297,-6.5297,-6.5297,-6.5297,-6.5297,-6.5297,-6.5297,-6.5297,-6.5406,-6.57,-6.6596,-6.6982,-6.7395,-6.9187,-6.9666,-6.9949,-7.121,-7.1722,-7.1898,-7.2159,-7.2416,-7.2586,-7.2671,-7.2671,-7.2498,-7.1808,-7.1636,-7.1429,-7.0705,-6.9877,-6.9084,-6.8394,-6.8152,-6.8083,-6.8083,-6.7566,-6.7152,-6.7152,-6.6497,-6.6048,-6.6048,-6.4703,-6.3738,-6.3738,-6.3669,-6.36,-6.36,-6.36,-6.36,-6.36,-6.2979,-6.2634,-6.2634,-6.1979,-6.1599,-6.1599,-6.1599,-6.1599,-6.1599,-6.2289,-6.2706,-6.2851,-6.4044,-6.4738,-5.3283,-5.4607,-5.5684,-5.5684,-5.5284,-5.4391,-5.2483,-5.0505,0.0,0.0,0.0,-4.4755,-4.3913,-4.5971,0.0,-5.225,0.0,0.0,0.0,0.0,-6.4782,0.0,0.0,0.0,0.0,0.0,0.0,0.0,0.0,0.0,-6.5903,-6.6427,-6.7289,-6.8489,-6.8551,-6.8612,-6.8735,-6.9683,-6.9683,-6.8705,-6.8995,-6.8308,-6.6735,-6.615,-6.6058,-6.6205,0.0,0.0,-6.7599,-6.7599,-6.7599,-6.7599,-6.7599,-6.7599,-6.7599,-6.7599,-6.8072,-6.8863,-6.909,-6.9699,-7.0389,-6.9888,-6.9666,-6.9888,-7.1007,-7.1401,-7.1491,-7.1688,-7.1864,-7.2159,-7.2331,-7.2501,-7.2636,-7.2498,-7.2464,-7.2257,-7.1463,-7.0222,-6.9256,-6.9118,-6.8532,-6.8083,-6.8083,-6.798,-6.7911,-6.7911,-6.7256,-6.6807,-6.6807,-6.5462,-6.4496,-6.4496,-6.3945,-6.36,-6.36,-6.36,-6.36,-6.36,-6.3462,-6.3393,-6.3393,-6.3289,-6.3186,-6.3186,-6.3186,-6.3186,-6.3186,-6.3324,-6.3722,-6.4218,-6.4462,-6.5237,-5.396,-5.5222,-5.6146,-5.5776,-5.4945,-5.3559,-5.118,0.0,0.0,0.0,0.0,-4.3145,-4.2477,0.0,0.0,0.0,0.0,0.0,0.0,0.0,0.0,0.0,0.0,0.0,0.0,0.0,0.0,0.0,0.0,0.0,0.0,-6.7381,-6.8559,-6.9724,-6.9724,-7.0067,-7.0711,-7.1233,-7.1233,-7.0711,-7.0531,-6.9861,-6.8545,-6.785,-6.7441,-6.7292,-6.7292,0.0,-6.8072,-6.8072,-6.8072,-6.8072,-6.8072,-6.8072,-6.8072,-6.8072,-6.8371,-6.8993,-6.9475,-7.0076,-7.0482,-7.0482,-7.0482,-7.0699,-7.1278,-7.1546,-7.1722,-7.1898,-7.2159,-7.2416,-7.2501,-7.2586,-7.2671,-7.2671,-7.2671,-7.2464,-7.167,-7.0946,-7.0222,-6.9428,-6.898,-6.8566,-6.8152,-6.8083,-6.8083,-6.8083,-6.7807,-6.7566,-6.7566,-6.6566,-6.5738,-6.5359,-6.4634,-6.4152,-6.4152,-6.3807,-6.36,-6.36,-6.36,-6.36,-6.36,-6.36,-6.36,-6.36,-6.36,-6.36,-6.36,-6.3967,-6.4288,-6.4601,-6.5368,-6.6038,-5.4176,-5.5499,-5.6361,-5.5653,-5.4483,-5.2634,-4.9684,-4.746,0.0,0.0,0.0,-4.1822,-4.1673,0.0,0.0,0.0,0.0,0.0,0.0,0.0,0.0,0.0,0.0,0.0,0.0,0.0,0.0,0.0,0.0,0.0,0.0,-6.8559,-6.9641,-7.0599,-7.0822,-7.1342,-7.2314,-7.2526,-7.2461,-7.2087,-7.1714,-7.1,-6.9982,-6.9399,-6.8853,-6.847,-6.847,0.0,0.0,-6.8798,-6.8798,-6.8798,-6.8798,-6.8798,-6.8798,-6.8798,-6.8798,-6.8895,-6.9794,-7.0076,-7.0263,-7.1098,-7.1401,-7.1367,-7.1512,-7.181,-7.2072,-7.2245,-7.2501,-7.2586,-7.2671,-7.2671,-7.2671,-7.2671,-7.2671,-7.2498,-7.1877,-7.1601,-7.1153,-6.998,-6.9497,-6.9084,-6.8463,-6.8221,-6.8083,-6.8083,-6.8083,-6.8083,-6.8083,-6.7566,-6.7014,-6.6428,-6.5497,-6.4945,-6.4945,-6.4255,-6.3841,-6.3841,-6.3669,-6.36,-6.36,-6.36,-6.3639,-6.3785,-6.3785,-6.3895,-6.4039,-6.4532,-6.4905,-6.5074,-6.6161,-6.6794,-5.3622,-5.4791,-5.5622,-5.4976,-5.3806,-5.1744,-4.7762,0.0,0.0,0.0,-4.0382,-4.0915,-4.2861,-4.3423,0.0,0.0,0.0,0.0,0.0,0.0,0.0,0.0,0.0,0.0,0.0,0.0,0.0,0.0,0.0,0.0,0.0,-7.0077,-7.0487,-7.0599,-7.1561,-7.2207,-7.2314,-7.329,-7.2962,-7.1342,-7.2309,-7.1486,-6.9237,-6.9173,-6.9253,-6.9571,0.0,0.0,0.0,-7.1007,-7.1007,-7.1007,-7.1007,-7.1007,-7.1007,-7.1007,-7.1007,-7.1007,-7.1098,-7.1278,-7.1389,-7.1512,-7.16,-7.16,-7.16,-7.181,-7.2072,-7.2245,-7.2331,-7.2416,-7.2671,-7.2671,-7.2671,-7.2671,-7.2671,-7.2671,-7.2602,-7.2015,-7.1463,-7.1325,-7.0222,-6.9256,-6.9187,-6.8566,-6.8083,-6.8083,-6.8083,-6.8083,-6.8083,-6.8049,-6.798,-6.7911,-6.6635,-6.5773,-6.5773,-6.5048,-6.46,-6.46,-6.3979,-6.36,-6.36,-6.36,-6.393,-6.4463,-6.4532,-6.477,-6.5397,-6.5462,-6.5878,-6.65,-6.6618,-6.7061,-5.2698,-5.4083,-5.4945,-5.4299,-5.3117,-5.1246,-4.7927,0.0,0.0,-4.1309,-4.0452,-4.0629,-4.2422,-4.2745,-4.4156,0.0,0.0,0.0,0.0,0.0,0.0,0.0,0.0,0.0,0.0,0.0,0.0,0.0,0.0,0.0,0.0,-7.0575,-7.0823,-7.1981,-7.2396,-7.3239,-7.4306,-7.4335,-7.3967,-7.3242,-7.2763,-7.2061,-7.1047,-7.0648,-7.047,-7.0699,0.0,0.0,0.0,-7.1312,-7.1312,-7.1312,-7.1312,-7.1312,-7.1312,-7.1312,-7.1401,-7.1457,-7.1457,-7.1634,-7.181,-7.181,-7.1898,-7.2038,-7.2038,-7.2072,-7.2245,-7.2501,-7.2501,-7.2586,-7.2671,-7.2671,-7.2671,-7.2671,-7.2671,-7.2671,-7.2671,-7.2429,-7.205,-7.1567,-7.1015,-7.0325,-6.9428,-6.9015,-6.8635,-6.8152,-6.8083,-6.8083,-6.8083,-6.8083,-6.8083,-6.8083,-6.7187,-6.6531,-6.6531,-6.5842,-6.5393,-6.5393,-6.5152,-6.4979,-6.4979,-6.543,-6.5757,-6.604,-6.6489,-6.6856,-6.7118,-6.7501,-6.7847,-6.8186,-6.8575,-6.8896,-5.1585,-5.3098,-5.4022,-5.3529,-5.2635,-5.0862,0.0,0.0,-4.3761,-4.1137,-4.0323,-4.046,-4.1745,-4.2151,-4.344,0.0,0.0,0.0,0.0,0.0,0.0,0.0,0.0,0.0,0.0,0.0,0.0,0.0,0.0,0.0,0.0,0.0,-7.1128,-7.2581,-7.2909,-7.3663,-7.5033,-7.4525,-7.4187,-7.395,-7.2902,-7.2293,-7.2056,-7.1548,-7.1312,-7.1312,0.0,0.0,0.0,-7.1312,-7.1312,-7.1312,-7.1312,-7.1312,-7.1312,-7.1312,-7.1457,-7.16,-7.16,-7.1776,-7.2072,-7.2072,-7.2245,-7.2416,-7.2416,-7.2416,-7.2501,-7.2671,-7.2671,-7.2671,-7.2671,-7.2671,-7.2671,-7.2671,-7.2671,-7.2671,-7.2671,-7.2671,-7.2498,-7.1946,-7.1636,-7.1153,-7.0118,-6.9566,-6.9084,-6.8532,-6.8256,-6.8083,-6.8083,-6.8083,-6.8083,-6.8083,-6.7635,-6.7325,-6.7325,-6.6635,-6.6221,-6.6221,-6.6014,-6.6028,-6.6219,-6.67,-6.7165,-6.7614,-6.8148,-6.8471,-6.8661,-6.9189,-6.9368,-6.9368,-6.9905,-7.011,-5.0128,-5.1713,-5.2729,-5.2729,-5.2262,-5.0529,0.0,-4.4526,-4.3476,-3.9951,-3.9696,-4.0324,-4.1068,-4.1813,-4.3267,-4.6312,0.0,0.0,0.0,0.0,0.0,0.0,0.0,0.0,0.0,0.0,0.0,0.0,0.0,0.0,0.0,0.0,-7.1404,-7.1819,-7.2882,-7.351,-7.351,-7.351,-7.3138,-7.2428,-7.2394,-7.2022,-7.1312,-7.1312,-7.1312,0.0,0.0,0.0,0.0,-7.1312,-7.1312,-7.1312,-7.1312,-7.1312,-7.1312,-7.1312,-7.1457,-7.16,-7.16,-7.1864,-7.2331,-7.2331,-7.2501,-7.2671,-7.2671,-7.2671,-7.2671,-7.2671,-7.2671,-7.2671,-7.2671,-7.2671,-7.2671,-7.2671,-7.2671,-7.2671,-7.2671,-7.2671,-7.2671,-7.2671,-7.2015,-7.1498,-7.1463,-7.0256,-6.9291,-6.9256,-6.8601,-6.8083,-6.8083,-6.8083,-6.8083,-6.8083,-6.8083,-6.8083,-6.8083,-6.7394,-6.698,-6.698,-6.629,-6.6219,-6.6988,-6.6988,-6.7682,-6.9068,-6.9068,-6.9427,-7.011,-7.011,-7.011,-7.011,-7.011,-7.011,-4.7501,-4.917,-5.0454,-4.9423,-4.9074,-4.8167,-4.5114,-4.407,-4.3004,-4.037,-3.9986,-4.0324,-4.1068,-4.1018,-4.2562,-4.7496,-4.8685,0.0,0.0,0.0,0.0,0.0,0.0,0.0,0.0,0.0,0.0,0.0,0.0,0.0,0.0,0.0,-7.157,-7.2203,-7.2549,-7.2969,-7.3477,-7.3003,-7.2631,-7.2394,-7.1887,-7.1548,-7.1312,-7.1312,0.0,0.0,0.0,0.0,0.0,-7.1312,-7.1312,-7.1312,-7.1312,-7.1312,-7.1312,-7.1312,-7.1546,-7.1898,-7.1898,-7.2159,-7.2586,-7.2586,-7.2586,-7.2671,-7.2671,-7.2671,-7.2671,-7.2671,-7.2671,-7.2671,-7.2671,-7.2671,-7.2671,-7.2671,-7.2671,-7.2671,-7.2671,-7.2671,-7.2671,-7.2671,-7.2464,-7.2119,-7.1567,-7.1118,-7.0429,-6.9428,-6.9049,-6.8704,-6.8152,-6.8083,-6.8083,-6.8083,-6.8083,-6.8083,-6.8083,-6.7876,-6.7738,-6.7738,-6.8002,-6.8239,-6.8498,-6.945,-7.0217,-7.0661,-7.1162,-7.1552,-7.1725,-7.1725,-7.1725,-7.1725,-7.1725,-7.1468,0.0,-4.7065,-4.8256,-4.7316,-4.7199,-4.6715,-4.4476,-4.3447,-4.2455,-4.0493,-4.0087,-4.0223,-4.0696,-4.0731,-4.2072,-4.621,-4.7665,0.0,0.0,0.0,0.0,0.0,0.0,0.0,0.0,0.0,0.0,0.0,0.0,0.0,0.0,0.0,-7.1515,-7.1988,-7.1988,-7.2225,-7.2665,-7.2225,-7.1988,-7.1988,-7.1548,-7.1312,-7.1312,-7.1312,0.0,0.0,0.0,0.0,0.0,-7.1312,-7.1312,-7.1312,-7.1312,-7.1312,-7.1312,-7.1312,-7.158,-7.1985,-7.1985,-7.2331,-7.2671,-7.2671,-7.2671,-7.2671,-7.2671,-7.2671,-7.2671,-7.2671,-7.2671,-7.2671,-7.2671,-7.2671,-7.2671,-7.2671,-7.2671,-7.2671,-7.2671,-7.2671,-7.2671,-7.2671,-7.2671,-7.2533,-7.2015,-7.1705,-7.1187,-7.0256,-6.9877,-6.9428,-6.8635,-6.8532,-6.8428,-6.8118,-6.8397,-6.8517,-6.8517,-6.8517,-6.8517,-6.8517,-6.92,-6.9778,-7.006,-7.0937,-7.1547,-7.183,-7.2285,-7.2496,-7.2496,-7.2496,-7.2496,-7.2496,-7.2496,-7.2239,0.0,-4.5075,-4.627,-4.614,-4.6224,-4.5755,-4.3641,-4.2668,0.0,-4.0358,-4.0087,-4.0121,-4.029,-4.09,-4.1936,-4.3538,0.0,0.0,0.0,0.0,0.0,0.0,0.0,0.0,0.0,0.0,0.0,0.0,0.0,0.0,0.0,0.0,0.0,-7.1312,-7.1312,-7.1312,-7.1312,-7.1312,-7.1312,-7.1312,-7.1312,-7.1312,-7.1312,-7.1312,0.0,0.0,0.0,0.0,0.0,-7.1312,-7.1312,-7.1312,-7.1312,-7.1312,-7.1312,-7.1312,-7.158,-7.1985,-7.1985,-7.2331,-7.2671,-7.2671,-7.2671,-7.2671,-7.2671,-7.2671,-7.2671,-7.2671,-7.2671,-7.2671,-7.2671,-7.2671,-7.2671,-7.2671,-7.2671,-7.2671,-7.2671,-7.2671,-7.2671,-7.2671,-7.2671,-7.2671,-7.2671,-7.205,-7.1567,-7.1498,-7.0912,-7.0187,-6.9463,-6.944,-6.9164,-6.8404,-6.9037,-6.9414,-6.9379,-6.9309,-6.9273,-6.9273,-6.9954,-7.074,-7.1359,-7.1422,-7.183,-7.2496,-7.2496,-7.2496,-7.2496,-7.2496,-7.2496,-7.2496,-7.2496,-7.2496,-3.9412,0.0,-4.3872,-4.2847,-4.2937,-4.3081,0.0,-4.1625,0.0,0.0,0.0,0.0,0.0,0.0,0.0,0.0,0.0,0.0,0.0,0.0,0.0,0.0,0.0,0.0,0.0,0.0,0.0,0.0,0.0,0.0,0.0,0.0,0.0,-7.1312,-7.1312,-7.1312,-7.1312,-7.1312,-7.1312,-7.1312,-7.1312,-7.1312,-7.1312,-7.1312,0.0,0.0,0.0,0.0,-7.1312,-7.1312,-7.1312,-7.1312,-7.1312,-7.1312,-7.1312,-7.1312,-7.158,-7.1985,-7.1985,-7.2331,-7.2671,-7.2671,-7.2671,-7.2671,-7.2671,-7.2671,-7.2671,-7.2671,-7.2671,-7.2671,-7.2671,-7.2671,-7.2671,-7.2671,-7.2671,-7.2671,-7.2671,-7.2671,-7.2671,-7.2671,-7.2671,-7.2671,-7.2671,-7.2533,-7.2188,-7.1567,-7.1325,-7.0981,-7.0222,-7.0723,-7.1007,-7.0797,-7.1402,-7.1624,-7.1019,-7.038,-7.0024,-7.0024,-7.0704,-7.1195,-7.1422,-7.1951,-7.2285,-7.2496,-7.2496,-7.2496,-7.2496,-7.2496,-7.2496,-7.2496,-7.2496,-7.2496,-3.7661,-4.0065,-4.2325,-4.1665,-4.1902,-4.2238,0.0,0.0,0.0,0.0,0.0,0.0,0.0,0.0,0.0,0.0,0.0,0.0,0.0,0.0,0.0,0.0,0.0,0.0,0.0,0.0,0.0,0.0,0.0,0.0,0.0,0.0,0.0,0.0,-7.1312,-7.1312,-7.1312,-7.1312,-7.1312,-7.1312,-7.1312,-7.1312,-7.1312,-7.1312,-7.1312,0.0,0.0,0.0,-7.1312,-7.1312,-7.1312,-7.1312,-7.1312,-7.1312,-7.1312,-7.1312,-7.158,-7.1985,-7.1985,-7.2331,-7.2671,-7.2671,-7.2671,-7.2671,-7.2671,-7.2671,-7.2671,-7.2671,-7.2671,-7.2671,-7.2671,-7.2671,-7.2671,-7.2671,-7.2671,-7.2671,-7.2671,-7.2671,-7.2671,-7.2671,-7.2671,-7.2671,-7.2671,-7.2671,-7.2533,-7.2119,-7.205,-7.1905,-7.1514,-7.1847,-7.2056,-7.215,-7.2796,-7.3029,-7.2597,-7.2467,-7.1954,-7.0907,-7.1485,-7.1891,-7.1891,-7.2285,-7.2496,-7.2496,-7.2496,-7.2496,-7.2496,-7.2496,-7.2496,-7.2496,-7.2496,-7.2553,-3.7556,-3.9481,-4.1376,-4.1289,-4.1716,-4.2136,0.0,0.0,0.0,0.0,0.0,0.0,0.0,0.0,0.0,0.0,0.0,0.0,0.0,0.0,0.0,0.0,0.0,0.0,0.0,0.0,0.0,0.0,0.0,0.0,0.0,0.0,0.0,-7.1312,-7.1312,-7.1312,-7.1312,-7.1312,-7.1312,-7.1312,-7.1312,-7.1312,-7.1312,-7.1312,-7.1312,0.0,0.0,0.0,-7.1312,-7.1312,-7.1312,-7.1312,-7.1312,-7.1312,-7.1401,-7.1401,-7.1634,-7.2072,-7.2072,-7.2331,-7.2671,-7.2671,-7.2671,-7.2671,-7.2671,-7.2671,-7.2671,-7.2671,-7.2671,-7.2671,-7.2671,-7.2671,-7.2671,-7.2671,-7.2671,-7.2671,-7.2671,-7.2671,-7.2671,-7.2671,-7.2671,-7.2671,-7.2671,-7.2671,-7.2671,-7.2671,-7.2838,-7.2892,-7.2879,-7.3082,-7.3251,-7.3225,-7.3905,-7.4296,-7.4151,-7.4726,-7.4165,-7.2081,-7.2423,-7.2642,-7.2496,-7.2496,-7.2496,-7.2496,-7.2496,-7.2496,-7.2496,-7.2496,-7.2496,-7.2496,-7.2496,-7.2553,-3.8688,-4.0363,-4.1289,-4.0041,-4.056,-4.1256,0.0,0.0,0.0,0.0,0.0,0.0,0.0,0.0,0.0,0.0,0.0,0.0,0.0,0.0,0.0,0.0,0.0,0.0,0.0,0.0,0.0,0.0,0.0,0.0,0.0,0.0,0.0,-7.1312,-7.1312,-7.1312,-7.1312,-7.1312,-7.1312,-7.1312,-7.1312,-7.1312,-7.1312,-7.1312,-7.1312,0.0,0.0,-7.1312,-7.1312,-7.1312,-7.1312,-7.1312,-7.1312,-7.1367,-7.1512,-7.1512,-7.1864,-7.2331,-7.2501,-7.2671,-7.2671,-7.2671,-7.2671,-7.2671,-7.2671,-7.2671,-7.2671,-7.2671,-7.2671,-7.2671,-7.2671,-7.2671,-7.2671,-7.2671,-7.2671,-7.2671,-7.2671,-7.2671,-7.2671,-7.2671,-7.2671,-7.2671,-7.2671,-7.2671,-7.2671,-7.2671,-7.3229,-7.3606,-7.3659,-7.4832,-7.5679,-7.5638,-7.63,-7.6459,-7.5825,-7.5849,-7.5445,-7.4469,-7.3832,-7.3193,-7.2532,-7.2496,-7.2496,-7.2496,-7.2496,-7.2496,-7.2496,-7.2496,-7.2496,-7.2496,-7.2496,-7.2553,-3.7507,-3.9042,-4.03,-4.0041,-4.1818,-4.3491,0.0,0.0,0.0,0.0,0.0,0.0,0.0,0.0,0.0,0.0,0.0,0.0,0.0,0.0,0.0,0.0,0.0,0.0,0.0,0.0,0.0,0.0,0.0,0.0,0.0,0.0,0.0,0.0,-7.1312,-7.1312,-7.1312,-7.1312,-7.1312,-7.1312,-7.1312,-7.1312,-7.1312,-7.1312,-7.1312,-7.1312,0.0,-7.1312,-7.1312,-7.1312,-7.1401,-7.1457,-7.1457,-7.1634,-7.181,-7.1951,-7.2124,-7.2331,-7.2586,-7.2671,-7.2671,-7.2671,-7.2671,-7.2671,-7.2671,-7.2671,-7.2671,-7.2671,-7.2671,-7.2671,-7.2671,-7.2671,-7.2671,-7.2671,-7.2671,-7.2671,-7.2671,-7.2671,-7.2671,-7.2671,-7.2671,-7.2671,-7.2671,-7.3018,-7.3311,-7.3311,-7.3956,-7.4642,-7.5083,-7.5757,-7.6336,-7.6765,-7.7118,-7.7157,-7.679,-7.6754,-7.624,-7.4992,-7.4147,-7.3523,-7.3156,-7.2716,-7.2496,-7.2496,-7.2496,-7.2496,-7.2496,-7.2496,-7.2553,-7.261,-7.261,-7.2723,-3.7172,-3.8403,-3.9836,0.0,0.0,0.0,0.0,0.0,0.0,0.0,0.0,0.0,0.0,0.0,0.0,0.0,0.0,0.0,0.0,0.0,0.0,0.0,0.0,0.0,0.0,0.0,0.0,0.0,0.0,0.0,0.0,0.0,0.0,0.0,-7.1312,-7.1312,-7.1312,-7.1312,-7.1312,-7.1312,-7.1312,-7.1312,-7.1312,-7.1312,-7.1312,-7.1312,-7.1312,-7.1312,-7.1312,-7.1401,-7.1457,-7.16,-7.1688,-7.1898,-7.2072,-7.2331,-7.2416,-7.2416,-7.2586,-7.2671,-7.2671,-7.2671,-7.2671,-7.2671,-7.2671,-7.2671,-7.2671,-7.2671,-7.2671,-7.2671,-7.2671,-7.2671,-7.2671,-7.2671,-7.2671,-7.2671,-7.2671,-7.2671,-7.2671,-7.2671,-7.2671,-7.2755,-7.297,-7.3472,-7.3799,-7.3799,-7.4642,-7.5441,-7.5826,-7.627,-7.67,-7.7243,-7.7304,-7.7304,-7.7304,-7.7304,-7.679,-7.5542,-7.4551,-7.3964,-7.3964,-7.3193,-7.2789,-7.2789,-7.2606,-7.2496,-7.2496,-7.2496,-7.261,-7.2723,-7.2723,-7.289,-3.9787,-4.0426,-4.0822,0.0,0.0,0.0,0.0,0.0,0.0,0.0,0.0,0.0,0.0,0.0,0.0,0.0,0.0,0.0,0.0,0.0,0.0,0.0,0.0,0.0,0.0,0.0,0.0,0.0,0.0,0.0,0.0,0.0,0.0,0.0,0.0,-7.1312,-7.1312,-7.1312,-7.1312,-7.1312,-7.1312,-7.1312,-7.1312,-7.1312,-7.1312,-7.1312,-7.1312,-7.1312,-7.1312,-7.1546,-7.16,-7.16,-7.1898,-7.2072,-7.2331,-7.2586,-7.2671,-7.2671,-7.2671,-7.2671,-7.2671,-7.2671,-7.2671,-7.2671,-7.2671,-7.2671,-7.2671,-7.2671,-7.2671,-7.2671,-7.2671,-7.2671,-7.2671,-7.2671,-7.2671,-7.2671,-7.2671,-7.2671,-7.2671,-7.2671,-7.2671,-7.2887,-7.3597,-7.3721,-7.3799,-7.3799,-7.5155,-7.5826,-7.5155,-7.63,-7.7243,-7.7304,-7.7304,-7.7304,-7.7304,-7.7304,-7.7268,-7.7157,-7.5689,-7.4808,-7.4808,-7.4037,-7.3597,-7.3597,-7.2899,-7.2496,-7.2496,-7.261,-7.2723,-7.2723,-7.2927,-7.3037,-3.8391,-3.9487,0.0,0.0,0.0,0.0,0.0,0.0,0.0,0.0,0.0,0.0,0.0,0.0,0.0,0.0,0.0,0.0,0.0,0.0,0.0,0.0,0.0,0.0,0.0,0.0,0.0,0.0,0.0,0.0,0.0,0.0,0.0,0.0,0.0,-7.1312,-7.1312,-7.1312,-7.1312,-7.1312,-7.1312,-7.1312,-7.1312,-7.1312,-7.1312,-7.1312,-7.1312,-7.1367,-7.1546,-7.16,-7.1776,-7.2038,-7.2331,-7.2501,-7.2586,-7.2671,-7.2671,-7.2671,-7.2671,-7.2671,-7.2671,-7.2671,-7.2671,-7.2671,-7.2671,-7.2671,-7.2671,-7.2671,-7.2671,-7.2671,-7.2671,-7.2671,-7.2671,-7.2671,-7.2671,-7.2671,-7.2671,-7.2671,-7.2671,-7.2671,-7.3101,-7.3437,-7.3721,-7.4642,-7.5299,-7.5299,-7.6167,-7.6765,-7.6469,-7.6956,-7.7304,-7.7304,-7.7304,-7.7304,-7.7304,-7.7304,-7.7304,-7.7304,-7.6276,-7.5652,-7.5652,-7.4882,-7.4221,-7.3707,-7.3492,-7.3088,-7.261,-7.2779,-7.2927,-7.3037,-7.3091,-7.3199,-3.7463,-3.8665,0.0,0.0,0.0,0.0,0.0,0.0,0.0,0.0,0.0,0.0,0.0,0.0,0.0,0.0,0.0,0.0,0.0,0.0,0.0,0.0,0.0,0.0,0.0,0.0,0.0,0.0,0.0,0.0,0.0,0.0,0.0,0.0,0.0,0.0,-7.1312,-7.1312,-7.1312,-7.1312,-7.1312,-7.1312,-7.1312,-7.1312,-7.1312,-7.1312,-7.1312,-7.1367,-7.16,-7.1688,-7.1951,-7.2416,-7.2586,-7.2671,-7.2671,-7.2671,-7.2671,-7.2671,-7.2671,-7.2671,-7.2671,-7.2671,-7.2671,-7.2671,-7.2671,-7.2671,-7.2671,-7.2671,-7.2671,-7.2671,-7.2671,-7.2671,-7.2671,-7.2671,-7.2671,-7.2671,-7.2671,-7.2887,-7.3018,-7.3018,-7.3437,-7.3956,-7.4492,-7.5227,-7.5895,-7.6135,-7.6829,-7.7181,-7.6956,-7.7181,-7.7304,-7.7304,-7.7304,-7.7304,-7.7304,-7.7304,-7.7304,-7.7304,-7.679,-7.6497,-7.6497,-7.5726,-7.5028,-7.4537,-7.4396,-7.4049,-7.3553,-7.3721,-7.3868,-7.3976,-7.3993,-7.3898,-3.7727,0.0,0.0,0.0,0.0,0.0,0.0,0.0,0.0,0.0,0.0,0.0,0.0,0.0,0.0,0.0,0.0,0.0,0.0,0.0,0.0,0.0,0.0,0.0,0.0,0.0,0.0,0.0,0.0,0.0,0.0,0.0,0.0,0.0,0.0,0.0,-7.1312,-7.1312,-7.1312,-7.1312,-7.1312,-7.1312,-7.1312,-7.1312,-7.1312,-7.1312,-7.1312,-7.1457,-7.16,-7.1898,-7.2245,-7.2671,-7.2671,-7.2671,-7.2671,-7.2671,-7.2671,-7.2671,-7.2671,-7.2671,-7.2671,-7.2671,-7.2671,-7.2671,-7.2671,-7.2671,-7.2671,-7.2671,-7.2671,-7.2671,-7.2671,-7.2671,-7.2671,-7.2671,-7.2671,-7.2671,-7.2671,-7.3311,-7.3799,-7.3799,-7.3799,-7.434,-7.5895,-7.5548,-7.5299,-7.6135,-7.6829,-7.7056,-7.627,-7.6829,-7.7304,-7.7304,-7.7304,-7.7304,-7.7304,-7.7304,-7.7304,-7.7304,-7.7304,-7.7304,-7.7304,-7.6533,-7.619,-7.6369,-7.5595,-7.5306,-7.5383,-7.5551,-7.5606,-7.5606,-7.5733,-7.5378,-3.7466,0.0,0.0,0.0,0.0,0.0,0.0,0.0,0.0,0.0,0.0,0.0,0.0,0.0,0.0,0.0,0.0,0.0,0.0,0.0,0.0,0.0,0.0,0.0,0.0,0.0,0.0,0.0,0.0,0.0,0.0,0.0,0.0,0.0,0.0,0.0,-7.1546,-7.1546,-7.1546,-7.1546,-7.1546,-7.1457,-7.1312,-7.1457,-7.1546,-7.1512,-7.1722,-7.1898,-7.2124,-7.2416,-7.2586,-7.2671,-7.2671,-7.2671,-7.2671,-7.2671,-7.2671,-7.2671,-7.2671,-7.2671,-7.2671,-7.2671,-7.2671,-7.2671,-7.2671,-7.2671,-7.2671,-7.2671,-7.2671,-7.2671,-7.2671,-7.2671,-7.2671,-7.2671,-7.2671,-7.2804,-7.3392,-7.3677,-7.3956,-7.4567,-7.5083,-7.5618,-7.6135,-7.6403,-7.6664,-7.6956,-7.7181,-7.7243,-7.6956,-7.7181,-7.7304,-7.7304,-7.7304,-7.7304,-7.7304,-7.7402,-7.7524,-7.7524,-7.7584,-7.7547,-7.7304,-7.7242,-7.6898,-7.6405,-7.6343,-7.605,-7.5551,-7.5716,-7.5733,-7.5733,-7.5787,-7.5676,0.0,0.0,0.0,0.0,0.0,0.0,0.0,0.0,0.0,0.0,0.0,0.0,0.0,0.0,0.0,0.0,0.0,0.0,0.0,0.0,0.0,0.0,0.0,0.0,0.0,0.0,0.0,0.0,0.0,0.0,0.0,0.0,0.0,0.0,0.0,0.0,-7.16,-7.1688,-7.1776,-7.1776,-7.1776,-7.1722,-7.158,-7.16,-7.1688,-7.1776,-7.1985,-7.2159,-7.2331,-7.2586,-7.2671,-7.2671,-7.2671,-7.2671,-7.2671,-7.2671,-7.2671,-7.2671,-7.2671,-7.2671,-7.2671,-7.2671,-7.2671,-7.2671,-7.2671,-7.2671,-7.2671,-7.2671,-7.2671,-7.2671,-7.2671,-7.2887,-7.3018,-7.2755,-7.2671,-7.2804,-7.3229,-7.3597,-7.4033,-7.4864,-7.537,-7.5895,-7.6534,-7.6765,-7.6956,-7.7243,-7.7304,-7.7304,-7.7304,-7.7304,-7.7304,-7.7304,-7.7304,-7.7304,-7.7402,-7.7524,-7.7584,-7.7643,-7.7762,-7.7666,-7.7487,-7.7643,-7.7481,-7.7024,-7.716,-7.7107,-7.6681,-7.6736,-7.679,-7.679,-7.679,-7.6604,0.0,0.0,0.0,0.0,0.0,0.0,0.0,0.0,0.0,0.0,0.0,0.0,0.0,0.0,0.0,0.0,0.0,0.0,0.0,0.0,0.0,0.0,0.0,0.0,0.0,0.0,0.0,0.0,0.0,0.0,0.0,0.0,0.0,0.0,0.0,0.0,-7.1586,-7.1864,-7.1985,0.0,-7.1985,-7.1985,-7.1985,-7.1776,-7.1776,-7.2072,-7.2245,-7.2331,-7.2331,-7.2586,-7.2671,-7.2671,-7.2671,-7.2671,-7.2671,-7.2671,-7.2671,-7.2671,-7.2671,-7.2671,-7.2671,-7.2671,-7.2671,-7.2671,-7.2671,-7.2671,-7.2671,-7.2671,-7.2671,-7.2671,-7.2671,-7.3183,-7.3517,-7.2887,-7.2755,-7.2838,-7.2887,-7.3472,-7.4187,-7.4937,-7.5155,-7.5652,-7.7056,-7.6765,-7.657,-7.7181,-7.7304,-7.7304,-7.7304,-7.7304,-7.7341,-7.7341,-7.7341,-7.7402,-7.7584,-7.7584,-7.7703,-7.7783,-7.7879,-7.7879,-7.7879,-7.782,-7.7842,-7.8014,-7.8014,-7.8127,-7.8276,-7.8276,-7.8276,-7.8276,-7.8276,-7.7905,0.0,0.0,0.0,0.0,0.0,0.0,0.0,0.0,0.0,0.0,0.0,0.0,0.0,0.0,0.0,0.0,0.0,0.0,0.0,0.0,0.0,0.0,0.0,0.0,0.0,0.0,0.0,0.0,0.0,0.0,0.0,0.0,0.0,0.0,0.0,-7.0924,-7.1268,-7.1936,-7.2245,0.0,-7.2245,-7.2245,-7.2245,-7.2159,-7.2331,-7.2586,-7.2586,-7.2586,-7.2586,-7.2671,-7.2671,-7.2671,-7.2671,-7.2671,-7.2671,-7.2671,-7.2671,-7.2671,-7.2671,-7.2671,-7.2671,-7.2671,-7.2671,-7.2671,-7.2671,-7.2671,-7.2671,-7.2671,-7.2671,-7.2671,-7.2671,-7.2838,-7.2887,-7.2755,-7.3183,-7.3756,-7.434,-7.4642,-7.501,-7.5757,-7.6403,-7.6893,-7.7243,-7.7181,-7.7118,-7.7243,-7.7304,-7.7304,-7.7304,-7.7304,-7.7402,-7.7524,-7.7524,-7.7584,-7.7762,-7.7842,-7.79,-7.7957,-7.8108,-7.8165,-7.8165,-7.8014,-7.7957,-7.8014,-7.8165,-7.8276,-7.8276,-7.8276,-7.8276,-7.8276,-7.8276,-7.8202,0.0,0.0,0.0,0.0,0.0,0.0,0.0,0.0,0.0,0.0,0.0,0.0,0.0,0.0,0.0,0.0,0.0,0.0,0.0,0.0,0.0,0.0,0.0,0.0,0.0,0.0,0.0,0.0,0.0,0.0,0.0,0.0,0.0,0.0,-7.0174,-7.043,-7.0683,-7.1144,-7.14,-7.14,-7.14,-7.1607,-7.1951,-7.2329,-7.2586,-7.2671,-7.2671,-7.2671,-7.2671,-7.2671,-7.2671,-7.2671,-7.2671,-7.2671,-7.2671,-7.2671,-7.2671,-7.2671,-7.2671,-7.2671,-7.2671,-7.2671,-7.2671,-7.2671,-7.2671,-7.2671,-7.2671,-7.2671,-7.2671,-7.2671,-7.2671,-7.297,-7.3311,-7.3712,-7.3552,-7.3437,-7.4264,-7.4416,-7.479,-7.5963,-7.6469,-7.6893,-7.7243,-7.7304,-7.7304,-7.7304,-7.7304,-7.7304,-7.7304,-7.7402,-7.7463,-7.762,-7.7643,-7.7762,-7.79,-7.7957,-7.8071,-7.8127,-7.8221,-7.8276,-7.8276,-7.8221,-7.8127,-7.8127,-7.8221,-7.8276,-7.8276,-7.8276,-7.8276,-7.8276,-7.8276,-7.8276,0.0,0.0,0.0,0.0,0.0,0.0,0.0,0.0,0.0,0.0,0.0,0.0,0.0,0.0,0.0,0.0,0.0,0.0,0.0,0.0,0.0,0.0,0.0,0.0,0.0,0.0,0.0,0.0,0.0,0.0,0.0,0.0,-6.9441,-6.9306,-6.9727,-6.9928,-7.001,-7.0243,-7.0394,-7.0394,-7.0394,-7.0705,-7.1325,-7.2119,-7.2533,-7.2671,-7.2671,-7.2671,-7.2671,-7.2671,-7.2671,-7.2671,-7.2671,-7.2671,-7.2671,-7.2671,-7.2671,-7.2671,-7.2671,-7.2671,-7.2671,-7.2671,-7.2671,-7.2671,-7.2671,-7.2671,-7.2671,-7.2671,-7.2671,-7.2671,-7.2671,-7.3229,-7.3956,-7.4606,-7.3913,-7.3345,-7.4033,-7.4187,-7.4642,-7.5895,-7.627,-7.6534,-7.7181,-7.7304,-7.7304,-7.7304,-7.7304,-7.7304,-7.7341,-7.7463,-7.762,-7.7643,-7.7762,-7.79,-7.8014,-7.8071,-7.8127,-7.8276,-7.8276,-7.8276,-7.8276,-7.8276,-7.8276,-7.8276,-7.8276,-7.8276,-7.8276,-7.8276,-7.8276,-7.8276,-7.8276,-7.8276,0.0,0.0,0.0,0.0,0.0,0.0,0.0,0.0,0.0,0.0,0.0,0.0,0.0,0.0,0.0,0.0,0.0,0.0,0.0,0.0,0.0,0.0,0.0,0.0,0.0,0.0,0.0,0.0,0.0,0.0,0.0,-6.9115,-6.8822,-6.8939,-6.8987,-6.9151,-6.9428,-7.0084,-7.0394,-7.0394,-7.0394,-7.0429,-7.0567,-7.1325,-7.2015,-7.2671,-7.2671,-7.2671,-7.2671,-7.2671,-7.2671,-7.2671,-7.2671,-7.2671,-7.2671,-7.2671,-7.2671,-7.2671,-7.2671,-7.2671,-7.2671,-7.2671,-7.2671,-7.2671,-7.2671,-7.2671,-7.2671,-7.2671,-7.2671,-7.2671,-7.2671,-7.3229,-7.3799,-7.3956,-7.434,-7.4937,-7.5688,-7.5895,-7.5895,-7.6135,-7.67,-7.7181,-7.7243,-7.7304,-7.7304,-7.7304,-7.7304,-7.7402,-7.7524,-7.7584,-7.7703,-7.79,-7.7957,-7.8071,-7.8221,-7.8276,-7.8276,-7.8276,-7.8276,-7.8276,-7.8276,-7.8276,-7.8276,-7.8276,-7.8276,-7.8276,-7.8276,-7.8276,-7.8276,-7.8276,-7.8276,-7.8276,0.0,0.0,0.0,0.0,0.0,0.0,0.0,0.0,0.0,0.0,0.0,0.0,0.0,0.0,0.0,0.0,0.0,0.0,0.0,0.0,0.0,0.0,0.0,0.0,0.0,0.0,0.0,0.0,0.0,0.0,-6.8597,-6.8451,-6.828,-6.828,-6.8361,-6.8521,-6.8635,-6.8946,-6.9118,-6.9118,-6.9118,-6.9325,-6.9773,-7.0118,-7.0912,-7.205,-7.2464,-7.2671,-7.2671,-7.2671,-7.2671,-7.2671,-7.2671,-7.2671,-7.2671,-7.2671,-7.2671,-7.2671,-7.2671,-7.2671,-7.2671,-7.2671,-7.2671,-7.2671,-7.2671,-7.2671,-7.2671,-7.2671,-7.2671,-7.2671,-7.2671,-7.3229,-7.3878,-7.434,-7.5083,-7.5895,-7.6636,-7.6469,-7.6336,-7.6765,-7.7118,-7.7304,-7.7304,-7.7304,-7.7341,-7.7463,-7.7463,-7.7524,-7.7703,-7.7762,-7.7842,-7.8014,-7.8071,-7.8221,-7.8276,-7.8276,-7.8276,-7.8276,-7.8276,-7.8276,-7.8276,-7.8276,-7.8276,-7.8276,-7.8276,-7.8276,-7.8276,-7.8276,-7.8276,-7.8276,-7.8276,-7.8276,0.0,0.0,0.0,0.0,0.0,0.0,0.0,0.0,0.0,0.0,0.0,0.0,0.0,0.0,0.0,0.0,0.0,0.0,0.0,0.0,0.0,0.0,0.0,0.0,0.0,0.0,0.0,0.0,0.0,0.0,-6.7879,-6.8004,-6.8004,-6.7879,-6.8004,-6.8083,-6.8083,-6.8083,-6.8083,-6.8083,-6.8083,-6.8394,-6.898,-6.9187,-6.9877,-7.0981,-7.1946,-7.2395,-7.2395,-7.2602,-7.2671,-7.2671,-7.2671,-7.2671,-7.2671,-7.2671,-7.2671,-7.2671,-7.2671,-7.2671,-7.2671,-7.2671,-7.2671,-7.2671,-7.2671,-7.2671,-7.2671,-7.2671,-7.2671,-7.2755,-7.297,-7.3517,-7.434,-7.5083,-7.5895,-7.6636,-7.7181,-7.6829,-7.6636,-7.7181,-7.7304,-7.7341,-7.7402,-7.7402,-7.7463,-7.7643,-7.7643,-7.7703,-7.7842,-7.7957,-7.8014,-7.8071,-7.8221,-7.8276,-7.8276,-7.8276,-7.8276,-7.8276,-7.8276,-7.8276,-7.8276,-7.8276,-7.8276,-7.8276,-7.8276,-7.8276,-7.8276,-7.8276,-7.8276,-7.8276,-7.8276,-7.8276,0.0,0.0,0.0,0.0,0.0,0.0,0.0,0.0,0.0,0.0,0.0,0.0,0.0,0.0,0.0,0.0,0.0,0.0,0.0,0.0,0.0,0.0,0.0,0.0,0.0,0.0,0.0,0.0,0.0,0.0,-6.8083,-6.8083,-6.8083,-6.8083,-6.8083,-6.8083,-6.8083,-6.8083,-6.8083,-6.8083,-6.8083,-6.8118,-6.8187,-6.8946,-6.9325,-6.9463,-7.0912,-7.1567,-7.1601,-7.236,-7.2671,-7.2671,-7.2671,-7.2671,-7.2671,-7.2671,-7.2671,-7.2671,-7.2671,-7.2671,-7.2671,-7.2671,-7.2671,-7.2671,-7.2671,-7.2671,-7.2671,-7.2671,-7.2671,-7.2887,-7.3597,-7.434,-7.5155,-7.5963,-7.67,-7.7243,-7.7304,-7.7243,-7.7243,-7.7304,-7.7304,-7.7402,-7.7524,-7.7584,-7.7643,-7.7762,-7.782,-7.7842,-7.7957,-7.8014,-7.8071,-7.8276,-7.8276,-7.8276,-7.8276,-7.8276,-7.8276,-7.8276,-7.8276,-7.8276,-7.8276,-7.8276,-7.8276,-7.8276,-7.8276,-7.8276,-7.8276,-7.8276,-7.8276,-7.8276,-7.8276,-7.8276,0.0,0.0,0.0,0.0,0.0,0.0,0.0,0.0,0.0,0.0,0.0,0.0,0.0,0.0,0.0,0.0,0.0,0.0,0.0,0.0,0.0,0.0,0.0,0.0,0.0,0.0,0.0,0.0,0.0,0.0,-6.8083,-6.8083,-6.8083,-6.8083,-6.8083,-6.8083,-6.8083,-6.8083,-6.8083,-6.8083,-6.8083,-6.8083,-6.8118,-6.8394,-6.8532,-6.8566,-6.9601,-7.036,-7.0843,-7.1601,-7.1912,-7.1981,-7.2464,-7.2671,-7.2671,-7.2671,-7.2671,-7.2671,-7.2671,-7.2671,-7.2671,-7.2671,-7.2671,-7.2671,-7.2671,-7.2671,-7.2671,-7.2671,-7.2671,-7.2755,-7.3053,-7.4068,-7.5299,-7.6599,-7.7118,-7.7304,-7.7304,-7.7304,-7.7304,-7.7304,-7.7402,-7.7524,-7.762,-7.7643,-7.7762,-7.79,-7.7957,-7.8014,-7.8165,-7.8221,-7.8221,-7.8276,-7.8276,-7.8276,-7.8276,-7.8276,-7.8276,-7.8276,-7.8276,-7.8276,-7.8276,-7.8276,-7.8276,-7.8276,-7.8276,-7.8276,-7.8276,-7.8276,-7.8276,-7.8276,-7.8276,-7.8276,0.0,0.0,0.0,0.0,0.0,0.0,0.0,0.0,0.0,0.0,0.0,0.0,0.0,0.0,0.0,0.0,0.0,0.0,0.0,0.0,0.0,0.0,0.0,0.0,0.0,0.0,0.0,0.0,0.0,0.0,-6.8083,-6.8083,-6.8083,-6.8083,-6.8083,-6.8083,-6.8083,-6.8083,-6.8083,-6.8083,-6.8083,-6.8083,-6.8083,-6.8083,-6.8083,-6.8118,-6.867,-6.9325,-7.0084,-7.0808,-7.1256,-7.1532,-7.2084,-7.2429,-7.2671,-7.2671,-7.2671,-7.2671,-7.2671,-7.2671,-7.2671,-7.2671,-7.2671,-7.2671,-7.2671,-7.2671,-7.2671,-7.2671,-7.2671,-7.2755,-7.3018,-7.4187,-7.5757,-7.7118,-7.7402,-7.7402,-7.7426,-7.7463,-7.7402,-7.7402,-7.7524,-7.7703,-7.7703,-7.782,-7.79,-7.8071,-7.8071,-7.8127,-7.8276,-7.8276,-7.8276,-7.8276,-7.8276,-7.8276,-7.8276,-7.8276,-7.8276,-7.8276,-7.8276,-7.8276,-7.8276,-7.8276,-7.8276,-7.8276,-7.8276,-7.8276,-7.8276,-7.8276,-7.8276,-7.8276,-7.8276,-7.8276,0.0,0.0,0.0,0.0,0.0,0.0,0.0,0.0,0.0,0.0,0.0,0.0,0.0,0.0,0.0,0.0,0.0,0.0,0.0,0.0,0.0,0.0,0.0,0.0,0.0,0.0,0.0,0.0,0.0,-6.6462,-6.7876,-6.798,-6.798,-6.8014,-6.8014,-6.8014,-6.8049,-6.8049,-6.8083,-6.8083,-6.8083,-6.8083,-6.8083,-6.8083,-6.8083,-6.8083,-6.8083,-6.8532,-6.9291,-7.0049,-7.0774,-7.1429,-7.1463,-7.1981,-7.2636,-7.2671,-7.2671,-7.2671,-7.2671,-7.2671,-7.2671,-7.2671,-7.2671,-7.2671,-7.2671,-7.2671,-7.2671,-7.2671,-7.2671,-7.2887,-7.3677,-7.501,-7.6403,-7.7402,-7.762,-7.7643,-7.7762,-7.7703,-7.762,-7.762,-7.7703,-7.7842,-7.8014,-7.8014,-7.8071,-7.8276,-7.8276,-7.8276,-7.8276,-7.8276,-7.8276,-7.8276,-7.8276,-7.8276,-7.8276,-7.8276,-7.8276,-7.8276,-7.8276,-7.8276,-7.8276,-7.8276,-7.8276,-7.8276,-7.8276,-7.8276,-7.8276,-7.8276,-7.8276,-7.8276,-7.8276,-7.8276,-3.1627,0.0,0.0,0.0,0.0,0.0,0.0,0.0,0.0,0.0,0.0,0.0,0.0,0.0,0.0,0.0,0.0,0.0,0.0,0.0,0.0,0.0,0.0,0.0,0.0,0.0,0.0,0.0,-6.422,-6.4393,-6.4807,-6.4841,-6.5083,-6.5635,-6.5635,-6.6186,-6.729,-6.729,-6.7566,-6.8083,-6.8083,-6.8083,-6.8083,-6.8083,-6.8083,-6.8083,-6.8083,-6.8221,-6.8497,-6.9256,-6.9704,-6.998,-7.1084,-7.1636,-7.1877,-7.2464,-7.2671,-7.2671,-7.2671,-7.2671,-7.2671,-7.2671,-7.2671,-7.2671,-7.2671,-7.2671,-7.2671,-7.2671,-7.2671,-7.297,-7.434,-7.5047,-7.5823,-7.7243,-7.7643,-7.7762,-7.782,-7.7842,-7.7842,-7.7762,-7.7842,-7.7957,-7.8014,-7.8127,-7.8221,-7.8276,-7.8276,-7.8276,-7.8276,-7.8276,-7.8276,-7.8276,-7.8276,-7.8276,-7.8276,-7.8276,-7.8276,-7.8276,-7.8276,-7.8276,-7.8276,-7.8276,-7.8276,-7.8276,-7.8276,-7.8276,-7.8276,-7.8276,-7.8276,-7.8276,-7.8276,-7.8276,0.0,0.0,0.0,0.0,0.0,0.0,0.0,0.0,0.0,0.0,0.0,0.0,0.0,0.0,0.0,0.0,0.0,0.0,0.0,0.0,0.0,0.0,0.0,0.0,0.0,0.0,0.0,-6.3531,-6.36,-6.3738,-6.4048,-6.3772,-6.3807,-6.422,-6.422,-6.4669,-6.5566,-6.5876,-6.6255,-6.6669,-6.7325,-6.7635,-6.7635,-6.7945,-6.8083,-6.8083,-6.8083,-6.8083,-6.8152,-6.8601,-6.898,-6.9394,-7.0567,-7.1222,-7.1601,-7.2395,-7.2671,-7.2671,-7.2671,-7.2671,-7.2671,-7.2671,-7.2671,-7.2671,-7.2671,-7.2671,-7.2671,-7.2671,-7.2671,-7.3018,-7.4681,-7.5156,-7.5649,-7.7389,-7.782,-7.79,-7.7994,-7.8108,-7.8071,-7.79,-7.8014,-7.8127,-7.8127,-7.8221,-7.8276,-7.8276,-7.8276,-7.8276,-7.8276,-7.8276,-7.8276,-7.8276,-7.8276,-7.8276,-7.8276,-7.8276,-7.8276,-7.8276,-7.8276,-7.8276,-7.8276,-7.8276,-7.8276,-7.8276,-7.8276,-7.8276,-7.8276,-7.8276,-7.8276,-7.8276,-7.8276,-7.8276,0.0,0.0,0.0,0.0,0.0,0.0,-4.2894,-4.3512,0.0,0.0,0.0,0.0,0.0,0.0,0.0,0.0,0.0,0.0,0.0,0.0,0.0,0.0,0.0,0.0,0.0,-5.9564,-6.0771,-6.2806,-6.3117,-6.3531,-6.4289,-6.3703,-6.3324,-6.3324,-6.3324,-6.3393,-6.3462,-6.4117,-6.4496,-6.46,-6.6048,-6.6738,-6.6773,-6.7601,-6.798,-6.798,-6.8049,-6.8083,-6.8083,-6.8083,-6.8497,-6.9222,-6.998,-7.0705,-7.1463,-7.2257,-7.2602,-7.2671,-7.2671,-7.2671,-7.2671,-7.2671,-7.2671,-7.2671,-7.2671,-7.2671,-7.2671,-7.2671,-7.2671,-7.3101,-7.4793,-7.5192,-7.5751,-7.7592,-7.8014,-7.8071,-7.8276,-7.8276,-7.8221,-7.8071,-7.8165,-7.8276,-7.8276,-7.8276,-7.8276,-7.8276,-7.8276,-7.8276,-7.8276,-7.8276,-7.8276,-7.8276,-7.8276,-7.8276,-7.8276,-7.8276,-7.8276,-7.8276,-7.8276,-7.8276,-7.8276,-7.8276,-7.8276,-7.8276,-7.8276,-7.8276,-7.8276,-7.8276,-7.8276,-7.8276,-7.8276,-7.8276,0.0,0.0,0.0,0.0,0.0,0.0,0.0,-3.9721,0.0,0.0,0.0,0.0,0.0,0.0,0.0,0.0,0.0,0.0,0.0,0.0,0.0,0.0,0.0,0.0,0.0,-5.8633,-5.853,-5.8978,-6.0151,-6.1185,-6.191,-6.1841,-6.1737,-6.1737,-6.1737,-6.2048,-6.2703,-6.2841,-6.322,-6.3807,-6.4703,-6.5152,-6.5186,-6.6566,-6.7187,-6.7256,-6.7842,-6.8083,-6.8083,-6.8083,-6.8187,-6.8394,-6.9187,-6.9946,-7.0705,-7.1463,-7.2119,-7.2671,-7.2671,-7.2671,-7.2671,-7.2671,-7.2671,-7.2671,-7.2671,-7.2671,-7.2671,-7.2671,-7.2838,-7.3264,-7.4793,-7.544,-7.6058,-7.7651,-7.8127,-7.8276,-7.8276,-7.8276,-7.8276,-7.8221,-7.8276,-7.8276,-7.8276,-7.8276,-7.8276,-7.8276,-7.8276,-7.8276,-7.8276,-7.8276,-7.8276,-7.8276,-7.8276,-7.8276,-7.8276,-7.8276,-7.8276,-7.8276,-7.8276,-7.8276,-7.8276,-7.8276,-7.8276,-7.8276,-7.8276,-7.8276,-7.8276,-7.8276,-7.8276,-7.8276,-7.8276,-7.8276,0.0,0.0,0.0,-3.925,0.0,0.0,0.0,0.0,0.0,0.0,0.0,0.0,0.0,0.0,0.0,0.0,0.0,0.0,0.0,0.0,0.0,0.0,0.0,0.0,0.0,-5.9047,-5.9047,-5.9047,-5.9771,-6.0358,-6.0737,-6.0737,-6.0909,-6.1289,-6.0944,-6.0944,-6.1358,-6.1358,-6.153,-6.191,-6.3048,-6.3807,-6.4186,-6.5324,-6.6255,-6.7014,-6.7394,-6.7738,-6.8083,-6.8083,-6.8083,-6.8187,-6.898,-6.9497,-6.998,-7.1084,-7.1739,-7.2153,-7.2533,-7.2671,-7.2671,-7.2671,-7.2671,-7.2671,-7.2671,-7.2671,-7.2755,-7.2838,-7.2922,-7.3426,-7.5084,-7.5649,-7.6228,-7.7805,-7.8221,-7.8276,-7.8276,-7.8276,-7.8276,-7.8276,-7.8276,-7.8276,-7.8276,-7.8276,-7.8276,-7.8276,-7.8276,-7.8276,-7.8276,-7.8276,-7.8276,-7.8276,-7.8276,-7.8276,-7.8276,-7.8276,-7.8276,-7.8276,-7.8276,-7.8276,-7.8276,-7.8276,-7.8276,-7.8276,-7.8276,-7.8276,-7.8276,-7.8276,-7.8276,-7.8276,-7.8276,-7.8276,0.0,0.0,0.0,0.0,0.0,-4.0629,0.0,0.0,0.0,-4.3477,0.0,0.0,0.0,0.0,0.0,0.0,0.0,0.0,0.0,0.0,0.0,0.0,0.0,0.0,0.0,-5.8461,-5.9012,-5.9909,-5.9564,-5.9564,-6.0151,-6.0323,-6.0634,-6.1082,-6.0634,-6.0323,-6.0185,-6.0185,-6.0116,-5.9978,-6.1392,-6.2358,-6.2979,-6.3876,-6.5014,-6.6359,-6.6635,-6.7187,-6.7911,-6.8049,-6.8083,-6.8152,-6.8808,-6.9153,-6.9428,-7.0636,-7.1256,-7.1567,-7.2222,-7.2567,-7.2671,-7.2671,-7.2671,-7.2671,-7.2671,-7.2755,-7.2755,-7.2922,-7.3088,-7.3587,-7.5334,-7.5823,-7.6294,-7.792,-7.8276,-7.8276,-7.8276,-7.8276,-7.8276,-7.8276,-7.8276,-7.8276,-7.8276,-7.8276,-7.8276,-7.8276,-7.8276,-7.8276,-7.8276,-7.8276,-7.8276,-7.8276,-7.8276,-7.8276,-7.8276,-7.8276,-7.8276,-7.8276,-7.8276,-7.8276,-7.8276,-7.8276,-7.8276,-7.8276,-7.8276,-7.8276,-7.8276,-7.8276,-7.8276,-7.8276,-7.8276,-7.8276,0.0,0.0,0.0,0.0,-4.4354,0.0,0.0,0.0,-4.2216,-4.0664,0.0,0.0,0.0,0.0,0.0,0.0,0.0,0.0,0.0,0.0,0.0,0.0,0.0,0.0,0.0,0.0,-5.4805,-5.884,-5.7288,-5.7322,-6.0047,-6.0806,-6.0909,-6.0323,-6.0875,-6.0875,-6.022,-6.0185,-5.984,-5.915,-6.0047,-6.0496,-6.0634,-6.2082,-6.3186,-6.4048,-6.5428,-6.6428,-6.7187,-6.7807,-6.8083,-6.8118,-6.8187,-6.867,-6.9291,-6.9463,-7.036,-7.1498,-7.1601,-7.2084,-7.2671,-7.2671,-7.2671,-7.2671,-7.2671,-7.2838,-7.3005,-7.3005,-7.3334,-7.394,-7.5405,-7.5959,-7.6461,-7.7957,-7.8276,-7.8276,-7.8276,-7.8276,-7.8276,-7.8276,-7.8276,-7.8276,-7.8276,-7.8276,-7.8276,-7.8276,-7.8276,-7.8276,-7.8276,-7.8276,-7.8276,-7.8276,-7.8276,-7.8276,-7.8276,-7.8276,-7.8276,-7.8276,-7.8276,-7.8276,-7.8276,-7.8276,-7.8276,-7.8276,-7.8276,-7.8276,-7.8276,-7.8276,-7.8276,-7.8276,-7.8276,-7.8276,0.0,0.0,0.0,0.0,0.0,0.0,-4.0319,0.0,-4.0491,0.0,0.0,0.0,0.0,0.0,0.0,0.0,0.0,0.0,0.0,0.0,0.0,0.0,0.0,0.0,0.0,0.0,0.0,0.0,0.0,-5.546,-5.8081,-5.8944,-5.9806,-6.0806,-6.0737,-6.0703,-6.084,-6.084,-6.0461,-5.9702,-6.0047,-6.0185,-6.022,-6.0875,-6.1806,-6.3013,-6.4083,-6.5221,-6.6393,-6.7152,-6.7704,-6.8083,-6.8083,-6.829,-6.8635,-6.9118,-6.967,-7.0325,-7.1187,-7.1705,-7.205,-7.2533,-7.2671,-7.2671,-7.2671,-7.2838,-7.3005,-7.317,-7.3667,-7.4527,-7.5685,-7.6359,-7.7009,-7.8071,-7.8276,-7.8276,-7.8276,-7.8276,-7.8276,-7.8276,-7.8276,-7.8276,-7.8276,-7.8276,-7.8276,-7.8276,-7.8276,-7.8276,-7.8276,-7.8276,-7.8276,-7.8276,-7.8276,-7.8276,-7.8276,-7.8276,-7.8276,-7.8276,-7.8276,-7.8276,-7.8276,-7.8276,-7.8276,-7.8276,-7.8276,-7.8276,-7.8276,-7.8276,-7.8276,-7.8276,-7.8276,-7.8276,-4.9561,0.0,0.0,0.0,0.0,0.0,0.0,0.0,0.0,0.0,0.0,0.0,0.0,0.0,0.0,0.0,0.0,0.0,0.0,0.0,0.0,0.0,0.0,0.0,0.0,0.0,0.0,0.0,0.0,0.0,-5.6322,-5.7185,-5.8461,-6.0323,-6.0254,-6.0461,-6.0978,-6.1185,-6.1013,-6.0496,-6.0289,-6.0185,-6.0185,-5.9978,-6.0599,-6.191,-6.2875,-6.4152,-6.5635,-6.66,-6.7428,-6.8083,-6.8083,-6.8083,-6.8152,-6.8739,-6.9084,-6.9463,-7.0739,-7.1463,-7.1912,-7.2498,-7.2671,-7.2671,-7.2755,-7.2922,-7.317,-7.3334,-7.3905,-7.4752,-7.5859,-7.6526,-7.7133,-7.8071,-7.8276,-7.8276,-7.8276,-7.8276,-7.8276,-7.8276,-7.8276,-7.8276,-7.8276,-7.8276,-7.8276,-7.8276,-7.8276,-7.8276,-7.8276,-7.8276,-7.8276,-7.8276,-7.8276,-7.8276,-7.8276,-7.8276,-7.8276,-7.8276,-7.8276,-7.8276,-7.8276,-7.8276,-7.8276,-7.8276,-7.8276,-7.8276,-7.8276,-7.8276,-7.8276,-7.8276,-7.8276,-7.8276,0.0,0.0,0.0,-4.6852,0.0,0.0,0.0,0.0,-4.1905,0.0,0.0,0.0,0.0,0.0,0.0,0.0,0.0,0.0,0.0,0.0,0.0,0.0,0.0,0.0,0.0,0.0,0.0,0.0,0.0,0.0,-5.5391,-5.6391,-5.7219,-5.7978,-5.9426,-6.022,-6.022,-6.0944,-6.1289,-6.1254,-6.053,-6.0185,-6.0185,-5.9392,-5.9495,-6.0358,-6.1875,-6.3358,-6.4841,-6.6359,-6.7428,-6.8083,-6.8083,-6.8083,-6.8083,-6.8118,-6.8635,-6.9394,-7.0153,-7.1394,-7.2636,-7.2671,-7.2671,-7.2755,-7.2922,-7.317,-7.3334,-7.3577,-7.3852,-7.4329,-7.5721,-7.613,-7.6526,-7.7957,-7.8276,-7.8276,-7.8276,-7.8276,-7.8276,-7.8276,-7.8276,-7.8276,-7.8276,-7.8276,-7.8276,-7.8276,-7.8276,-7.8276,-7.8276,-7.8276,-7.8276,-7.8276,-7.8276,-7.8276,-7.8276,-7.8276,-7.8276,-7.8276,-7.8276,-7.8276,-7.8276,-7.8276,-7.8276,-7.8276,-7.8276,-7.8276,-7.8276,-7.8276,-7.8276,-7.8276,-7.8276,-7.8276,0.0,0.0,-5.4324,-5.0026,0.0,0.0,0.0,0.0,0.0,0.0,0.0,0.0,0.0,0.0,0.0,0.0,0.0,0.0,0.0,0.0,0.0,0.0,0.0,0.0,0.0,0.0,0.0,0.0,0.0,0.0,0.0,-5.4598,-5.5632,-5.6357,-5.8357,-5.9668,-6.0185,-6.1461,-6.2082,-6.2082,-6.1841,-6.1185,-6.0185,-5.9909,-5.9668,-5.9461,-6.053,-6.1841,-6.3358,-6.4841,-6.6221,-6.7428,-6.7911,-6.8083,-6.8083,-6.8083,-6.8256,-6.867,-6.9946,-7.1394,-7.2671,-7.2671,-7.2755,-7.2922,-7.3005,-7.3252,-7.3577,-7.3657,-7.4522,-7.5512,-7.5995,-7.6783,-7.7688,-7.8165,-7.8276,-7.8276,-7.8276,-7.8276,-7.8276,-7.8276,-7.8276,-7.8276,-7.8276,-7.8276,-7.8276,-7.8276,-7.8276,-7.8276,-7.8276,-7.8276,-7.8276,-7.8276,-7.8276,-7.8276,-7.8276,-7.8276,-7.8276,-7.8276,-7.8276,-7.8276,-7.8276,-7.8276,-7.8276,-7.8276,-7.8276,-7.8276,-7.8276,-7.8276,-7.8276,-7.8276,-7.8276,-7.8276,-5.5144,-5.5758,0.0,-5.1679,-4.9512,0.0,-4.3614,0.0,0.0,0.0,0.0,0.0,0.0,0.0,0.0,0.0,0.0,0.0,0.0,0.0,0.0,0.0,0.0,0.0,0.0,0.0,-4.225,-4.5906,0.0,0.0,0.0,0.0,-5.4839,-5.5598,-5.7564,-5.8978,-5.9771,-6.1047,-6.1944,-6.2496,-6.2496,-6.1806,-6.0565,-6.0323,-5.9771,-5.9047,-5.984,-6.1082,-6.2599,-6.4083,-6.56,-6.7049,-6.7807,-6.8083,-6.8083,-6.8083,-6.8428,-6.9049,-7.0049,-7.1394,-7.2671,-7.2671,-7.2838,-7.3005,-7.3088,-7.3415,-7.3692,-7.3772,-7.4598,-7.5406,-7.5652,-7.6591,-7.7592,-7.7863,-7.8071,-7.8221,-7.7957,-7.8127,-7.8221,-7.7957,-7.8127,-7.8276,-7.8276,-7.8276,-7.8276,-7.8276,-7.8276,-7.8276,-7.8276,-7.8276,-7.8276,-7.8276,-7.8276,-7.8276,-7.8276,-7.8276,-7.8276,-7.8276,-7.8276,-7.8276,-7.8276,-7.8276,-7.8276,-7.8276,-7.8276,-7.8276,-7.8276,-7.8276,-7.8276,-7.8276,-7.8276,-7.8128]}]]